[[{"header":{"parameterUnit":"m.s-1","parameterCategory":1,"la1":30.6,"la2":29.2853,"lo1":-89.7004,"lo2":-87.6739,"dy":0.0162,"dx":0.0183,"nx":112,"ny":82,"refTime":"2024-06-07T06:00:00:Z","depth":0,"parameterNumber":2,"parameterNumberName":"U-component_of_WINDS"},"data":[0.0,0.0,0.0,0.0,0.0,0.0,0.0,0.0,0.0,0.0,0.0,0.0,0.0,0.0,0.0,0.0,0.0,0.0,0.0,0.0,0.0,0.0,0.0,0.0,0.0,0.0,0.0,0.0,0.0,0.0,0.0,0.0,0.0,0.0,0.0,0.0,0.0,0.0,0.0,0.0,0.0,0.0,0.0,0.0,0.0,0.0,0.0,0.0,0.0,0.0,0.0,0.0,0.0,0.0,0.0,0.0,0.0,0.0,0.0,0.0,0.0,0.0,0.0,0.0,0.0,0.0,0.0,0.0,0.0,0.0,0.0,0.0,0.0,0.0,0.0,0.0,0.0,0.0,0.0,0.0,0.0,0.0,0.0,0.0,0.0,0.0,0.0,0.0,0.0,0.0,-0.7355,-0.7542,-0.7071,-0.678,-0.6832,-0.6842,-0.6795,-0.6708,0.0,0.0,0.0,0.0,0.0,0.0,0.0,0.0,0.0,0.0,0.0,0.0,0.0,0.0,0.0,0.0,0.0,0.0,0.0,0.0,0.0,0.0,0.0,0.0,0.0,0.0,0.0,0.0,0.0,0.0,0.0,0.0,0.0,0.0,0.0,0.0,0.0,0.0,0.0,0.0,0.0,0.0,0.0,0.0,0.0,0.0,0.0,0.0,0.0,0.0,0.0,0.0,0.0,0.0,0.0,0.0,0.0,0.0,0.0,0.0,0.0,0.0,0.0,0.0,0.0,0.0,0.0,0.0,0.0,0.0,0.0,0.0,0.0,0.0,0.0,0.0,0.0,0.0,0.0,0.0,0.0,0.0,0.0,0.0,0.0,0.0,0.0,0.0,0.0,0.0,0.0,0.0,0.0,0.0,0.0,0.0,0.0,0.0,0.0,0.0,0.0,0.0,0.0,0.0,-0.6836,-0.6836,-0.6969,-0.6981,-0.6877,-0.7052,-0.703,-0.6719,0.0,0.0,0.0,0.0,0.0,0.0,0.0,0.0,0.0,0.0,0.0,0.0,0.0,0.0,0.0,0.0,0.0,0.0,0.0,0.0,0.0,0.0,0.0,0.0,0.0,0.0,0.0,0.0,0.0,0.0,0.0,0.0,0.0,0.0,0.0,0.0,0.0,0.0,0.0,0.0,0.0,0.0,0.0,0.0,0.0,0.0,0.0,0.0,0.0,0.0,0.0,0.0,0.0,0.0,0.0,0.0,0.0,0.0,0.0,0.0,0.0,0.0,0.0,0.0,0.0,0.0,0.0,0.0,0.0,0.0,0.0,0.0,0.0,0.0,0.0,0.0,0.0,0.0,0.0,0.0,0.0,0.0,0.0,0.0,0.0,0.0,0.0,0.0,0.0,0.0,0.0,0.0,0.0,0.0,0.0,0.0,0.0,0.0,0.0,0.0,0.0,0.0,0.0,-0.7218,-0.6998,-0.663,-0.6912,-0.7088,-0.7046,-0.7261,-0.7277,-0.6965,-0.6531,0.0,0.0,0.0,0.0,0.0,0.0,0.0,0.0,0.0,0.0,0.0,0.0,0.0,0.0,0.0,0.0,0.0,0.0,0.0,0.0,0.0,0.0,0.0,0.0,0.0,0.0,0.0,0.0,0.0,0.0,0.0,0.0,0.0,0.0,0.0,0.0,0.0,0.0,0.0,0.0,0.0,0.0,0.0,0.0,0.0,0.0,0.0,0.0,0.0,0.0,0.0,0.0,0.0,0.0,0.0,0.0,0.0,0.0,0.0,0.0,0.0,0.0,0.0,0.0,0.0,0.0,0.0,0.0,0.0,0.0,0.0,0.0,0.0,0.0,0.0,0.0,0.0,0.0,0.0,0.0,0.0,0.0,0.0,0.0,0.0,0.0,0.0,0.0,0.0,0.0,0.0,0.0,0.0,0.0,0.0,0.0,0.0,0.0,0.0,0.0,0.0,0.0,-0.7564,-0.7458,-0.6837,-0.7057,-0.7267,-0.7328,-0.748,-0.7453,-0.7122,-0.6739,0.0,0.0,0.0,0.0,0.0,0.0,0.0,0.0,0.0,0.0,0.0,0.0,0.0,0.0,0.0,0.0,0.0,0.0,0.0,0.0,0.0,0.0,0.0,0.0,0.0,0.0,0.0,0.0,0.0,0.0,0.0,0.0,0.0,0.0,0.0,0.0,0.0,0.0,0.0,0.0,0.0,0.0,0.0,0.0,0.0,0.0,0.0,0.0,0.0,0.0,0.0,0.0,0.0,0.0,0.0,0.0,0.0,0.0,0.0,0.0,0.0,0.0,0.0,0.0,0.0,0.0,0.0,0.0,0.0,0.0,0.0,0.0,0.0,0.0,0.0,0.0,0.0,0.0,0.0,0.0,0.0,0.0,0.0,0.0,0.0,0.0,0.0,0.0,0.0,0.0,0.0,0.0,0.0,0.0,0.0,0.0,0.0,0.0,0.0,0.0,0.0,0.0,-0.7895,-0.8178,-0.7672,-0.7683,-0.7716,-0.7678,-0.7639,-0.7453,-0.7122,-0.6739,0.0,0.0,0.0,0.0,0.0,0.0,0.0,0.0,0.0,0.0,0.0,0.0,0.0,0.0,0.0,0.0,0.0,0.0,0.0,0.0,0.0,0.0,0.0,0.0,0.0,0.0,0.0,0.0,0.0,0.0,0.0,0.0,0.0,0.0,0.0,0.0,0.0,0.0,0.0,0.0,0.0,0.0,0.0,0.0,0.0,0.0,0.0,0.0,0.0,0.0,0.0,0.0,0.0,0.0,0.0,0.0,0.0,0.0,0.0,0.0,0.0,0.0,0.0,0.0,0.0,0.0,0.0,0.0,0.0,0.0,0.0,0.0,0.0,0.0,0.0,0.0,0.0,0.0,0.0,0.0,0.0,0.0,0.0,0.0,0.0,0.0,0.0,0.0,0.0,0.0,0.0,0.0,0.0,0.0,0.0,0.0,0.0,0.0,0.0,0.0,0.0,0.0,-0.7548,-0.7721,-0.7465,-0.7647,-0.7708,-0.7652,-0.7598,-0.7349,-0.6927,0.0,0.0,0.0,0.0,0.0,0.0,0.0,0.0,0.0,0.0,0.0,0.0,0.0,0.0,0.0,0.0,0.0,0.0,0.0,0.0,0.0,0.0,0.0,0.0,0.0,0.0,0.0,0.0,0.0,0.0,0.0,0.0,0.0,0.0,0.0,0.0,0.0,0.0,0.0,0.0,0.0,0.0,0.0,0.0,0.0,0.0,0.0,0.0,0.0,0.0,0.0,0.0,0.0,0.0,0.0,0.0,0.0,0.0,0.0,0.0,0.0,0.0,0.0,0.0,0.0,0.0,0.0,0.0,0.0,0.0,0.0,0.0,0.0,0.0,0.0,0.0,0.0,0.0,0.0,0.0,0.0,0.0,0.0,0.0,0.0,0.0,0.0,0.0,0.0,0.0,0.0,0.0,0.0,0.0,0.0,0.0,0.0,0.0,0.0,0.0,0.0,0.0,-0.7203,-0.7429,-0.7604,-0.761,-0.7647,-0.7631,-0.7562,-0.7454,-0.7169,-0.6648,0.0,0.0,0.0,0.0,0.0,0.0,0.0,0.0,0.0,0.0,0.0,0.0,0.0,0.0,0.0,0.0,0.0,0.0,0.0,0.0,0.0,0.0,0.0,0.0,0.0,0.0,0.0,0.0,0.0,0.0,0.0,0.0,0.0,0.0,0.0,0.0,0.0,0.0,0.0,0.0,0.0,0.0,0.0,0.0,0.0,0.0,0.0,0.0,0.0,0.0,0.0,0.0,0.0,0.0,0.0,0.0,0.0,0.0,0.0,0.0,0.0,0.0,0.0,0.0,0.0,0.0,0.0,0.0,0.0,0.0,0.0,0.0,0.0,0.0,0.0,0.0,0.0,0.0,0.0,0.0,0.0,0.0,0.0,0.0,0.0,0.0,0.0,0.0,0.0,0.0,0.0,0.0,0.0,0.0,0.0,0.0,0.0,0.0,0.0,0.0,0.0,0.0,-0.7379,-0.7668,-0.7955,-0.8162,-0.7811,-0.755,-0.7498,-0.724,-0.6888,0.0,0.0,0.0,0.0,0.0,0.0,0.0,0.0,0.0,0.0,0.0,0.0,0.0,0.0,0.0,0.0,0.0,0.0,0.0,0.0,0.0,0.0,0.0,0.0,0.0,0.0,0.0,0.0,0.0,0.0,0.0,0.0,0.0,0.0,0.0,0.0,0.0,0.0,0.0,0.0,0.0,0.0,0.0,0.0,0.0,0.0,0.0,0.0,0.0,0.0,0.0,0.0,0.0,0.0,0.0,0.0,0.0,0.0,0.0,0.0,0.0,0.0,0.0,0.0,0.0,0.0,0.0,0.0,0.0,0.0,0.0,0.0,0.0,0.0,0.0,0.0,0.0,0.0,0.0,0.0,0.0,0.0,0.0,0.0,0.0,0.0,0.0,0.0,0.0,0.0,0.0,0.0,0.0,0.0,0.0,0.0,0.0,0.0,0.0,0.0,0.0,0.0,0.0,-0.6991,-0.7508,-0.7882,-0.7786,-0.7485,-0.739,-0.7498,-0.6922,-0.6406,-0.6091,0.0,0.0,0.0,0.0,0.0,0.0,0.0,0.0,0.0,0.0,0.0,0.0,0.0,0.0,0.0,0.0,0.0,0.0,0.0,0.0,0.0,0.0,0.0,0.0,0.0,0.0,0.0,0.0,0.0,0.0,0.0,0.0,0.0,0.0,0.0,0.0,0.0,0.0,0.0,0.0,0.0,0.0,0.0,0.0,0.0,0.0,0.0,0.0,0.0,0.0,0.0,0.0,0.0,0.0,0.0,0.0,0.0,0.0,0.0,0.0,0.0,0.0,0.0,0.0,0.0,0.0,0.0,0.0,0.0,0.0,0.0,0.0,0.0,0.0,0.0,0.0,0.0,0.0,0.0,0.0,0.0,0.0,0.0,0.0,0.0,0.0,0.0,0.0,0.0,0.0,0.0,0.0,0.0,0.0,0.0,0.0,0.0,0.0,0.0,0.0,0.0,0.0,-0.6987,-0.7526,-0.7835,-0.7564,-0.7303,-0.7189,-0.7171,-0.666,-0.6121,-0.58,0.0,0.0,0.0,0.0,0.0,0.0,0.0,0.0,0.0,0.0,0.0,0.0,0.0,0.0,0.0,0.0,0.0,0.0,0.0,0.0,0.0,0.0,0.0,0.0,0.0,0.0,0.0,0.0,0.0,0.0,0.0,0.0,0.0,0.0,0.0,0.0,0.0,0.0,0.0,0.0,0.0,0.0,0.0,0.0,0.0,0.0,0.0,0.0,0.0,0.0,0.0,0.0,0.0,0.0,0.0,0.0,0.0,0.0,0.0,0.0,0.0,0.0,0.0,0.0,0.0,0.0,0.0,0.0,0.0,0.0,0.0,0.0,0.0,0.0,0.0,0.0,0.0,0.0,0.0,0.0,0.0,0.0,0.0,0.0,0.0,0.0,0.0,0.0,0.0,0.0,0.0,0.0,0.0,0.0,0.0,0.0,0.0,0.0,0.0,0.0,0.0,0.0,-0.717,-0.7611,-0.7783,-0.7486,-0.7229,-0.6987,-0.674,-0.645,-0.6035,-0.5439,0.0,0.0,0.0,0.0,0.0,0.0,0.0,0.0,0.0,0.0,0.0,0.0,0.0,0.0,0.0,0.0,0.0,0.0,0.0,0.0,0.0,0.0,0.0,0.0,0.0,0.0,0.0,0.0,0.0,0.0,0.0,0.0,0.0,0.0,0.0,0.0,0.0,0.0,0.0,0.0,0.0,0.0,0.0,0.0,0.0,0.0,0.0,0.0,0.0,0.0,0.0,0.0,0.0,0.0,0.0,0.0,0.0,0.0,0.0,0.0,-0.8826,-0.8985,0.0,0.0,0.0,0.0,0.0,0.0,0.0,0.0,0.0,0.0,0.0,0.0,0.0,0.0,0.0,0.0,0.0,0.0,0.0,0.0,0.0,0.0,0.0,0.0,0.0,0.0,0.0,0.0,0.0,0.0,0.0,0.0,0.0,0.0,0.0,0.0,0.0,0.0,0.0,0.0,-0.6921,-0.7496,-0.7712,-0.7252,-0.6978,-0.6837,-0.6681,-0.6235,-0.5892,-0.5649,-0.5353,0.0,0.0,0.0,0.0,0.0,0.0,0.0,0.0,0.0,0.0,0.0,0.0,0.0,0.0,0.0,0.0,0.0,0.0,0.0,0.0,0.0,0.0,0.0,0.0,0.0,0.0,0.0,0.0,0.0,0.0,0.0,0.0,0.0,0.0,0.0,0.0,0.0,0.0,0.0,0.0,0.0,0.0,0.0,0.0,0.0,0.0,0.0,0.0,0.0,0.0,0.0,0.0,0.0,0.0,0.0,0.0,0.0,0.0,0.0,-0.9093,-0.9088,0.0,0.0,0.0,0.0,0.0,0.0,0.0,0.0,0.0,0.0,0.0,0.0,0.0,0.0,0.0,0.0,0.0,0.0,0.0,0.0,0.0,0.0,0.0,0.0,0.0,0.0,0.0,0.0,0.0,0.0,0.0,0.0,0.0,0.0,0.0,0.0,0.0,0.0,0.0,0.0,-0.6954,-0.7412,-0.7522,-0.697,-0.6797,-0.6691,-0.6485,-0.6034,-0.5714,-0.5517,-0.5179,0.0,0.0,0.0,0.0,0.0,0.0,0.0,0.0,0.0,0.0,0.0,0.0,0.0,0.0,0.0,0.0,0.0,0.0,0.0,0.0,0.0,0.0,0.0,0.0,0.0,0.0,0.0,0.0,0.0,0.0,0.0,0.0,0.0,0.0,0.0,0.0,0.0,0.0,0.0,0.0,0.0,0.0,0.0,0.0,0.0,0.0,0.0,0.0,0.0,0.0,0.0,0.0,0.0,-0.9947,-0.9993,-0.9956,-0.9793,-0.9864,-1.0115,-0.9402,-0.9239,-0.9445,-0.883,0.0,0.0,0.0,0.0,0.0,0.0,0.0,0.0,0.0,0.0,0.0,0.0,0.0,0.0,0.0,0.0,0.0,0.0,0.0,0.0,0.0,0.0,-0.6643,-0.6402,-0.6553,-0.6843,-0.7142,0.0,0.0,0.0,0.0,0.0,0.0,0.0,0.0,0.0,0.0,0.0,-0.7019,-0.7261,-0.7246,-0.6756,-0.6701,-0.6544,-0.6173,-0.588,-0.5589,-0.5313,-0.4992,-0.4591,0.0,0.0,0.0,0.0,0.0,0.0,0.0,0.0,0.0,0.0,0.0,0.0,0.0,0.0,0.0,0.0,0.0,0.0,0.0,0.0,0.0,0.0,0.0,0.0,0.0,0.0,0.0,0.0,0.0,0.0,0.0,0.0,-0.789,-0.8335,0.0,0.0,0.0,0.0,0.0,0.0,0.0,0.0,0.0,0.0,0.0,0.0,0.0,-1.0294,-1.0463,-1.0195,-0.9979,-0.9806,-0.9611,-0.949,-0.9498,-0.9763,-0.9763,-0.9524,-0.97,0.0,-0.9802,-0.942,0.0,0.0,0.0,0.0,0.0,0.0,0.0,0.0,0.0,0.0,0.0,0.0,0.0,0.0,0.0,0.0,0.0,0.0,0.0,0.0,0.0,0.0,-0.6704,-0.6679,-0.6854,-0.7084,-0.7105,-0.6726,-0.6428,-0.6395,-0.6315,-0.6283,0.0,0.0,0.0,0.0,0.0,0.0,-0.6729,-0.6992,-0.7031,-0.6756,-0.6701,-0.6539,-0.6059,-0.5822,-0.56,-0.5315,-0.4973,-0.4705,-0.4433,-0.4203,0.0,0.0,0.0,0.0,0.0,0.0,0.0,0.0,0.0,0.0,0.0,0.0,0.0,0.0,0.0,0.0,0.0,0.0,0.0,0.0,0.0,0.0,0.0,0.0,0.0,0.0,0.0,0.0,0.0,-0.8419,-0.893,-0.8992,-0.9347,-0.9496,0.0,0.0,0.0,0.0,0.0,0.0,0.0,0.0,0.0,-1.1187,-1.0677,-1.0526,-1.0835,-1.0594,-1.0314,-1.0056,-1.0197,-1.014,-1.0002,-1.016,-1.0145,-1.001,-1.016,-1.0113,-0.9858,-0.9517,-0.8985,-0.8331,0.0,0.0,0.0,0.0,-0.6077,-0.5793,-0.5916,-0.5958,-0.5925,-0.5708,0.0,0.0,0.0,0.0,0.0,0.0,0.0,-0.6442,-0.6523,-0.6474,-0.6495,-0.6869,-0.6766,-0.6603,-0.6603,-0.64,-0.6282,-0.6505,-0.6534,-0.6491,-0.6314,-0.6288,0.0,0.0,0.0,-0.668,-0.6702,-0.6806,-0.6761,-0.644,-0.6327,-0.6218,-0.6005,-0.5562,-0.5237,-0.5136,-0.4734,-0.448,-0.4394,-0.4243,-0.4071,0.0,0.0,0.0,0.0,0.0,0.0,0.0,0.0,0.0,0.0,0.0,0.0,0.0,0.0,0.0,0.0,0.0,0.0,0.0,0.0,0.0,0.0,0.0,0.0,0.0,0.0,0.0,0.0,-0.915,-0.9666,-0.9696,-1.0105,-1.0219,0.0,0.0,0.0,0.0,0.0,0.0,-0.9964,-1.0232,-1.0723,-1.1426,-1.1001,-1.0937,-1.1243,-1.0985,-1.0702,-1.0483,-1.0697,-1.0667,-1.0522,-1.0522,-1.0522,-1.0522,-1.0522,-1.0261,-0.9836,-0.9531,-0.8985,-0.8323,-0.798,-0.7142,-0.6132,-0.6344,-0.6196,-0.6015,-0.6122,-0.6178,-0.615,-0.6043,-0.5954,-0.5859,-0.5604,0.0,0.0,0.0,0.0,-0.6702,-0.6827,-0.6554,-0.6337,-0.6766,-0.6549,-0.6178,-0.6178,-0.6178,-0.6293,-0.655,-0.6566,-0.6514,-0.6298,-0.6268,0.0,-0.654,-0.6566,-0.6576,-0.6578,-0.6598,-0.644,-0.6173,-0.6059,-0.595,-0.5891,-0.5371,-0.5064,-0.496,-0.4562,-0.4321,-0.432,-0.4316,-0.4168,-0.3871,0.0,0.0,0.0,0.0,0.0,0.0,0.0,0.0,0.0,0.0,0.0,0.0,0.0,0.0,0.0,0.0,0.0,0.0,0.0,0.0,0.0,0.0,0.0,0.0,0.0,0.0,0.0,0.0,0.0,-1.0435,-1.041,0.0,0.0,0.0,0.0,-0.9444,-0.9765,-0.9973,-0.981,-1.0348,-1.0862,-1.1283,-1.1423,-1.1501,-1.1692,-1.1392,-1.115,-1.0846,-1.0608,-1.0522,-1.0522,-1.0522,-1.0522,-1.0522,-1.0522,-1.0241,-0.9791,-0.9518,-0.8987,-0.8257,-0.785,-0.7256,-0.6671,-0.6681,-0.6475,-0.6164,-0.6173,-0.6178,-0.6173,-0.6164,-0.6076,-0.5944,-0.6128,-0.6039,0.0,0.0,-0.6213,-0.6218,-0.6228,-0.6232,-0.6232,-0.6232,-0.6232,-0.6178,-0.6178,-0.6178,-0.6228,-0.6218,-0.6213,-0.6213,-0.6199,0.0,-0.6204,-0.6213,-0.6213,-0.6218,-0.6228,-0.6232,-0.6173,-0.6005,-0.6,-0.5896,-0.5622,-0.5394,-0.5153,-0.4816,-0.4633,-0.4455,-0.4324,-0.4316,-0.4228,-0.4096,-0.3841,0.0,0.0,0.0,0.0,0.0,0.0,0.0,0.0,0.0,0.0,0.0,0.0,0.0,0.0,0.0,0.0,0.0,0.0,0.0,0.0,0.0,0.0,0.0,0.0,0.0,0.0,0.0,0.0,-1.0711,-1.0596,0.0,-0.9718,-1.0012,-0.9936,-0.9205,-0.9605,-0.9826,-0.9678,-0.9984,-1.0319,-1.0728,-1.0764,-1.0814,-1.0854,-1.049,-1.0285,-1.0182,-0.9836,-0.9777,-1.0035,-0.9784,-0.9784,-1.0035,-0.9784,-0.9465,-0.9138,-0.8567,-0.814,-0.7902,-0.7576,-0.7025,-0.6391,-0.6391,-0.6282,-0.6178,-0.6178,-0.6178,-0.6178,-0.6178,-0.6086,-0.6001,-0.6587,-0.6654,-0.6514,-0.6699,-0.6766,-0.6766,-0.6766,-0.6495,-0.6287,-0.6712,-0.65,-0.6178,-0.6178,-0.6178,-0.6178,-0.6178,-0.6178,-0.6178,-0.6178,-0.6178,-0.6178,-0.6178,-0.6178,-0.6173,-0.6059,-0.6059,-0.6009,-0.59,-0.5786,-0.5727,-0.5622,-0.5232,-0.4927,-0.4808,-0.4532,-0.43,-0.4196,-0.4192,-0.406,-0.3836,-0.3883,-0.3638,0.0,0.0,0.0,0.0,0.0,0.0,0.0,0.0,0.0,0.0,0.0,0.0,0.0,0.0,0.0,0.0,0.0,0.0,0.0,0.0,0.0,0.0,0.0,0.0,0.0,-1.0997,-1.1248,-1.0832,-1.0736,-1.0373,-0.9682,-0.986,-0.9755,-0.9032,-0.9335,-0.947,-0.9347,-0.9561,-0.9841,-1.0108,-1.032,-1.032,-1.019,-0.9925,-0.971,-0.9614,-0.9309,-0.9361,-0.9562,-0.9309,-0.9361,-0.9562,-0.9309,-0.8935,-0.8508,-0.7931,-0.7563,-0.7348,-0.7025,-0.6652,-0.6178,-0.6178,-0.6178,-0.6178,-0.6178,-0.6178,-0.6178,-0.6173,-0.6021,-0.6039,-0.6553,-0.6653,-0.656,-0.672,-0.682,-0.682,-0.682,-0.65,-0.6287,-0.6712,-0.6495,-0.6178,-0.6178,-0.6178,-0.6178,-0.6178,-0.6178,-0.6178,-0.6178,-0.6178,-0.6178,-0.6178,-0.6173,-0.6119,-0.6,-0.595,-0.5896,-0.5736,-0.5677,-0.5567,-0.5513,-0.5019,-0.4758,-0.4901,-0.4482,-0.4284,-0.4283,-0.4225,-0.4055,-0.3826,-0.3834,-0.3687,-0.3347,0.0,0.0,0.0,0.0,0.0,0.0,0.0,0.0,0.0,0.0,0.0,0.0,0.0,0.0,0.0,0.0,0.0,0.0,0.0,0.0,0.0,0.0,0.0,-1.0682,-1.1118,-1.1246,-1.0901,-1.0809,-1.0467,-0.9668,-0.9708,-0.9573,-0.9012,-0.9019,-0.8947,-0.8791,-0.9309,-0.9562,-0.9562,-1.0064,-1.0167,-0.9762,-0.9762,-0.9562,-0.9159,-0.9159,-0.9159,-0.9159,-0.9159,-0.9159,-0.9159,-0.9159,-0.8725,-0.8025,-0.7771,-0.7295,-0.6652,-0.6337,-0.6178,-0.6178,-0.6178,-0.6178,-0.6178,-0.6178,-0.6178,-0.6173,-0.6059,-0.6,-0.6,-0.6,-0.6,-0.6005,-0.6173,-0.6178,-0.6178,-0.6178,-0.6178,-0.6178,-0.6178,-0.6178,-0.6178,-0.6178,-0.6178,-0.6178,-0.6178,-0.6178,-0.6178,-0.6178,-0.6178,-0.6178,-0.6178,-0.6059,0.0,-0.6,-0.59,-0.5736,-0.5622,-0.5567,-0.5513,-0.5297,-0.4846,-0.4667,-0.5092,-0.4539,-0.4312,-0.4576,-0.4451,-0.4268,-0.4001,-0.3753,-0.3656,-0.3799,0.0,0.0,0.0,0.0,0.0,0.0,0.0,0.0,0.0,0.0,0.0,0.0,0.0,0.0,0.0,0.0,0.0,0.0,0.0,0.0,0.0,-1.0431,-1.1056,-1.1573,-1.1601,-1.1582,-1.171,-1.1022,-1.0334,-0.9938,-0.9471,-0.9141,-0.8871,-0.884,-0.8822,-0.8804,-0.8962,-0.9008,-0.9008,-0.9159,-0.9211,-0.9211,-0.8942,-0.8784,-0.8784,-0.8421,-0.8427,-0.8732,-0.8427,-0.8421,-0.8732,-0.8209,-0.7723,-0.7348,-0.7079,-0.6707,-0.6337,-0.6232,-0.6178,-0.6178,-0.6178,-0.6178,-0.6178,-0.6178,-0.6119,-0.6059,-0.6,-0.595,-0.5845,-0.5845,-0.5845,-0.5845,-0.5905,-0.5905,-0.5905,-0.5905,-0.5905,-0.5905,-0.5905,-0.5905,-0.5905,-0.5905,-0.5905,-0.5905,-0.5905,-0.5905,-0.5959,-0.6059,-0.5955,-0.5905,-0.5905,-0.59,-0.5845,-0.5732,-0.5677,-0.5572,-0.5407,-0.5407,-0.5352,-0.5301,-0.5069,-0.4918,-0.4976,-0.4584,-0.4338,-0.4321,-0.4168,-0.4141,-0.4121,-0.3866,-0.3805,0.0,0.0,0.0,0.0,0.0,0.0,0.0,0.0,0.0,0.0,0.0,0.0,0.0,0.0,0.0,0.0,0.0,0.0,0.0,0.0,0.0,0.0,-1.0629,-1.111,-1.1909,-1.1911,-1.1843,-1.1808,-1.1145,-1.0468,-1.0047,-0.9386,-0.892,-0.8791,-0.8804,-0.8804,-0.8804,-0.8804,-0.8804,-0.8804,-0.8745,-0.8745,-0.8745,-0.848,-0.8321,-0.8315,-0.8055,-0.8055,-0.8315,-0.8008,-0.8055,-0.8262,-0.7729,-0.7354,-0.7085,-0.681,-0.6495,-0.6178,0.0,0.0,0.0,0.0,-0.6173,-0.6119,-0.6119,-0.6009,-0.5896,-0.5841,-0.5786,-0.5736,-0.5736,-0.5736,-0.5736,-0.5795,-0.5795,-0.5795,-0.5795,-0.5795,-0.5795,-0.5795,-0.5795,-0.5795,-0.5795,-0.5795,-0.5795,-0.5795,-0.5736,0.0,-0.5841,-0.5791,-0.5795,-0.5795,-0.5736,-0.5681,-0.5622,-0.5513,-0.5407,-0.5301,-0.5297,-0.5297,-0.5242,-0.4923,0.0,0.0,0.0,-0.4238,-0.4317,-0.3929,0.0,0.0,0.0,0.0,0.0,-0.4033,0.0,0.0,-0.3972,-0.3944,0.0,0.0,0.0,0.0,0.0,0.0,0.0,0.0,0.0,0.0,0.0,0.0,0.0,0.0,0.0,0.0,-1.0708,-1.085,-1.188,-1.2088,-1.1958,-1.1535,-1.1135,-1.0661,-1.0064,-0.9413,-0.8962,-0.8804,-0.8804,-0.8804,-0.8804,-0.8804,0.0,0.0,0.0,-0.8521,-0.8421,-0.8275,-0.8115,-0.7901,-0.7901,-0.7901,-0.7901,-0.7901,-0.7901,-0.7901,-0.7574,-0.7306,-0.7085,-0.6761,-0.6495,-0.6178,-0.6178,-0.6178,-0.6178,-0.6178,-0.6119,-0.6,-0.6005,0.0,0.0,-0.5622,-0.5567,-0.5567,-0.5567,-0.5567,-0.5567,-0.5681,-0.574,-0.574,-0.574,-0.574,-0.574,-0.574,-0.574,-0.574,-0.574,-0.574,-0.574,-0.574,-0.5626,-0.5567,-0.5567,-0.5681,-0.574,-0.574,-0.5626,-0.5567,-0.5567,-0.5407,-0.5297,-0.5297,-0.5297,0.0,-0.5124,-0.4622,-0.4398,-0.4736,-0.4239,-0.4069,-0.4351,-0.3834,-0.3741,-0.422,-0.422,-0.4334,-0.4519,-0.4519,-0.4519,-0.4508,-0.4053,-0.4012,0.0,0.0,0.0,0.0,0.0,0.0,0.0,0.0,0.0,0.0,0.0,0.0,0.0,0.0,0.0,-1.0822,-1.1075,-1.142,-1.2001,-1.179,-1.1638,-1.192,-1.099,-1.0261,-1.0012,-0.9413,-0.8962,-0.8804,-0.8804,-0.8804,-0.8804,-0.8804,-0.8804,-0.8804,-0.8685,-0.8521,-0.8421,-0.8275,-0.8115,-0.7901,-0.7901,0.0,-0.7901,-0.7901,-0.7901,-0.7848,-0.7413,-0.7139,-0.7085,-0.6495,-0.6282,-0.6178,-0.6178,-0.6178,-0.6178,-0.6059,-0.6005,-0.6005,-0.59,-0.5736,-0.5622,-0.5622,-0.5517,-0.5352,-0.5352,-0.5352,0.0,-0.5407,-0.5407,-0.5407,-0.5407,-0.5407,-0.5407,-0.5407,-0.5407,-0.5407,-0.5407,-0.5407,-0.5407,-0.5407,-0.5352,-0.5352,-0.5352,-0.5352,-0.5407,-0.5407,-0.5352,-0.5352,-0.5352,-0.5297,-0.5297,-0.5297,-0.5183,-0.5128,-0.5124,-0.4901,-0.4567,-0.4073,-0.3793,-0.3684,-0.3617,-0.4034,-0.431,-0.4423,-0.4423,-0.4433,-0.4519,-0.4519,-0.4519,-0.4515,-0.4426,-0.4419,0.0,0.0,0.0,0.0,0.0,0.0,0.0,0.0,0.0,0.0,0.0,-1.0571,-1.0393,0.0,-1.1003,-1.1089,-1.141,-1.1664,-1.1761,-1.1444,-1.1456,-1.2049,-1.1049,-1.0226,-1.0115,-0.951,-0.9061,-0.8903,-0.8857,-0.8804,-0.8804,-0.8804,-0.8804,-0.8804,-0.8685,-0.8521,-0.8421,-0.8275,-0.8115,-0.7901,-0.7901,-0.7901,-0.7901,-0.7901,-0.7848,-0.7681,-0.7246,-0.7031,-0.6869,-0.6391,-0.6178,-0.6178,-0.6178,-0.6173,-0.6114,-0.6005,-0.5891,-0.5782,-0.5736,-0.5572,-0.5462,-0.5462,-0.5407,-0.5297,-0.5297,-0.5297,-0.5297,-0.5297,-0.5297,-0.5297,-0.5297,-0.5297,-0.5297,-0.5297,-0.5297,-0.5297,-0.5297,-0.5297,-0.5297,-0.5297,-0.5297,-0.5297,-0.5297,-0.5297,-0.5297,-0.5297,-0.5297,-0.5297,-0.5187,-0.5183,-0.5183,-0.5124,-0.5014,-0.4959,-0.4908,-0.4794,-0.457,-0.4184,-0.3793,-0.371,-0.3923,-0.4036,-0.4184,-0.4519,-0.4519,-0.4519,-0.4519,-0.4408,-0.4408,-0.4519,-0.4408,-0.4408,0.0,0.0,0.0,0.0,0.0,0.0,0.0,-0.9944,-1.0433,-1.0255,-1.048,-1.0704,-1.0643,-1.0695,-1.0817,-1.1207,-1.149,-1.1593,-1.1381,-1.1129,-1.1167,-1.1719,-1.0854,-1.0131,-1.002,-0.951,-0.9106,-0.9008,-0.8857,-0.8804,-0.8804,-0.8804,-0.8804,-0.8804,-0.8685,-0.8521,-0.8421,-0.8275,-0.8115,-0.7901,-0.7901,-0.7901,-0.7901,-0.7848,-0.7681,-0.7461,-0.7139,-0.6869,-0.6598,-0.6337,-0.6178,-0.6178,-0.6173,-0.6064,-0.595,-0.595,-0.5786,-0.5622,-0.5567,-0.5458,-0.5297,-0.5297,-0.5297,-0.5297,-0.5297,-0.5297,-0.5297,-0.5297,-0.5297,-0.5297,-0.5297,-0.5297,-0.5297,-0.5297,-0.5297,-0.5297,-0.5297,-0.5297,-0.5297,-0.5297,-0.5297,-0.5297,-0.5242,-0.5242,-0.5242,-0.5297,-0.5297,-0.5242,-0.5128,-0.5124,-0.5069,-0.4901,-0.4901,-0.4794,-0.4688,-0.4463,-0.4349,-0.4349,-0.3849,-0.3793,-0.4294,-0.3959,-0.4018,-0.4519,-0.4463,-0.4463,-0.4463,-0.4245,-0.4245,-0.4408,-0.4245,-0.4301,-0.8623,-0.869,-0.8688,-0.868,-0.8736,-0.8895,0.0,-0.9427,-0.9708,-1.0246,-1.0407,-1.0432,-1.0432,-1.0432,-1.0488,-1.0647,-1.0738,-1.0845,-1.1197,-1.0779,-1.0506,-1.06,-0.9932,-0.9465,-0.9309,-0.9159,-0.9008,-0.9008,-0.8857,-0.8804,-0.8804,-0.8804,-0.8804,-0.8804,-0.8685,-0.8521,-0.8421,-0.8275,-0.8115,-0.7901,-0.7901,-0.7901,-0.7901,-0.7628,-0.7521,-0.7467,-0.6972,-0.6544,-0.6228,-0.6228,-0.6178,-0.6178,-0.6059,-0.5955,-0.585,-0.585,-0.5736,-0.5567,-0.5407,-0.5297,-0.5297,-0.5297,-0.5297,-0.5297,-0.5297,-0.5297,-0.5297,-0.5297,-0.5297,-0.5297,-0.5297,-0.5297,-0.5297,-0.5297,-0.5297,-0.5297,-0.5297,-0.5297,-0.5297,-0.5297,-0.5297,-0.5242,-0.5128,-0.5128,-0.5183,-0.5297,-0.5297,-0.5242,-0.5128,-0.5124,-0.5069,-0.4901,-0.4794,-0.4688,-0.4519,-0.4015,-0.3683,-0.3683,-0.3627,-0.3627,-0.3683,-0.4128,-0.4408,-0.4519,-0.4301,-0.4249,-0.4249,-0.4079,-0.4024,-0.4076,-0.4024,-0.4187,-0.844,-0.861,-0.8683,-0.8926,-0.9005,-0.9115,-0.9495,-0.9743,-0.9923,-0.9928,-0.9953,-0.9908,-0.99,-1.0086,-1.0297,-1.0539,-1.0808,-1.0922,-1.0728,-1.0549,-1.0249,-0.988,-0.9569,-0.9361,-0.9309,-0.9211,-0.9061,-0.9008,-0.8857,-0.8804,-0.8804,-0.8804,-0.8804,-0.8804,-0.8685,-0.8521,-0.8421,-0.8275,-0.8115,-0.7901,-0.7901,-0.7901,-0.7901,-0.7794,-0.7574,-0.7246,-0.6657,-0.6337,-0.6178,-0.6178,-0.6178,-0.6178,-0.6059,-0.5896,-0.5795,-0.5736,-0.5567,-0.5407,-0.5352,-0.5297,-0.5297,-0.5297,-0.5297,-0.5297,-0.5297,-0.5297,-0.5297,-0.5297,-0.5297,-0.5297,-0.5297,-0.5297,-0.5297,-0.5297,-0.5297,-0.5297,-0.5297,-0.5297,-0.5297,-0.5183,-0.5183,-0.5128,-0.5011,-0.4956,-0.5011,-0.5069,-0.5069,-0.5014,-0.4908,-0.4853,-0.4798,-0.468,-0.4629,-0.4574,-0.4519,-0.4294,-0.4125,-0.4125,-0.4125,-0.4073,-0.3965,-0.419,-0.4301,-0.4187,-0.4135,-0.4079,-0.4079,-0.3965,-0.391,-0.4021,-0.391,-0.4021,-0.8334,-0.848,-0.8561,-0.8895,-0.8931,-0.8944,-0.9241,-0.9494,-0.9558,-0.9305,-0.9311,-0.9366,-0.9456,-0.9722,-1.0049,-1.04,-1.0615,-1.0643,-1.03,-1.019,-0.9984,-0.9517,-0.9465,-0.9465,-0.9413,-0.9263,-0.9106,-0.9061,-0.891,-0.8804,-0.8804,-0.8804,-0.8804,-0.8804,-0.8692,-0.858,-0.8421,-0.8321,-0.8115,-0.7901,-0.7901,-0.7901,-0.7901,-0.7741,-0.7359,-0.6815,-0.6391,-0.6178,-0.6178,-0.6178,-0.6178,-0.6119,-0.6005,-0.5845,-0.5736,-0.5567,-0.5407,-0.5297,-0.5297,-0.5297,-0.5297,-0.5297,-0.5297,-0.5297,-0.5297,-0.5297,-0.5297,-0.5297,-0.5297,-0.5297,-0.5242,-0.5242,-0.5242,-0.5183,-0.5183,-0.5183,-0.5183,-0.5183,-0.5183,-0.5069,-0.5069,-0.5014,-0.4846,-0.4846,-0.4846,-0.4791,-0.4791,-0.4794,-0.4688,-0.4688,-0.4632,-0.4519,-0.4519,-0.4519,-0.4519,-0.4519,-0.4519,-0.4519,-0.4463,-0.4356,-0.4193,-0.4138,-0.4079,-0.4024,-0.3965,-0.3965,-0.3965,-0.3799,-0.3799,-0.3913,-0.3799,-0.3799,-0.8716,-0.8594,-0.848,-0.8455,-0.825,-0.8036,-0.8036,-0.801,-0.8074,-0.8355,-0.8587,-0.886,-0.9324,-0.9539,-0.9695,-0.9976,-0.9821,-0.9673,-0.9792,-0.9732,-0.9614,-0.9614,-0.9614,-0.9562,-0.9413,-0.9159,-0.9061,-0.9159,-0.8962,-0.8804,-0.8804,-0.8804,-0.8804,-0.8804,-0.8804,-0.8646,-0.8421,-0.8368,-0.8215,-0.7901,-0.7901,-0.7901,-0.7901,-0.7354,-0.682,-0.6232,-0.6232,-0.6178,-0.6178,-0.6178,-0.6119,-0.6005,-0.5845,-0.5736,-0.5567,-0.5407,-0.5301,-0.5297,-0.5297,-0.5297,-0.5297,-0.5297,-0.5297,-0.5297,-0.5297,-0.5297,-0.5297,-0.5297,-0.5297,-0.5242,-0.5128,-0.5124,-0.5069,-0.4956,-0.4901,-0.4901,-0.4901,-0.4901,-0.4901,-0.4897,-0.4897,-0.4846,-0.4743,-0.4691,-0.4688,-0.4519,-0.4519,-0.4574,-0.4688,-0.4574,-0.4519,-0.4519,-0.4519,-0.4519,-0.4519,-0.4519,-0.4519,-0.4519,-0.4301,-0.4193,-0.4193,-0.4079,-0.4024,-0.4024,-0.3855,-0.3796,-0.3796,-0.3694,-0.3585,-0.3585,-0.3585,-0.3585,-0.9169,-0.9119,-0.8999,-0.8935,-0.8732,-0.848,-0.8357,-0.8283,-0.8198,-0.8131,-0.8202,-0.8415,-0.9011,-0.9152,-0.9369,-0.9923,-0.994,-0.9888,-0.9947,-0.9844,-0.974,-0.974,-0.9673,-0.9562,-0.951,-0.9361,-0.9211,-0.9061,-0.8956,-0.891,-0.8811,-0.8804,-0.8804,-0.8804,-0.8692,-0.8633,-0.8521,-0.8374,-0.8221,-0.8115,-0.7955,-0.7794,-0.7628,-0.7246,-0.6869,-0.6544,-0.6282,-0.6173,-0.6059,-0.6059,-0.6009,-0.5845,-0.5736,-0.5622,-0.5567,-0.5352,-0.5297,-0.5297,-0.5297,-0.5297,-0.5297,-0.5297,-0.5297,-0.5297,-0.5297,-0.5297,-0.5297,-0.5297,-0.5297,-0.5242,-0.5128,-0.5124,-0.5069,-0.4956,-0.4897,-0.4897,-0.4897,-0.4897,-0.4901,-0.4794,-0.4743,-0.4739,-0.4577,-0.4574,-0.4574,-0.4519,-0.4519,-0.4519,-0.4574,-0.4519,-0.4519,-0.4519,-0.4519,-0.4519,-0.4519,-0.4356,-0.4301,-0.4301,-0.4135,-0.4024,-0.3965,-0.391,-0.3799,-0.3749,-0.3694,-0.3694,-0.3694,-0.3638,-0.3585,-0.3585,-0.3585,-0.3585,-0.9983,-0.9864,-0.9677,-0.9536,-0.9257,-0.9007,-0.8805,-0.8692,-0.857,-0.8316,-0.8472,-0.8786,-0.9281,-0.9479,-0.9735,-1.0383,-1.0205,-1.0051,-1.0205,-1.0051,-0.9844,-0.9844,-0.9784,-0.9725,-0.9673,-0.9577,-0.942,-0.9159,-0.9113,-0.9008,-0.8857,-0.8857,-0.8857,-0.8804,-0.8692,-0.8633,-0.8527,-0.8374,-0.8221,-0.8115,-0.7842,-0.7628,-0.7354,-0.7085,-0.6815,-0.6495,-0.6223,-0.6059,-0.6,-0.595,-0.5845,-0.5736,-0.5622,-0.5567,-0.5458,-0.5352,-0.5297,-0.5297,-0.5297,-0.5297,-0.5297,-0.5297,-0.5297,-0.5297,-0.5297,-0.5242,-0.5242,-0.5242,-0.5183,-0.5128,-0.5018,-0.4963,-0.4908,-0.4791,-0.4736,-0.4736,-0.4736,-0.4736,-0.4736,-0.4632,-0.4632,-0.4577,-0.4519,-0.4519,-0.4519,-0.4519,-0.4519,-0.4519,-0.4519,-0.4519,-0.4519,-0.4519,-0.4519,-0.4463,-0.4408,-0.4249,-0.4193,-0.4138,-0.4024,-0.391,-0.3796,-0.3744,-0.3691,-0.3585,-0.3585,-0.3585,-0.3585,-0.3585,-0.3585,-0.3585,-0.3585,-0.3585,-1.1019,-1.0715,-1.0341,-1.0088,-0.9774,-0.9487,-0.9297,-0.9136,-0.9024,-0.8879,-0.9364,-0.9864,-1.0043,-1.0287,-1.0702,-1.1217,-1.0608,-1.0205,-1.0667,-1.0308,-1.0051,-1.0051,-0.9999,-0.9947,-0.9799,-0.9799,-0.9688,-0.9413,-0.9316,-0.9159,-0.9008,-0.9008,-0.8962,-0.8804,-0.8804,-0.8699,-0.8421,-0.8427,-0.8215,-0.7901,-0.7628,-0.7359,-0.7085,-0.681,-0.649,-0.6178,-0.6059,-0.6,-0.5946,-0.5845,-0.5736,-0.5567,-0.5567,-0.5458,-0.5297,-0.5297,-0.5297,-0.5297,-0.5297,-0.5297,-0.5297,-0.5297,-0.5297,-0.5297,-0.5297,-0.5183,-0.5069,-0.5069,-0.5011,-0.4846,-0.4743,-0.4691,-0.4688,-0.4519,-0.4519,-0.4519,-0.4519,-0.4519,-0.4519,-0.4519,-0.4519,-0.4519,-0.4519,-0.4519,-0.4519,-0.4519,-0.4519,-0.4463,-0.4519,-0.4519,-0.4463,-0.4463,-0.4463,-0.4408,-0.4193,-0.4193,-0.4138,-0.4021,-0.3852,-0.3796,-0.3796,-0.3694,-0.3585,-0.3585,-0.3585,-0.3585,-0.3585,-0.3585,-0.3585,-0.3585,-0.3585,-0.3583,-1.0916,-1.0753,-1.0753,-1.038,-1.0118,-0.9922,-0.9813,-0.9695,-0.9618,-0.9668,-0.9752,-0.9977,-1.0539,-1.0654,-1.0787,-1.1225,-1.1124,-1.1023,-1.1124,-1.0769,-1.0514,-1.0514,-1.0205,-0.9999,-0.9947,-0.9851,-0.9799,-0.9688,-0.9472,-0.9263,-0.9008,-0.9008,-0.8962,-0.8804,-0.8804,-0.8752,-0.8699,-0.848,-0.8215,-0.7901,-0.7628,-0.7359,-0.7085,-0.681,-0.649,-0.6059,-0.6005,-0.5896,-0.5677,-0.5677,-0.5572,-0.5352,-0.5352,-0.5352,-0.5297,-0.5297,-0.5297,-0.5297,-0.5183,-0.5242,-0.5297,-0.5183,-0.5128,-0.5128,-0.5014,-0.4956,-0.4956,-0.4956,-0.4901,-0.4846,-0.4743,-0.4691,-0.4688,-0.4519,-0.4519,-0.4519,-0.4519,-0.4519,-0.4519,-0.4519,-0.4519,-0.4519,-0.4519,-0.4519,-0.4519,-0.4519,-0.4356,-0.4356,-0.4463,-0.4356,-0.4301,-0.4301,-0.419,-0.4132,-0.4079,-0.3965,-0.391,-0.3852,-0.3747,-0.3635,-0.3635,-0.3638,-0.3585,-0.3585,-0.3585,-0.3585,-0.3585,-0.3585,-0.3585,-0.3585,-0.3585,-0.3471,-1.1479,-1.1282,-1.1244,-1.0829,-1.0534,-1.0312,-1.0312,-1.0166,-1.0054,-1.0211,-1.0346,-1.0558,-1.0958,-1.1006,-1.1059,-1.1376,-1.1225,-1.1137,-1.1451,-1.1175,-1.0972,-1.0972,-1.0718,-1.0506,-1.0308,-1.0257,-1.0102,-0.9799,-0.9621,-0.9413,-0.9211,-0.9106,-0.9008,-0.891,-0.8857,-0.8752,-0.8639,-0.8549,-0.828,-0.7901,-0.7521,-0.7246,-0.7085,-0.6652,-0.6332,-0.6059,-0.595,-0.5845,-0.5681,-0.5513,-0.5407,-0.5297,-0.5297,-0.5297,-0.5297,-0.5242,-0.5187,-0.5183,-0.5069,-0.5069,-0.5128,-0.5014,-0.5014,-0.5011,-0.4901,-0.4846,-0.4794,-0.4794,-0.4791,-0.468,-0.4629,-0.4632,-0.4577,-0.4519,-0.4519,-0.4519,-0.4519,-0.4519,-0.4519,-0.4519,-0.4519,-0.4519,-0.4519,-0.4408,-0.4356,-0.4356,-0.4245,-0.4135,-0.4242,-0.419,-0.4135,-0.4135,-0.4024,-0.3965,-0.391,-0.3852,-0.3796,-0.3688,-0.3638,-0.3585,-0.3585,-0.3585,-0.3585,-0.3585,-0.3585,-0.3527,-0.3357,-0.3527,-0.3527,-0.3357,-0.3527,-0.3527,-1.2174,-1.1932,-1.1774,-1.1319,-1.0954,-1.0687,-1.0764,-1.0534,-1.04,-1.0584,-1.0913,-1.1145,-1.1259,-1.1325,-1.1451,-1.1686,-1.1268,-1.1103,-1.1683,-1.1519,-1.1368,-1.1368,-1.1326,-1.1175,-1.082,-1.0718,-1.0462,-0.9955,-0.9732,-0.9569,-0.9413,-0.9316,-0.9159,-0.9008,-0.8857,-0.8639,-0.8421,-0.8507,-0.8343,-0.7901,-0.7413,-0.7139,-0.7085,-0.6495,-0.6228,-0.6173,-0.59,-0.5795,-0.5736,-0.5462,-0.5297,-0.5297,-0.5297,-0.5297,-0.5242,-0.5128,-0.5069,-0.5069,-0.4901,-0.4901,-0.4901,-0.4901,-0.4901,-0.4846,-0.4842,-0.4794,-0.4688,-0.4688,-0.4577,-0.4519,-0.4519,-0.4519,-0.4519,-0.4519,-0.4519,-0.4519,-0.4519,-0.4463,-0.4463,-0.4463,-0.4463,-0.4408,-0.4408,-0.4301,-0.4193,-0.4193,-0.4079,-0.3965,-0.3965,-0.3965,-0.3965,-0.3965,-0.3968,-0.391,-0.3796,-0.3796,-0.3744,-0.3585,-0.3585,-0.3585,-0.3585,-0.3585,-0.3583,-0.3527,-0.3527,-0.3357,-0.3074,-0.3357,-0.3357,-0.3074,-0.3357,-0.3471,-1.1788,-1.1847,-1.2138,-1.1468,-1.1244,-1.1169,-1.1132,-1.0878,0.0,-1.082,-1.0801,-1.1027,-1.1746,-1.1798,-1.1865,-1.2261,-1.2171,-1.2043,-1.2166,-1.1877,-1.1619,-1.1619,-1.1418,-1.1267,-1.1226,-1.0922,-1.0667,-1.0565,-1.0051,-0.9629,-0.9413,-0.9361,-0.9263,-0.9008,-0.8738,-0.858,-0.8421,-0.8318,-0.8158,-0.7901,-0.7574,-0.73,-0.7085,-0.6761,-0.6381,-0.6059,-0.6005,-0.5841,-0.5622,-0.5567,-0.5462,-0.5297,-0.5297,-0.5242,-0.5128,-0.5124,-0.5014,-0.4901,-0.4794,-0.4743,-0.4743,-0.4743,-0.4743,-0.4743,-0.4629,-0.4574,-0.4519,-0.4519,-0.4519,-0.4519,-0.4519,-0.4519,-0.4519,-0.4519,-0.4519,-0.4519,-0.4519,-0.4356,-0.4249,-0.4249,-0.419,-0.4076,-0.4076,-0.4076,-0.4024,-0.4024,-0.391,-0.3852,-0.3852,-0.3852,-0.3852,-0.3852,-0.3747,-0.3638,-0.3638,-0.3638,-0.3638,-0.3585,-0.3585,-0.3585,-0.3585,-0.3585,-0.3471,-0.3188,-0.3188,-0.3021,-0.2745,-0.2802,-0.2802,-0.2745,-0.2802,-0.2689,-1.2162,-1.1993,-1.1993,-1.1579,-1.1234,-1.1019,-1.1094,0.0,0.0,-1.0943,-1.0908,-1.0952,-1.1325,-1.1497,-1.1672,-1.1891,-1.2016,-1.2137,-1.2344,-1.2175,-1.2026,-1.2026,-1.1828,-1.1678,-1.1528,-1.1226,-1.0922,-1.0718,-1.0205,-0.9792,-0.9629,-0.9465,-0.9256,-0.9008,-0.8991,-0.8837,-0.8421,-0.846,-0.8304,-0.7901,-0.7467,-0.7246,-0.7085,-0.6652,-0.6332,-0.6119,-0.5955,-0.5845,-0.5681,-0.5517,-0.5407,-0.5297,-0.5242,-0.5183,-0.5069,-0.4963,-0.4849,-0.4794,-0.4629,-0.4577,-0.4577,-0.4577,-0.4577,-0.4574,-0.4519,-0.4519,-0.4519,-0.4519,-0.4519,-0.4519,-0.4519,-0.4519,-0.4519,-0.4519,-0.4519,-0.4519,-0.4519,-0.4356,-0.4193,-0.4193,-0.4079,-0.4024,-0.4024,-0.3965,-0.391,-0.391,-0.3799,-0.3691,-0.3691,-0.3691,-0.3691,-0.3691,-0.3638,-0.3585,-0.3585,-0.3585,-0.3585,-0.3585,-0.3413,-0.3357,-0.3357,-0.319,-0.3079,-0.2912,-0.2912,-0.2745,-0.2465,-0.2635,-0.2635,-0.2465,-0.2635,-0.2635,-1.2508,-1.2138,-1.1884,-1.1653,-1.1244,-1.0905,-1.1094,-1.0943,-1.0789,-1.0905,-1.0853,-1.0801,-1.0889,-1.1139,-1.1397,-1.1566,-1.1794,-1.2063,-1.2472,-1.2431,-1.2323,-1.2323,-1.2234,-1.2076,-1.1877,-1.1578,-1.1276,-1.0871,-1.036,-0.9999,-0.9792,-0.9517,-0.9309,-0.9061,-0.918,-0.9025,-0.8421,-0.8584,-0.8427,-0.7955,-0.7521,-0.7192,-0.7085,-0.6603,-0.6282,-0.6119,-0.5959,-0.5795,-0.5736,-0.5462,-0.5297,-0.5242,-0.5128,-0.5073,-0.4963,-0.4798,-0.4688,-0.4632,-0.4519,-0.4519,-0.4519,-0.4519,-0.4519,-0.4519,-0.4519,-0.4519,-0.4519,-0.4519,-0.4519,-0.4519,-0.4519,-0.4519,-0.4463,-0.4463,-0.4408,-0.4408,-0.4408,-0.4245,-0.4135,-0.4135,-0.4024,-0.3913,-0.3913,-0.3799,-0.3744,-0.3744,-0.3694,-0.3585,-0.3585,-0.3585,-0.3585,-0.3585,-0.3585,-0.3585,-0.3585,-0.3527,-0.3471,-0.3471,-0.3188,-0.3021,-0.3021,-0.28,-0.2691,-0.2577,-0.2577,-0.241,-0.2128,-0.2354,-0.2354,-0.2128,-0.241,-0.2523,-1.2162,-1.2138,-1.2222,-1.1726,-1.1505,-1.1442,-1.1542,0.0,-1.0812,-1.0507,-1.0439,-1.0518,-1.084,-1.103,-1.1367,-1.2041,-1.2059,-1.2148,-1.2618,-1.2578,-1.248,-1.248,-1.248,-1.2431,-1.2274,-1.1977,-1.1678,-1.1276,-1.0624,-1.0102,-0.9666,-0.9465,-0.9309,-0.9159,-0.8983,-0.8771,-0.8573,-0.8347,-0.8246,-0.8168,-0.7955,-0.7574,-0.7085,-0.7031,-0.6652,-0.6005,-0.6005,-0.5837,-0.5622,-0.5567,-0.5403,-0.5128,-0.5124,-0.4963,-0.4743,-0.4691,-0.4632,-0.4519,-0.4519,-0.4519,-0.4519,-0.4519,-0.4519,-0.4519,-0.4519,-0.4519,-0.4519,-0.4519,-0.4519,-0.4519,-0.4519,-0.4519,-0.4463,-0.4249,-0.4249,-0.4193,-0.4079,-0.391,-0.3852,-0.3852,-0.3747,-0.3638,-0.3638,-0.3638,-0.3638,-0.3638,-0.3585,-0.3585,-0.3585,-0.3585,-0.3585,-0.3585,-0.3585,-0.3585,-0.3585,-0.3302,-0.313,-0.313,-0.2912,-0.2747,-0.2747,-0.2691,-0.2577,-0.224,-0.224,-0.213,-0.1853,-0.1853,-0.1853,-0.1853,-0.1853,-0.1909,-1.2685,-1.2437,-1.2246,-1.2018,-1.1726,-1.1479,-1.1394,-1.1105,-1.084,-1.0697,-1.0495,-1.0478,-1.0696,-1.0954,-1.1301,-1.1827,-1.2106,-1.2295,-1.2367,-1.2619,-1.2638,-1.2225,-1.2474,-1.2578,-1.2421,-1.2076,-1.1619,-1.0972,-1.0667,-1.036,-0.9888,-0.9621,-0.9413,-0.9211,-0.9008,-0.8798,-0.8474,-0.8368,-0.8215,-0.8008,-0.7628,-0.73,-0.7085,-0.6712,-0.6386,-0.6119,-0.5955,-0.5791,-0.5681,-0.5517,-0.5352,-0.5183,-0.5069,-0.4904,-0.4791,-0.4629,-0.4519,-0.4519,-0.4519,-0.4519,-0.4519,-0.4519,-0.4519,-0.4519,-0.4519,-0.4519,-0.4519,-0.4519,-0.4519,-0.4519,-0.4519,-0.4408,-0.4301,-0.4135,-0.4079,-0.4079,-0.4024,-0.391,-0.3796,-0.3796,-0.3691,-0.3585,-0.3585,-0.3585,-0.3585,-0.3585,-0.3585,-0.3585,-0.3585,-0.3585,-0.3527,-0.3302,-0.3471,-0.3585,-0.3585,-0.3299,-0.3074,-0.3074,-0.2687,-0.2408,-0.2408,-0.2244,-0.2076,-0.1964,-0.1964,-0.1908,-0.1797,-0.1797,-0.1797,-0.1797,-0.1797,-0.1797,-1.2887,-1.2508,-1.221,-1.2174,-1.1923,-1.1616,-1.1437,-1.1248,-1.1043,-1.0843,-1.0659,-1.0544,-1.0582,-1.0854,-1.1215,-1.1701,-1.2059,-1.2302,-1.2466,-1.2781,-1.2812,-1.2394,-1.259,-1.2725,-1.2627,-1.2175,-1.1628,-1.1023,-1.0871,-1.0616,-1.0205,-0.9836,-0.9517,-0.9263,-0.9113,-0.8903,-0.8533,-0.8427,-0.8268,-0.8055,-0.7467,-0.7192,-0.7085,-0.6603,-0.6228,-0.6069,-0.5905,-0.574,-0.5631,-0.5407,-0.5242,-0.5183,-0.4956,-0.4842,-0.4736,-0.457,-0.4519,-0.4519,-0.4519,-0.4519,-0.4519,-0.4519,-0.4519,-0.4519,-0.4519,-0.4463,-0.4408,-0.4353,-0.4353,-0.4353,-0.4353,-0.4245,-0.4079,-0.3965,-0.3965,-0.391,-0.3913,-0.3802,-0.3744,-0.3744,-0.3691,-0.3585,-0.3585,-0.3585,-0.3585,-0.3585,-0.3585,-0.3583,-0.3471,-0.3471,-0.3357,-0.3021,-0.319,-0.336,-0.336,-0.3021,-0.2852,-0.2852,-0.2352,-0.2074,-0.2074,-0.1908,-0.1797,-0.1797,-0.1797,-0.1797,-0.1797,-0.1797,-0.1797,-0.1797,-0.1797,-0.1797,-1.2422,-1.221,-1.2174,-1.2113,-1.2068,-1.1979,-1.1812,-1.1696,-1.1437,-1.0915,-1.0784,-1.0746,-1.0621,-1.0708,-1.1042,-1.1802,-1.19,-1.2212,-1.3087,-1.3152,-1.3113,-1.317,-1.3007,-1.2881,-1.2881,-1.2274,-1.1828,-1.1728,-1.1226,-1.082,-1.0718,-1.011,-0.9688,-0.9413,-0.9263,-0.9061,-0.8804,-0.8533,-0.8421,-0.8368,-0.7788,-0.7359,-0.7085,-0.681,-0.6381,-0.5795,-0.5795,-0.5631,-0.5301,-0.5297,-0.5128,-0.4897,-0.4897,-0.4736,-0.4519,-0.4519,-0.4519,-0.4519,-0.4519,-0.4519,-0.4519,-0.4519,-0.4519,-0.4519,-0.4519,-0.4356,-0.4193,-0.4024,-0.4024,-0.4024,-0.4024,-0.4024,-0.3965,-0.3852,-0.3796,-0.3744,-0.3638,-0.3585,-0.3585,-0.3585,-0.3585,-0.3585,-0.3585,-0.3585,-0.3585,-0.3585,-0.3585,-0.3471,-0.3132,-0.313,-0.3021,-0.2747,-0.2691,-0.2691,-0.2691,-0.2408,-0.2184,-0.2184,-0.1964,-0.1797,-0.1797,-0.1797,-0.1797,-0.1797,-0.1797,-0.1797,-0.1797,-0.1797,-0.1797,-0.1797,-0.1797,-0.1797,-1.2686,-1.2404,-1.2102,-1.1993,-1.2106,-1.2068,-1.1577,-1.1542,-1.1447,-1.0974,-1.0833,-1.0784,-1.0794,-1.0833,-1.1131,-1.1887,-1.203,-1.2199,-1.2741,-1.3094,-1.3175,-1.2816,-1.2924,-1.2978,-1.2783,-1.248,-1.2175,-1.1877,-1.1427,-1.1074,-1.0871,-1.0411,-0.9947,-0.9562,-0.9211,-0.8956,-0.8804,-0.8633,-0.8421,-0.8268,-0.7836,-0.7456,-0.7085,-0.681,-0.649,-0.6069,-0.5905,-0.574,-0.5631,-0.5293,-0.5128,-0.5014,-0.4849,-0.4688,-0.4632,-0.4519,-0.4519,-0.4519,-0.4519,-0.4519,-0.4519,-0.4519,-0.4519,-0.4463,-0.4242,-0.419,-0.4193,-0.4024,-0.4079,-0.4079,-0.391,-0.3852,-0.3855,-0.3691,-0.3635,-0.3635,-0.3585,-0.3585,-0.3585,-0.3585,-0.3585,-0.3585,-0.3585,-0.3585,-0.3585,-0.3585,-0.3413,-0.3244,-0.313,-0.2965,-0.2689,-0.2408,-0.2352,-0.2465,-0.2691,-0.2408,-0.2184,-0.2184,-0.1964,-0.1797,-0.1797,-0.1797,-0.1797,-0.1797,-0.1797,-0.1797,-0.1797,-0.1797,-0.1797,-0.1797,-0.1685,-0.1685,0.0,-1.2355,-1.1968,-1.1884,-1.2019,-1.2019,-1.1427,-1.1464,-1.1487,-1.1012,-1.0881,-1.0833,-1.0881,-1.1064,-1.1406,-1.2056,-1.2313,-1.2535,-1.294,-1.3236,-1.327,-1.2819,-1.2982,-1.3017,-1.2725,-1.2578,-1.2382,-1.2076,-1.1678,-1.1318,-1.1074,-1.0675,-1.0257,-0.9777,-0.9368,-0.9061,-0.8857,-0.8685,-0.8474,-0.8268,-0.7777,-0.7402,-0.7085,-0.6707,-0.6332,-0.6014,-0.585,-0.574,0.0,-0.5238,-0.5069,-0.5014,-0.4798,-0.4688,-0.4632,-0.4519,-0.4519,-0.4463,-0.4408,-0.4411,-0.4356,-0.4353,-0.4298,-0.4242,-0.4021,-0.3968,-0.3971,-0.386,-0.3916,-0.3916,-0.3747,-0.3744,-0.3691,-0.3638,-0.3585,-0.3585,-0.3585,-0.3585,-0.3583,-0.3413,-0.3413,-0.336,-0.3304,-0.3249,-0.3249,-0.3249,-0.3079,-0.291,-0.2796,-0.2631,-0.241,-0.2074,-0.2074,-0.213,-0.2355,-0.2186,-0.2074,-0.2074,-0.1908,-0.1797,-0.1797,-0.1797,-0.1797,-0.1797,-0.1797,-0.1797,-0.1797,-0.1797,-0.1797,-0.1797,-0.1685,-0.1629,0.0,-1.2138,-1.1847,-1.1811,-1.1916,-1.1901,-1.1427,-1.1464,0.0,-1.1012,-1.0891,-1.0891,-1.0922,-1.1302,-1.1778,-1.2276,-1.2658,-1.3037,-1.3548,-1.3515,-1.3334,-1.3123,-1.319,-1.3084,-1.2774,-1.2627,-1.248,-1.2323,-1.1927,-1.1628,-1.1326,-1.0922,-1.0514,-1.0051,-0.9629,-0.9316,-0.9008,-0.8738,-0.8521,-0.8368,-0.7717,-0.7295,-0.7085,-0.65,-0.6064,-0.5795,-0.5795,-0.5631,-0.5297,-0.5128,-0.5014,-0.4901,-0.4739,-0.4632,-0.4519,-0.4519,-0.4519,-0.4463,-0.4249,-0.4193,-0.4193,-0.4024,-0.3965,-0.3965,-0.3852,-0.3744,-0.3638,-0.3585,-0.3585,-0.3638,-0.3585,-0.3585,-0.3585,-0.3585,-0.3583,-0.3583,-0.3583,-0.3527,-0.3471,-0.3132,-0.3077,-0.2965,-0.2747,-0.2691,-0.2691,-0.2691,-0.2691,-0.2577,-0.224,-0.2183,-0.2074,-0.1853,-0.1797,-0.1797,-0.1797,-0.1797,-0.1797,-0.1797,-0.1797,-0.1797,-0.1797,-0.1797,-0.1797,-0.1741,-0.1741,-0.1741,-0.1741,-0.1741,-0.1741,-0.1797,-0.1629,-0.1572,-1.2579,0.0,-1.2222,-1.2138,-1.217,-1.2107,0.0,-1.1542,-1.1487,-1.1012,0.0,-1.1033,-1.1354,-1.1539,-1.183,-1.2637,-1.2855,-1.3037,-1.3548,-1.3563,-1.3515,-1.3334,-1.3324,-1.3286,-1.3027,-1.2881,-1.2725,-1.2627,-1.2126,-1.1728,-1.1477,-1.1074,-1.0667,-1.0265,-0.9895,-0.9532,-0.9159,-0.8903,-0.8639,-0.8421,-0.8109,-0.7676,-0.7085,-0.682,-0.644,-0.595,-0.5732,-0.5622,-0.5513,-0.512,-0.4956,-0.4901,-0.4625,-0.4519,-0.4519,-0.4519,-0.4519,-0.4463,-0.4249,-0.4193,-0.4193,-0.4024,-0.391,-0.3852,-0.3796,-0.3855,-0.3858,-0.3638,-0.3691,-0.3744,-0.3638,-0.3585,-0.3585,-0.3585,-0.3413,-0.3244,-0.3244,-0.3079,-0.2914,-0.2802,-0.28,-0.28,-0.2691,-0.2691,-0.2691,-0.2691,-0.2465,-0.2296,-0.2184,-0.2018,-0.1852,-0.1797,-0.1797,-0.1741,-0.1629,-0.1741,-0.1797,-0.1797,-0.1797,-0.1741,-0.1629,-0.1629,-0.1572,-0.1403,-0.1403,-0.1403,-0.1403,-0.1291,-0.1403,-0.1629,-0.1459,-0.1515,-1.2873,-1.2747,-1.2607,-1.2533,-1.2541,-1.2435,-1.1976,0.0,0.0,0.0,0.0,0.0,0.0,-1.1788,-1.2162,-1.2768,-1.3103,-1.3331,-1.3579,-1.3621,-1.3563,-1.342,-1.342,-1.3334,-1.3123,-1.2978,-1.2832,-1.2725,-1.2372,-1.2026,-1.1728,-1.1477,-1.1175,-1.0667,-1.0316,-0.9895,-0.9361,-0.9061,-0.8745,-0.8474,-0.8209,-0.7729,-0.7085,-0.6869,-0.6495,-0.59,-0.5732,-0.5567,-0.5344,-0.5011,-0.4846,-0.4794,-0.4574,-0.4519,-0.4519,-0.4519,-0.4463,-0.4356,-0.419,-0.4027,-0.3916,-0.386,-0.3747,-0.3691,-0.3691,-0.3747,-0.3802,-0.3638,-0.3635,-0.3691,-0.3638,-0.3585,-0.3585,-0.3585,-0.3471,-0.3299,-0.313,-0.2965,-0.28,-0.2521,-0.2465,-0.241,-0.23,-0.23,-0.23,-0.23,-0.2132,-0.2018,-0.2018,-0.1908,-0.1797,-0.1797,-0.1741,-0.1685,-0.1628,-0.1572,-0.1572,-0.1572,-0.1572,-0.1515,-0.1459,-0.1459,-0.1403,-0.1291,-0.1291,-0.1291,-0.1291,-0.1234,-0.129,-0.1459,-0.129,-0.1291,-1.3298,-1.3277,-1.3173,-1.2983,-1.3015,-1.2993,-1.2485,0.0,0.0,0.0,0.0,0.0,0.0,-1.2099,0.0,-1.2958,-1.3362,-1.3621,-1.3621,-1.3621,-1.3563,-1.342,-1.3409,-1.3382,-1.3172,-1.3027,-1.292,-1.2774,-1.2627,-1.2382,-1.1977,-1.1864,-1.1589,-1.104,-1.0637,-1.0179,-0.9644,-0.9183,-0.8844,-0.8573,-0.8143,-0.767,-0.7085,-0.6827,-0.6352,-0.5845,-0.5764,-0.5492,-0.5183,-0.4956,-0.4846,-0.4688,-0.4574,-0.4519,-0.4519,-0.4519,-0.4411,-0.4249,-0.4079,-0.3802,-0.3585,-0.3585,-0.3585,-0.3585,-0.3585,-0.3585,-0.3583,-0.3527,-0.3583,-0.3583,-0.3527,-0.3527,-0.3527,-0.3471,-0.3416,-0.3304,-0.3021,-0.2907,-0.2742,-0.224,-0.2128,-0.2074,-0.1853,-0.1797,-0.1797,-0.1797,-0.1797,-0.1797,-0.1797,-0.1797,-0.1797,-0.1797,-0.1685,-0.1628,-0.1572,-0.1403,-0.129,-0.1234,-0.129,-0.129,-0.129,-0.1234,-0.1234,-0.1234,-0.1234,-0.1234,-0.1234,-0.1234,-0.1234,-0.129,-0.1178,-0.1122,-1.3797,-1.4287,-1.4361,-1.3406,-1.3605,-1.384,-1.2865,0.0,0.0,0.0,0.0,0.0,0.0,-1.2772,-1.2969,-1.3434,-1.3569,-1.3621,-1.3621,-1.3621,-1.361,-1.3563,-1.3573,-1.3515,-1.3372,-1.3334,-1.3276,-1.3122,-1.2958,-1.2676,-1.2274,-1.1716,-1.1199,-1.0757,-1.0376,-1.0017,-0.979,-0.9284,-0.8844,-0.8573,-0.8321,-0.7788,-0.7079,-0.677,-0.6365,-0.5941,-0.5566,-0.5428,-0.5513,-0.5066,-0.4901,-0.4846,-0.4574,-0.4519,-0.4519,-0.4519,-0.4463,-0.4408,-0.4132,-0.3802,-0.3585,-0.3585,-0.3585,-0.3585,-0.3585,-0.3585,-0.3527,-0.3244,-0.3357,-0.3527,-0.3244,-0.3188,-0.3132,-0.2914,-0.2633,-0.2406,-0.235,-0.2186,-0.1964,-0.1852,-0.1852,-0.1853,-0.1797,-0.1797,-0.1797,-0.1797,-0.1797,-0.1797,-0.1797,-0.1797,-0.1797,-0.1797,-0.1797,-0.1629,-0.1347,-0.1291,-0.1178,-0.0954,-0.1178,-0.1234,-0.1122,-0.101,-0.0954,-0.0954,-0.0954,-0.0954,-0.0954,-0.0954,-0.101,-0.1122,-0.1122,-0.1178,-1.3476,-1.4011,-1.4337,-1.3833,-1.4387,-1.4882,-1.4161,-1.3645,0.0,0.0,0.0,0.0,0.0,-1.2882,-1.3026,-1.3538,-1.3621,-1.3621,-1.3621,-1.3621,-1.3621,-1.3621,-1.3621,-1.3573,-1.3409,-1.342,-1.3314,-1.3208,-1.3104,-1.2881,-1.2627,-1.2252,-1.1907,-1.1558,-1.1019,-1.0673,-1.0507,-0.9695,-0.9159,-0.8791,-0.8326,-0.7731,-0.7043,-0.6643,-0.6207,-0.573,-0.5484,-0.5341,-0.523,-0.5011,-0.4791,-0.468,-0.4574,-0.4519,-0.446,-0.4298,-0.4242,-0.4187,-0.3913,-0.3694,-0.3585,-0.3585,-0.3585,-0.3585,-0.3585,-0.3585,-0.3583,-0.3413,-0.3357,-0.3246,-0.2965,-0.291,-0.2856,-0.2747,-0.2577,-0.241,-0.224,-0.2128,-0.1964,-0.1853,-0.1797,-0.1797,-0.1797,-0.1797,-0.1797,-0.1797,-0.1741,-0.1685,-0.1685,-0.1572,-0.1515,-0.1515,-0.1459,-0.1347,-0.1178,-0.1122,-0.101,-0.0898,-0.101,-0.1066,-0.101,-0.0954,-0.0898,-0.0898,-0.0898,-0.0898,-0.0898,-0.0898,-0.0954,-0.101,-0.101,-0.101,-1.343,-1.3841,-1.4232,-1.4285,0.0,-1.5411,-1.4979,-1.4269,0.0,0.0,0.0,0.0,0.0,-1.3152,-1.3209,-1.3737,-1.3668,-1.3621,-1.3621,-1.3621,-1.3621,-1.3621,-1.3621,-1.3563,-1.3467,-1.3467,-1.342,-1.3314,-1.32,-1.3065,-1.292,-1.2677,-1.2425,-1.2192,-1.1594,-1.1197,-1.0948,-1.0151,-0.9517,-0.9054,-0.8468,-0.7846,-0.7166,-0.6712,-0.6283,-0.5768,-0.5566,-0.5337,-0.5066,-0.4952,-0.4736,-0.4519,-0.4519,-0.4519,-0.4463,-0.4187,-0.4079,-0.3968,-0.3749,-0.3638,-0.3585,-0.3585,-0.3527,-0.3471,-0.3471,-0.3416,-0.336,-0.3302,-0.3077,-0.2854,-0.2747,-0.2691,-0.2691,-0.2523,-0.2467,-0.2411,-0.2184,-0.2128,-0.2018,-0.1853,-0.1797,-0.1797,-0.1741,-0.1741,-0.1741,-0.1685,-0.1572,-0.1515,-0.1515,-0.1403,-0.1291,-0.1291,-0.1234,-0.1122,-0.1122,-0.0954,-0.0898,-0.0898,-0.0898,-0.0898,-0.0898,-0.0898,-0.0898,-0.0898,-0.0898,-0.0898,-0.0898,-0.0898,-0.0898,-0.0898,-0.0898,-0.0898,-1.4393,-1.454,-1.4624,-1.4803,-1.4916,-1.4849,-1.4349,-1.4205,0.0,-1.4201,0.0,0.0,-1.4166,-1.3773,-1.366,-1.425,-1.3905,-1.3621,-1.3621,-1.3621,-1.3621,-1.3621,-1.3621,-1.3621,-1.3573,-1.3573,-1.3563,-1.3563,-1.3324,-1.3132,-1.3007,-1.2424,-1.2033,-1.1771,-1.1431,-1.105,-1.0578,-1.0295,-0.9836,-0.9159,-0.8883,-0.8343,-0.7635,-0.7172,-0.6832,-0.6558,-0.5834,-0.55,-0.5508,-0.5066,-0.4794,-0.4688,-0.4574,-0.4519,-0.4519,-0.4463,-0.4242,-0.4021,-0.3968,-0.3805,-0.3585,-0.3585,-0.3413,-0.313,-0.313,-0.2965,-0.2689,-0.2408,-0.2294,-0.2352,-0.2635,-0.2691,-0.2579,-0.2021,-0.1853,-0.1853,-0.1853,-0.1853,-0.1797,-0.1797,-0.1797,-0.1741,-0.1629,-0.1628,-0.1572,-0.1347,-0.1347,-0.1347,-0.1347,-0.1291,-0.1291,-0.1291,-0.129,-0.1234,-0.1122,-0.0954,-0.0898,-0.0898,-0.0898,-0.0898,-0.0898,-0.0898,-0.0898,-0.0898,-0.0898,-0.0898,-0.0898,-0.0898,-0.0898,-0.0898,-0.0898,-0.0898,-1.3831,-1.4082,-1.4407,-1.4815,-1.4916,0.0,0.0,-1.4906,-1.5133,-1.4789,-1.4766,-1.4776,-1.4776,-1.4642,-1.4564,-1.4801,-1.4651,-1.4408,-1.414,-1.4093,-1.3952,-1.3621,-1.3621,-1.3621,-1.3621,-1.3621,-1.3621,-1.3621,-1.342,-1.3314,-1.3228,-1.2897,-1.2637,-1.2445,-1.2098,-1.1661,-1.112,-1.0797,-1.0308,-0.9584,-0.8868,-0.8204,-0.7516,-0.6968,-0.6441,-0.5914,-0.5632,-0.539,-0.5175,-0.4956,-0.4791,-0.4574,-0.4356,-0.4245,-0.4187,-0.4073,-0.3962,-0.3855,-0.3802,-0.3694,-0.3583,-0.3357,-0.3188,-0.3077,-0.2912,-0.28,-0.2691,-0.2521,-0.2521,-0.2465,-0.2188,-0.2132,-0.2077,-0.1853,-0.1797,-0.1797,-0.1797,-0.1797,-0.1797,-0.1797,-0.1741,-0.1685,-0.1628,-0.1515,-0.1403,-0.1291,-0.1234,-0.1178,-0.1178,-0.1122,-0.1066,-0.1066,-0.1066,-0.101,-0.0954,-0.0954,-0.0898,-0.0898,-0.0898,-0.0898,-0.0898,-0.0898,-0.0898,-0.0898,-0.0898,-0.0898,-0.0898,-0.0898,-0.0898,-0.0898,-0.0898,-0.0898,-1.3395,-1.3736,-1.4246,-1.4588,0.0,0.0,-1.4916,-1.524,-1.541,-1.5032,-1.5187,-1.5401,-1.5567,-1.5327,-1.518,-1.5299,-1.5062,-1.4789,-1.4477,-1.4233,-1.4046,-1.3716,-1.3621,-1.3621,-1.3668,-1.3621,-1.3621,-1.3621,-1.3467,-1.342,-1.342,-1.321,-1.3027,-1.2929,-1.2627,-1.2224,-1.1778,-1.1368,-1.0761,-1.0043,-0.9293,-0.8528,-0.7807,-0.7182,-0.6539,-0.6006,-0.569,-0.5338,-0.5014,-0.4901,-0.4684,-0.4463,-0.4245,-0.4079,-0.4024,-0.391,-0.3852,-0.3796,-0.3583,-0.3583,-0.3527,-0.3132,-0.2965,-0.291,-0.2633,-0.2465,-0.2411,-0.2411,-0.2411,-0.23,-0.1909,-0.1852,-0.1908,-0.1797,-0.1797,-0.1797,-0.1797,-0.1797,-0.1797,-0.1797,-0.1685,-0.1572,-0.1515,-0.1347,-0.1234,-0.1178,-0.1122,-0.101,-0.101,-0.0954,-0.0898,-0.0898,-0.0898,-0.0898,-0.0898,-0.0898,-0.0898,-0.0898,-0.0898,-0.0898,-0.0898,-0.0898,-0.0898,-0.0898,-0.0898,-0.0898,-0.0898,-0.0898,-0.0898,-0.0898,-0.0898,-0.0898,-1.3418,-1.37,-1.4285,0.0,0.0,0.0,-1.493,-1.5005,-1.4916,-1.4928,-1.5421,-1.6071,-1.6574,-1.5872,-1.5326,-1.5748,-1.504,-1.4419,-1.4373,-1.3952,-1.3668,-1.3773,-1.3668,-1.3668,-1.3773,-1.3668,-1.3621,-1.3621,-1.3467,-1.342,-1.342,-1.321,-1.3075,-1.3007,-1.2822,-1.2578,-1.2274,-1.1927,-1.1318,-1.06,-1.0182,-0.9562,-0.8752,-0.7895,-0.7359,-0.7031,-0.6055,-0.5513,-0.5246,-0.4857,-0.4632,-0.4463,-0.4132,-0.4079,-0.4193,-0.4024,-0.391,-0.3741,-0.3469,-0.3471,-0.3471,-0.2914,-0.2691,-0.2635,-0.2296,-0.2018,-0.1797,-0.1797,-0.1797,-0.1797,-0.1797,-0.2018,-0.2128,-0.1852,-0.1797,-0.1797,-0.1797,-0.1797,-0.1797,-0.1797,-0.1685,-0.1515,-0.1347,-0.1178,-0.1066,-0.0898,-0.0898,-0.0898,-0.0898,-0.0898,-0.0898,-0.0898,-0.0898,-0.0898,-0.0898,-0.0898,-0.0898,-0.0898,-0.0898,-0.0898,-0.0898,-0.0898,-0.0898,-0.0898,-0.0898,-0.0898,-0.0898,-0.0898,-0.0898,-0.0898,-0.0898,-0.0898,-1.3537,-1.4173,0.0,-1.5012,0.0,0.0,0.0,-1.5348,0.0,0.0,-1.6128,-1.6163,-1.6723,-1.604,-1.5557,-1.602,-1.5558,-1.5051,-1.4674,-1.4479,-1.4258,-1.3962,-1.3926,-1.3915,-1.3926,-1.3915,-1.3868,-1.3868,-1.3821,-1.3773,-1.3668,-1.3536,-1.3382,-1.3276,-1.3132,-1.2852,-1.2431,-1.2224,-1.1778,-1.1065,-1.0446,-0.9569,-0.8533,-0.8162,-0.7467,-0.6598,-0.6109,-0.5618,-0.5128,-0.4739,-0.4408,-0.4132,-0.4021,-0.3913,-0.3749,-0.3749,-0.3524,-0.3297,-0.3241,-0.3079,-0.2914,-0.2464,-0.2352,-0.2296,-0.202,-0.1852,-0.1797,-0.1797,-0.1797,-0.1797,-0.1685,-0.174,-0.1796,-0.1797,-0.1797,-0.1797,-0.1685,-0.1685,-0.1628,-0.1459,-0.1347,-0.1234,-0.1178,-0.1066,-0.0954,-0.0898,-0.0898,-0.0898,-0.0898,-0.0898,-0.0898,-0.0898,-0.0898,-0.0898,-0.0898,-0.0898,-0.0898,-0.0898,-0.0898,-0.0898,-0.0898,-0.0898,-0.0898,-0.0898,-0.0898,-0.0898,-0.0898,-0.0898,-0.0898,-0.0898,-0.0898,-0.0898,-1.3816,-1.4446,0.0,-1.5683,-1.5415,-1.4991,-1.4815,0.0,-1.582,-1.6528,-1.6522,-1.6392,-1.6392,-1.6076,-1.5856,-1.5925,-1.5614,-1.5187,-1.4755,-1.4698,-1.4536,-1.414,-1.4186,-1.4233,-1.4104,-1.415,-1.415,-1.415,-1.4057,-1.401,-1.4046,-1.3763,-1.3573,-1.3563,-1.3314,-1.3074,-1.2803,-1.2618,-1.2175,-1.1519,-1.1065,-1.0182,-0.8942,-0.8427,-0.7622,-0.6652,-0.6,-0.5458,-0.5014,-0.4625,-0.4408,-0.4187,-0.3965,-0.3855,-0.3749,-0.3638,-0.3471,-0.3244,-0.3021,-0.2912,-0.2745,-0.2242,-0.2128,-0.2128,-0.1908,-0.1741,-0.1741,-0.1741,-0.1685,-0.1572,-0.1515,-0.1459,-0.1515,-0.1572,-0.1628,-0.1572,-0.1515,-0.1459,-0.1459,-0.1347,-0.1178,-0.1122,-0.1122,-0.101,-0.0898,-0.0898,-0.0898,-0.0898,-0.0898,-0.0898,-0.0898,-0.0898,-0.0898,-0.0898,-0.0898,-0.0898,-0.0898,-0.0898,-0.0898,-0.0842,-0.0729,-0.0842,-0.0898,-0.0898,-0.0898,-0.0898,-0.0898,-0.0898,-0.0898,-0.0898,-0.0785,-0.0729,-1.4223,-1.4621,-1.5118,-1.6178,-1.5324,0.0,-1.4377,-1.4798,-1.5337,-1.609,-1.6524,-1.6574,-1.574,-1.5896,-1.602,-1.5558,-1.5289,-1.5006,-1.4755,-1.4755,-1.4617,-1.4316,-1.4536,-1.4617,-1.4316,-1.4373,-1.4466,-1.4466,-1.4244,-1.4197,-1.4419,-1.3952,-1.3763,-1.3868,-1.3457,-1.3266,-1.3266,-1.3007,-1.2627,-1.1977,-1.1927,-1.12,-0.9865,-0.8784,-0.7836,-0.6918,-0.5786,-0.5128,-0.4846,-0.457,-0.4463,-0.4408,-0.3962,-0.3852,-0.3913,-0.3638,-0.3527,-0.3416,-0.2858,-0.2798,-0.2854,-0.2076,-0.1964,-0.2128,-0.1852,-0.1685,-0.1572,-0.1572,-0.1459,-0.1291,-0.129,-0.129,-0.129,-0.129,-0.129,-0.1291,-0.129,-0.129,-0.129,-0.129,-0.1178,-0.1066,-0.1066,-0.0954,-0.0898,-0.0898,-0.0898,-0.0898,-0.0898,-0.0898,-0.0898,-0.0898,-0.0898,-0.0842,-0.0842,-0.0842,-0.0842,-0.0842,-0.0898,-0.0785,-0.0449,-0.0729,-0.0842,-0.0842,-0.0842,-0.0842,-0.0842,-0.0842,-0.0898,-0.0898,-0.0561,-0.0393,-1.4626,-1.5128,0.0,-1.6579,-1.5852,-1.4865,-1.4539,-1.4608,-1.4917,-1.5543,-1.5474,-1.5356,-1.5541,-1.5294,-1.5142,-1.5468,-1.5289,-1.5062,-1.5006,-1.5006,-1.5006,-1.4926,-1.496,-1.5017,-1.4915,-1.4926,-1.4971,-1.4971,-1.488,-1.4834,-1.4823,-1.4512,-1.4337,-1.428,-1.3905,-1.3621,-1.3515,-1.3276,-1.2987,-1.2764,-1.2274,-1.1551,-1.0559,-0.9488,-0.7913,-0.6046,-0.55,-0.4956,-0.4356,-0.4301,-0.4135,-0.3962,-0.3852,-0.3574,-0.3297,-0.3244,-0.291,-0.2464,-0.2352,-0.2186,-0.2076,-0.1853,-0.1853,-0.1852,-0.1797,-0.1685,-0.1572,-0.1572,-0.1459,-0.129,-0.1178,-0.1122,-0.1122,-0.101,-0.1122,-0.129,-0.1178,-0.1122,-0.1122,-0.101,-0.0954,-0.0954,-0.0954,-0.0898,-0.0898,-0.0898,-0.0898,-0.0898,-0.0898,-0.0898,-0.0898,-0.0898,-0.0673,-0.0505,-0.0505,-0.0505,-0.0505,-0.0505,-0.0729,-0.0842,-0.0785,-0.0617,-0.0505,-0.0505,-0.0505,-0.0505,-0.0505,-0.0505,-0.0617,-0.0898,-0.0842,-0.0561,-1.5527,0.0,0.0,-1.6169,0.0,-1.4979,-1.4204,-1.4115,-1.4332,-1.4646,-1.479,-1.4911,-1.5096,-1.4893,-1.4854,-1.5242,-1.5289,-1.5244,-1.5108,-1.5289,-1.539,-1.521,-1.5345,-1.5379,-1.521,-1.5289,-1.5322,-1.5322,-1.5244,-1.5198,-1.522,-1.4915,-1.4662,-1.4477,-1.4244,-1.3999,-1.3894,-1.3563,-1.3372,-1.3286,-1.2822,-1.19,-1.0543,-0.9065,-0.7765,-0.6588,-0.5664,-0.5062,-0.468,-0.4356,-0.4135,-0.3965,-0.3852,-0.363,-0.3408,-0.3186,-0.2907,-0.2573,-0.2294,-0.2128,-0.1964,-0.1853,-0.1797,-0.1797,-0.1741,-0.1572,-0.1459,-0.1403,-0.1234,-0.1066,-0.101,-0.101,-0.101,-0.0898,-0.101,-0.1066,-0.101,-0.101,-0.101,-0.0898,-0.0898,-0.0898,-0.0898,-0.0898,-0.0898,-0.0898,-0.0898,-0.0898,-0.0898,-0.0898,-0.0842,-0.0673,-0.0505,-0.0336,-0.0224,-0.0224,-0.0224,-0.0224,-0.0617,-0.0898,-0.0898,-0.0449,-0.0224,-0.0224,-0.0224,-0.0224,-0.0224,-0.0224,-0.028,-0.0449,-0.0449,-0.028,-1.6308,0.0,-1.6223,-1.566,-1.5398,0.0,-1.3783,-1.3674,-1.3821,-1.3888,-1.4372,-1.4709,-1.4636,-1.4695,-1.4877,-1.5118,-1.5379,-1.5433,-1.5128,-1.5511,-1.5712,-1.5318,-1.5656,-1.5748,-1.5492,-1.5603,-1.568,-1.568,-1.5525,-1.5525,-1.568,-1.5277,-1.496,-1.48,-1.4605,-1.4466,-1.4362,-1.3988,-1.38,-1.38,-1.3344,-1.2286,-1.0637,-0.8758,-0.767,-0.73,-0.6046,-0.5391,-0.5171,-0.4519,-0.4193,-0.4079,-0.3855,-0.3741,-0.363,-0.3186,-0.3021,-0.2852,-0.2296,-0.2128,-0.2074,-0.1852,-0.1797,-0.1741,-0.1628,-0.1459,-0.1234,-0.1122,-0.101,-0.0898,-0.0898,-0.0898,-0.0898,-0.0898,-0.0953,-0.1009,-0.0898,-0.0898,-0.0898,-0.0898,-0.0898,-0.0898,-0.0898,-0.0898,-0.0898,-0.0898,-0.0898,-0.0898,-0.0898,-0.0898,-0.0785,-0.0505,-0.0505,-0.0393,-0.0168,-0.0112,-0.0056,-0.0056,-0.0505,-0.0729,-0.0729,-0.028,-0.0,-0.0,-0.0,-0.0,-0.0,-0.0,-0.0,-0.0,-0.0,-0.0,-1.5854,0.0,-1.7038,0.0,-1.571,-1.5369,-1.3908,-1.3695,-1.3821,-1.3888,-1.4075,-1.4287,-1.4553,-1.4829,-1.5114,-1.5386,-1.5603,-1.5592,-1.5083,-1.5579,-1.5775,-1.5272,-1.5776,-1.6156,-1.6069,-1.61,-1.61,-1.61,-1.6001,-1.5957,-1.61,-1.5736,-1.5546,-1.5659,-1.5244,-1.5017,-1.4971,-1.472,-1.4617,-1.472,-1.3663,-1.2754,-1.1891,-1.0143,-0.8383,-0.6696,-0.6534,-0.5773,-0.4743,-0.4574,-0.4242,-0.3855,-0.3691,-0.3469,-0.313,-0.2856,-0.2577,-0.2296,-0.1964,-0.1853,-0.1853,-0.1797,-0.1741,-0.1628,-0.1628,-0.1403,-0.1122,-0.1122,-0.101,-0.0898,-0.0898,-0.0898,-0.0898,-0.0898,-0.1288,-0.1512,-0.1009,-0.0898,-0.0898,-0.0898,-0.0898,-0.0898,-0.0898,-0.0898,-0.0898,-0.0898,-0.0898,-0.0898,-0.0898,-0.0898,-0.0898,-0.0842,-0.0842,-0.0842,-0.0785,-0.0505,-0.0336,-0.0336,-0.0224,-0.0112,-0.0112,-0.0056,-0.0,-0.0,-0.0,-0.0,-0.0,-0.0,-0.0,-0.0,-0.0,-0.0,-1.6094,-1.7106,-1.7464,0.0,-1.6211,-1.5558,-1.4602,-1.4098,-1.3874,-1.396,-1.3924,-1.3996,-1.4274,-1.4283,-1.4401,-1.4809,-1.4947,-1.4945,-1.4744,-1.4984,-1.5098,-1.4946,-1.5184,-1.5525,-1.5865,-1.5944,-1.6069,-1.6337,-1.6306,-1.6306,-1.6318,-1.6044,-1.5869,-1.5792,-1.5614,-1.5468,-1.5367,-1.513,-1.4846,-1.449,-1.419,-1.3416,-1.2286,-1.1756,-1.0316,-0.8218,-0.6956,-0.5991,-0.5391,-0.457,-0.3965,-0.3577,-0.3583,-0.3246,-0.2742,-0.2633,-0.2352,-0.1959,-0.1626,-0.1515,-0.1515,-0.1515,-0.1459,-0.1403,-0.1347,-0.1234,-0.1178,-0.14,-0.1233,-0.0953,-0.1344,-0.14,-0.1344,-0.0953,-0.1569,-0.2128,-0.1965,-0.1738,-0.1457,-0.1009,-0.0898,-0.0898,-0.0898,-0.0898,-0.0898,-0.0898,-0.0898,-0.0898,-0.0898,-0.0729,-0.0617,-0.0617,-0.0617,-0.0673,-0.0898,-0.0785,-0.0673,-0.0673,-0.0561,-0.0336,-0.0,-0.0,-0.0,-0.0,-0.0,-0.0,-0.0,-0.0,-0.0,-0.0,-0.0,-0.0,0.0,0.0,-1.7641,-1.7295,-1.6743,-1.6082,-1.5358,-1.4645,-1.4166,-1.4193,-1.4,-1.3838,-1.3935,-1.3814,-1.3851,-1.435,-1.4435,-1.4386,-1.433,-1.4467,-1.4582,-1.4523,-1.4686,-1.5064,-1.5724,-1.5815,-1.6055,-1.657,-1.6439,-1.6308,-1.6278,-1.6026,-1.5782,-1.5599,-1.5599,-1.5617,-1.5608,-1.5608,-1.5254,-1.4628,-1.4801,-1.4215,-1.2986,-1.3006,-1.2003,-1.0084,-0.7994,-0.673,-0.5982,-0.4948,-0.4128,-0.3524,-0.3527,-0.319,-0.2633,-0.2464,-0.2127,-0.179,-0.1402,-0.1291,-0.1291,-0.1291,-0.129,-0.1234,-0.1122,-0.1066,-0.1178,-0.1679,-0.1344,-0.1065,-0.168,-0.1734,-0.1512,-0.1402,-0.1794,-0.2298,-0.2417,-0.2076,-0.1512,-0.0897,-0.0842,-0.0898,-0.0785,-0.0842,-0.0898,-0.0785,-0.0785,-0.0785,-0.0898,-0.0673,-0.0449,-0.0336,-0.028,-0.0393,-0.0673,-0.0729,-0.0785,-0.0785,-0.0842,-0.0673,-0.0224,-0.0056,-0.0,-0.0,-0.0,-0.0,-0.0,-0.0,-0.0,-0.0,-0.0,-0.0,0.0,-1.7392,0.0,-1.7098,-1.727,-1.7295,-1.6032,-1.5229,-1.4761,-1.4831,-1.429,-1.3754,-1.3654,-1.3826,-1.4088,-1.4428,-1.4514,-1.433,-1.3815,-1.4348,-1.46,-1.4087,-1.4701,-1.5389,-1.5911,-1.6002,-1.6232,-1.6837,-1.6239,-1.5866,-1.5932,-1.5372,-1.503,-1.4952,-1.4991,-1.5243,-1.569,-1.6173,-1.6207,-1.57,-1.5478,-1.5107,-1.456,-1.3484,-1.2609,-1.1805,-1.0281,-0.8311,-0.615,-0.5982,-0.5113,-0.391,-0.358,-0.3244,-0.2963,-0.2294,-0.2015,-0.1903,-0.1458,-0.1291,-0.1291,-0.1291,-0.1234,-0.1122,-0.1122,-0.101,-0.1009,-0.1623,-0.1344,-0.1065,-0.1903,-0.1513,-0.1234,-0.2361,-0.2076,-0.1623,-0.1797,-0.1122,-0.0449,-0.0449,-0.0673,-0.0785,-0.0505,-0.0673,-0.0785,-0.0449,-0.0449,-0.0561,-0.0842,-0.0898,-0.0673,-0.0056,-0.0,-0.0,-0.0056,-0.028,-0.0449,-0.0449,-0.0729,-0.0898,-0.0842,-0.028,-0.0,-0.0,-0.0,-0.0,-0.0,-0.0,-0.0,-0.0,-0.0,-0.0,0.0,0.0,0.0,-1.7612,-1.7355,-1.7008,-1.6826,-1.6099,-1.5322,-1.4985,-1.4559,-1.4124,-1.3806,-1.3578,-1.3417,-1.3252,-1.3448,-1.3495,-1.3191,-1.3577,-1.3841,-1.3696,-1.3967,-1.4397,-1.499,-1.509,-1.5323,-1.584,-1.5646,-1.5453,-1.5466,-1.5235,-1.5121,-1.5082,-1.5121,-1.5388,-1.5909,-1.6018,-1.5989,-1.5932,-1.6064,-1.5656,-1.4801,-1.4433,-1.3711,-1.2686,-1.149,-0.9275,-0.6563,-0.5919,-0.4889,-0.3635,-0.3633,-0.313,-0.2406,-0.2352,-0.1961,-0.1401,-0.1234,-0.1122,-0.1066,-0.1066,-0.101,-0.0954,-0.0954,-0.0954,-0.0953,-0.1174,-0.1625,-0.2133,-0.2411,-0.1903,-0.1623,-0.3079,-0.3137,-0.2858,-0.2914,-0.2073,-0.1064,-0.028,-0.0224,-0.0505,-0.101,-0.0673,-0.0336,-0.0393,-0.028,-0.0168,-0.028,-0.0336,-0.0224,-0.0,-0.0,-0.0,-0.0,-0.0112,-0.0168,-0.0168,-0.028,-0.0336,-0.0336,-0.0112,-0.0,-0.0,0.0393,0.0393,-0.0,-0.0,-0.0,-0.0,-0.0,-0.0,-1.5472,0.0,0.0,-1.7956,-1.751,-1.7098,-1.7609,-1.677,-1.5791,-1.5531,-1.498,-1.4458,-1.4175,-1.3655,-1.3126,-1.2685,-1.2733,-1.2815,-1.2697,-1.3035,-1.3344,-1.3399,-1.3615,-1.3984,-1.4585,-1.466,-1.4931,-1.5423,-1.5293,-1.5138,-1.5014,-1.4846,-1.4743,-1.4706,-1.49,-1.5222,-1.584,-1.5887,-1.6052,-1.6349,-1.6436,-1.6107,-1.54,-1.5175,-1.4468,-1.3311,-1.2483,-1.0436,-0.7553,-0.6504,-0.5269,-0.407,-0.3849,-0.3239,-0.2462,-0.2352,-0.1961,-0.1401,-0.1178,-0.1066,-0.101,-0.1233,-0.1233,-0.1234,-0.1401,-0.1401,-0.14,-0.1566,-0.2073,-0.2583,-0.2689,-0.2464,-0.2462,-0.3466,-0.3641,-0.3591,-0.3585,-0.2629,-0.1679,-0.1288,-0.0896,-0.084,-0.1514,-0.1401,-0.1121,-0.0896,-0.0392,-0.0,-0.0,-0.0729,-0.0898,-0.0112,-0.0,-0.0,-0.0,-0.0,-0.0,-0.0,-0.0,-0.0,-0.0,-0.0,0.0112,0.028,0.0673,0.0729,0.028,0.0168,0.0168,0.028,0.0168,0.0112,0.0,0.0,0.0,-1.8023,-1.7734,-1.7597,-1.8398,-1.7241,-1.6116,-1.6504,-1.5557,-1.466,-1.4708,-1.3994,-1.3301,-1.2873,-1.2591,-1.2449,-1.2401,-1.2883,-1.3216,-1.3216,-1.3689,-1.4226,-1.4825,-1.4879,-1.5132,-1.5694,-1.5189,-1.4809,-1.4607,-1.413,-1.3888,-1.3788,-1.4219,-1.479,-1.5461,-1.5919,-1.6462,-1.6976,-1.665,-1.6479,-1.6392,-1.578,-1.4846,-1.3747,-1.3358,-1.1751,-0.9275,-0.7782,-0.6514,-0.5378,-0.4174,-0.3574,-0.3302,-0.2406,-0.2015,-0.1903,-0.1402,-0.1178,-0.129,-0.1903,-0.1962,-0.1909,-0.2354,-0.2352,-0.2352,-0.2963,-0.2685,-0.2294,-0.2627,-0.3137,-0.3596,-0.3588,-0.3585,-0.3585,-0.3585,-0.2685,-0.2183,-0.337,-0.2635,-0.1846,-0.1846,-0.2805,-0.32,-0.2015,-0.084,-0.0112,-0.0056,-0.2135,-0.2701,-0.0336,-0.0056,-0.0,-0.0,-0.0056,-0.0056,-0.0,-0.0,-0.0,-0.0,-0.0,0.028,0.0898,0.0898,0.0898,0.0898,0.0561,0.0561,0.0898,0.0561,0.028,-1.5884,0.0,0.0,0.0,0.0,0.0,-1.749,-1.7092,-1.6578,-1.6414,-1.6037,-1.5577,-1.495,-1.448,-1.4011,-1.3484,-1.3229,-1.3035,-1.2801,-1.3182,-1.3547,-1.3695,-1.3828,-1.4027,-1.4239,-1.4253,-1.4319,-1.4492,-1.4346,-1.4206,-1.4173,-1.3987,-1.3888,-1.3788,-1.3945,-1.425,-1.4833,-1.5397,-1.5945,-1.6436,-1.6671,-1.6705,-1.6436,-1.5856,-1.5355,-1.4937,-1.3737,-1.2812,-1.1948,-0.9621,-0.7446,-0.5487,-0.5344,-0.4463,-0.3302,-0.3198,-0.2581,-0.1852,-0.1684,-0.1178,-0.0729,-0.1458,-0.2133,-0.2643,-0.2637,-0.2577,-0.2691,-0.3309,-0.3368,-0.3254,-0.3304,-0.3471,-0.3588,-0.3585,-0.3585,-0.3585,-0.3585,-0.3132,-0.291,-0.3482,-0.3309,-0.3079,-0.3079,-0.3368,-0.3482,-0.3135,-0.2807,-0.2303,-0.1399,-0.2641,-0.3327,-0.2701,-0.1066,-0.0,-0.0,-0.1572,-0.1853,-0.0112,-0.0,-0.0,-0.0,0.0393,0.0729,0.0898,0.0898,0.0898,0.0898,0.0561,0.0561,0.0898,0.0785,0.0729,-1.618,-1.641,-1.6844,-1.7377,0.0,0.0,-1.7184,-1.692,-1.6607,-1.6759,-1.6459,-1.6073,-1.5906,-1.5461,-1.491,-1.4269,-1.419,-1.3942,-1.3057,-1.3251,-1.3535,-1.3695,-1.3908,-1.4059,-1.4111,-1.4144,-1.4144,-1.4144,-1.4144,-1.4098,-1.4,-1.3927,-1.3888,-1.3788,-1.3788,-1.4049,-1.4585,-1.4938,-1.5501,-1.6296,-1.6404,-1.6477,-1.6577,-1.6088,-1.5736,-1.5468,-1.4549,-1.3784,-1.3072,-1.1247,-0.8378,-0.5152,-0.5575,-0.4265,-0.2325,-0.3186,-0.3028,-0.241,-0.2244,-0.1794,-0.1512,-0.2242,-0.2863,-0.3256,-0.3193,-0.3135,-0.314,-0.3479,-0.3593,-0.3591,-0.3585,-0.3585,-0.3585,-0.3585,-0.3585,-0.3585,-0.3585,-0.3469,-0.3357,-0.3535,-0.3421,-0.3249,-0.3357,-0.3309,-0.32,-0.3251,-0.3429,-0.3149,-0.1959,-0.2695,-0.3151,-0.2701,-0.1289,-0.0392,-0.0393,-0.1909,-0.2473,-0.1569,-0.0448,0.0168,0.0168,0.0505,0.0785,0.0898,0.0898,0.0898,0.0898,0.0729,0.0729,0.0898,0.0898,0.0898,-1.6605,-1.6766,-1.7193,-1.7579,-1.7184,0.0,-1.7204,-1.6723,-1.642,-1.722,-1.665,-1.6254,-1.6968,-1.6528,-1.5825,-1.5098,-1.5278,-1.4985,-1.3382,-1.3293,-1.3454,-1.3581,-1.396,-1.4189,-1.43,-1.43,-1.43,-1.43,-1.43,-1.4222,-1.4032,-1.396,-1.3888,-1.3788,-1.3722,-1.3945,-1.4493,-1.4507,-1.5068,-1.6192,-1.5862,-1.6018,-1.6587,-1.6244,-1.5908,-1.5558,-1.5513,-1.4698,-1.3311,-1.2619,-0.942,-0.5004,-0.4904,-0.3346,-0.1312,-0.2839,-0.3304,-0.3077,-0.2858,-0.2805,-0.2916,-0.3644,-0.3755,-0.3638,-0.3744,-0.3691,-0.3585,-0.3585,-0.3585,-0.3585,-0.3585,-0.3585,-0.3585,-0.3585,-0.3583,-0.3527,-0.3527,-0.3471,-0.3471,-0.3471,-0.3081,-0.28,-0.3021,-0.2856,-0.2691,-0.2747,-0.3144,-0.3086,-0.2071,-0.2521,-0.2523,-0.1514,-0.1175,-0.0951,-0.0841,-0.1458,-0.2359,-0.3429,-0.1232,0.0224,0.0449,0.0449,0.0617,0.0898,0.0898,0.0898,0.0898,0.0898,0.0898,0.0898,0.0898,0.0898,-1.8708,-1.8511,-1.8314,-1.776,-1.7751,0.0,-1.6703,-1.6666,-1.6787,-1.6629,-1.6373,-1.6222,-1.6457,-1.6542,-1.632,-1.5672,-1.5958,-1.582,-1.4382,-1.4052,-1.4019,-1.4278,-1.4163,-1.4111,-1.4287,-1.43,-1.43,-1.43,-1.43,-1.4222,-1.4032,-1.4,-1.3927,-1.3821,-1.3317,-1.3343,-1.3945,-1.3945,-1.4284,-1.4951,-1.5082,-1.5436,-1.598,-1.5662,-1.574,-1.6057,-1.5647,-1.5142,-1.4468,-1.3453,-1.1178,-0.7899,-0.296,-0.2182,-0.3811,-0.4157,-0.3317,-0.2238,-0.3093,-0.3434,-0.3426,-0.3588,-0.3641,-0.3585,-0.3638,-0.3638,-0.3585,-0.3585,-0.3585,-0.3585,-0.3585,-0.3585,-0.3585,-0.3585,-0.3413,-0.3188,-0.3188,-0.2798,-0.2575,-0.2802,-0.2968,-0.2965,-0.28,-0.2747,-0.2745,-0.2965,-0.28,-0.2689,-0.2852,-0.2631,-0.241,-0.2186,-0.1679,-0.1119,-0.0561,-0.1569,-0.2469,-0.2869,-0.2074,-0.0896,0.0729,0.0785,0.0842,0.0898,0.0898,0.0898,0.0898,0.0898,0.0898,0.0898,0.0898,0.0898,-1.9421,-1.9183,-1.8917,-1.8365,-1.844,0.0,0.0,-1.7089,-1.7121,-1.7436,-1.676,-1.6321,-1.7072,-1.6937,-1.6582,-1.607,-1.6431,-1.6369,-1.5322,-1.5254,-1.5249,-1.4979,-1.5113,-1.5203,-1.5196,-1.4924,-1.4612,-1.4314,-1.43,-1.4222,-1.4032,-1.4,-1.3947,-1.3821,-1.352,-1.3474,-1.3695,-1.3788,-1.4028,-1.4482,-1.456,-1.4917,-1.5489,-1.5144,-1.5171,-1.5484,-1.5393,-1.5112,-1.4673,-1.3793,-1.2599,-1.0856,-0.6685,-0.4453,-0.3641,-0.4142,-0.4012,-0.353,-0.3596,-0.3819,-0.3984,-0.3697,-0.3585,-0.3585,-0.3585,-0.3585,-0.3585,-0.3585,-0.3585,-0.3585,-0.3585,-0.3471,-0.3413,-0.3583,-0.3357,-0.3074,-0.3074,-0.2852,-0.2629,-0.2464,-0.2575,-0.2629,-0.2464,-0.2355,-0.23,-0.241,-0.2352,-0.2352,-0.2465,-0.2352,-0.2184,-0.1793,-0.1456,-0.1176,-0.0785,-0.1512,-0.2128,-0.2413,-0.2073,-0.1286,-0.0056,0.0336,0.0673,0.0898,0.0898,0.0898,0.0898,0.0898,0.0898,0.0898,0.0898,0.0898,-1.9911,-1.9577,-1.935,-1.9164,-1.9135,-1.8969,0.0,0.0,0.0,-1.8215,-1.7187,-1.6518,-1.7543,-1.7078,-1.6484,-1.6271,-1.6463,-1.6442,-1.5802,-1.6308,-1.6465,-1.5711,-1.6083,-1.6366,-1.625,-1.4774,-1.3978,-1.4281,-1.346,-1.3266,-1.3973,-1.4,-1.3947,-1.3821,-1.3703,-1.3624,-1.3661,-1.3637,-1.3804,-1.4233,-1.4067,-1.4359,-1.4968,-1.4611,-1.4596,-1.4786,-1.502,-1.4923,-1.4607,-1.4103,-1.3663,-1.312,-1.1023,-0.7252,-0.3028,-0.3573,-0.4072,-0.4519,-0.3805,-0.403,-0.4418,-0.3808,-0.3585,-0.3585,-0.3585,-0.3585,-0.3585,-0.3585,-0.3585,-0.3585,-0.3585,-0.3413,-0.3244,-0.3527,-0.3302,-0.3021,-0.3021,-0.291,-0.2685,-0.224,-0.2128,-0.2128,-0.2128,-0.1964,-0.1797,-0.1852,-0.2018,-0.2074,-0.1908,-0.2018,-0.1905,-0.129,-0.1234,-0.1234,-0.1234,-0.1456,-0.1792,-0.2128,-0.1736,-0.1286,-0.0838,-0.0056,0.0505,0.0898,0.0898,0.0898,0.0898,0.0898,0.0898,0.0898,0.0898,0.0898,-2.116,-2.0489,-1.9823,-1.9794,-1.9578,-1.9249,-1.8715,0.0,-1.8492,-1.7578,0.0,-1.6818,-1.6562,0.0,0.0,-1.6059,-1.571,-1.5381,-1.5357,-1.6547,-1.7137,-1.6459,-1.6378,-1.6458,-1.66,-1.1989,-1.0463,-1.403,-1.0451,-0.9831,-1.3795,-1.4,-1.3947,-1.3821,-1.3265,-1.3239,-1.3775,-1.3194,-1.3188,-1.3684,-1.3424,-1.3586,-1.4112,-1.4087,-1.4312,-1.4734,-1.4796,-1.4841,-1.4766,-1.46,-1.4261,-1.3684,-1.1488,-0.8009,-0.4105,-0.2607,-0.2025,-0.2181,-0.3224,-0.4076,-0.4567,-0.3858,-0.3585,-0.3585,-0.3585,-0.3585,-0.3585,-0.3585,-0.3585,-0.3585,-0.3585,-0.3583,-0.3527,-0.3583,-0.3137,-0.2747,-0.2747,-0.23,-0.1909,-0.1853,-0.1853,-0.1853,-0.1853,-0.1797,-0.1908,-0.2128,-0.1964,-0.1908,-0.2128,-0.1964,-0.1797,-0.1741,-0.1741,-0.1741,-0.1741,-0.174,-0.1797,-0.1853,-0.1402,-0.0953,-0.0449,0.0393,0.0842,0.0898,0.0898,0.0898,0.0898,0.0898,0.0898,0.0898,0.0898,0.0898,-2.1371,-2.0849,-2.0437,-2.0695,-2.0333,-1.9968,-2.0127,-1.9437,-1.8734,-1.8579,0.0,0.0,0.0,0.0,0.0,0.0,-1.5533,-1.5152,-1.5035,-1.6082,-1.6825,-1.6731,-1.7104,-1.7242,-1.6852,-1.4511,-1.3822,-1.5706,-1.3037,-1.2329,-1.4687,-1.4266,-1.3894,-1.3788,-1.3539,-1.3526,-1.3695,-1.3395,-1.3329,-1.3493,-1.3357,-1.3415,-1.3642,-1.3453,-1.3541,-1.3851,-1.4372,-1.4609,-1.4703,-1.5223,-1.5068,-1.4387,-1.3294,-1.1161,-0.8504,-0.6728,-0.5615,-0.4927,-0.3953,-0.3965,-0.4343,-0.3802,-0.3585,-0.3585,-0.3585,-0.3585,-0.3585,-0.3585,-0.3585,-0.3585,-0.3585,-0.3471,-0.3357,-0.3527,-0.3246,-0.291,-0.2747,-0.2523,-0.2244,-0.1853,-0.1797,-0.1797,-0.1797,-0.1797,-0.1853,-0.1964,-0.1852,-0.1853,-0.1964,-0.1852,-0.1797,-0.1797,-0.1797,-0.1797,-0.1797,-0.1797,-0.1797,-0.1797,-0.1347,-0.0898,-0.0393,0.0168,0.0617,0.0898,0.0898,0.0898,0.0898,0.0898,0.0898,0.0898,0.0898,0.0898,-2.143,-2.0898,-2.052,-2.1311,-2.0893,-2.0413,-2.0841,-1.992,-1.9042,-1.9233,-1.7772,0.0,0.0,0.0,-1.546,-1.5769,0.0,-1.4732,-1.4886,-1.5625,-1.6298,-1.6586,-1.7354,-1.7531,-1.6693,-1.5298,-1.5038,-1.6613,-1.4285,-1.3566,-1.5432,-1.4828,-1.4332,-1.4072,-1.4072,-1.3993,-1.3868,-1.3868,-1.3735,-1.3547,-1.3493,-1.3425,-1.3288,-1.3082,-1.3047,-1.3144,-1.3926,-1.4469,-1.4835,-1.5615,-1.5624,-1.5197,-1.5095,-1.4007,-1.2344,-1.0274,-0.8371,-0.6556,-0.4816,-0.4122,-0.3962,-0.3694,-0.3585,-0.3585,-0.3585,-0.3585,-0.3585,-0.3585,-0.3585,-0.3585,-0.3585,-0.3413,-0.3299,-0.3527,-0.3302,-0.2965,-0.2856,-0.2635,-0.2355,-0.1964,-0.1853,-0.1797,-0.1797,-0.1797,-0.1797,-0.1797,-0.1797,-0.1797,-0.1797,-0.1797,-0.1797,-0.1797,-0.1797,-0.1797,-0.1797,-0.1797,-0.1797,-0.1797,-0.1347,-0.0954,-0.0561,-0.0112,0.0224,0.0617,0.0729,0.0729,0.0729,0.0842,0.0898,0.0898,0.0898,0.0898,-2.1628,-2.0624,-1.9827,-2.1404,-2.1059,-2.0313,-2.0329,-2.0136,-1.9732,-1.89,-1.8113,-1.7465,-1.7148,-1.5794,-1.4911,-1.5506,-1.435,0.0,0.0,-1.5448,-1.5683,-1.583,-1.6732,-1.692,-1.5938,-1.1775,-1.1041,-1.5687,-1.1765,-1.1139,-1.5628,-1.5839,-1.5524,-1.4791,-1.4777,-1.4686,-1.4564,-1.4501,-1.4278,-1.3868,-1.3682,-1.3425,-1.3107,-1.3163,-1.3082,-1.2932,-1.3678,-1.4449,-1.521,-1.556,-1.584,-1.6114,-1.6484,-1.582,-1.4297,-1.1643,-0.8228,-0.4972,-0.5605,-0.4871,-0.3638,-0.3585,-0.3585,-0.3585,-0.3585,-0.3585,-0.3585,-0.3585,-0.3585,-0.3585,-0.3585,-0.3583,-0.3583,-0.3585,-0.3137,-0.28,-0.3021,-0.241,-0.1908,-0.2128,-0.1964,-0.1797,-0.1797,-0.1797,-0.1797,-0.1797,-0.1797,-0.1797,-0.1797,-0.1797,-0.1797,-0.1797,-0.1797,-0.1797,-0.1797,-0.1797,-0.1797,-0.1797,-0.1347,-0.101,-0.0898,-0.0449,-0.0168,-0.0168,0.0224,0.0336,0.0224,0.0673,0.0898,0.0898,0.0898,0.0898,-2.0312,-1.9601,-1.9151,-2.0688,-2.0086,-1.9361,-2.0388,-1.9694,-1.8796,-1.8821,-1.8111,-1.7381,-1.709,-1.6532,-1.6009,-1.5551,-1.4672,-1.4152,0.0,-1.4381,-1.4335,-1.4468,-1.5921,-1.6825,-1.6618,-1.5026,-1.5063,-1.7596,-1.5164,-1.4498,-1.6646,-1.6085,-1.5366,-1.47,-1.461,-1.4578,-1.4533,-1.447,-1.4374,-1.4214,-1.3802,-1.3547,-1.3425,-1.3082,-1.2908,-1.2862,-1.3484,-1.4212,-1.5057,-1.5879,-1.6271,-1.6416,-1.6993,-1.633,-1.479,-1.2635,-1.0368,-0.8069,-0.5855,-0.445,-0.3585,-0.3585,-0.3585,-0.3585,-0.3585,-0.3585,-0.3585,-0.3585,-0.3585,-0.3585,-0.3585,-0.3585,-0.3585,-0.3585,-0.3416,-0.3193,-0.2912,-0.2577,-0.23,-0.202,-0.1852,-0.1797,-0.1797,-0.1797,-0.1797,-0.1797,-0.1797,-0.1797,-0.1797,-0.1797,-0.1797,-0.1797,-0.1797,-0.1797,-0.1797,-0.1741,-0.1628,-0.1459,-0.1347,-0.1066,-0.0785,-0.0617,-0.0393,-0.0056,0.0224,0.0393,0.0336,0.0729,0.101,0.1178,0.1178,0.1066,-1.9617,-1.909,-1.8774,-1.9954,-1.9557,-1.9164,-2.0135,-1.9497,-1.8751,-1.897,-1.84,-1.7778,-1.7356,-1.6985,-1.6518,-1.5801,-1.5038,-1.4443,0.0,-1.3707,-1.3472,-1.3795,-1.5154,-1.6113,-1.6258,-1.6426,-1.6955,-1.8037,-1.7205,-1.6746,-1.6987,-1.6517,-1.5866,-1.4935,-1.4876,-1.4828,-1.4735,-1.4704,-1.4578,-1.4356,-1.3967,-1.3669,-1.3446,-1.3104,-1.2861,-1.2804,-1.3448,-1.4175,-1.4928,-1.6022,-1.6519,-1.6667,-1.7259,-1.6782,-1.552,-1.3832,-1.1819,-0.9446,-0.6513,-0.4827,-0.3968,-0.3694,-0.3585,-0.3585,-0.3585,-0.3585,-0.3585,-0.3585,-0.3585,-0.3585,-0.3585,-0.3585,-0.3585,-0.3585,-0.3527,-0.3357,-0.3081,-0.2745,-0.2465,-0.2188,-0.1965,-0.1797,-0.1797,-0.1797,-0.1797,-0.1797,-0.1797,-0.1797,-0.1797,-0.1797,-0.1797,-0.1797,-0.1797,-0.1797,-0.1797,-0.1685,-0.1572,-0.1403,-0.1347,-0.1178,-0.0842,-0.0842,-0.0673,-0.0393,-0.0056,0.0168,0.0336,0.0729,0.1122,0.1457,0.1457,0.1401]},{"header":{"parameterUnit":"m.s-1","parameterCategory":1,"la1":30.6,"la2":29.2853,"lo1":-89.7004,"lo2":-87.6739,"dy":0.0162,"dx":0.0183,"nx":112,"ny":82,"refTime":"2024-06-07T06:00:00:Z","depth":0,"parameterNumber":3,"parameterNumberName":"V-component_of_WINDS"},"data":[0.0,0.0,0.0,0.0,0.0,0.0,0.0,0.0,0.0,0.0,0.0,0.0,0.0,0.0,0.0,0.0,0.0,0.0,0.0,0.0,0.0,0.0,0.0,0.0,0.0,0.0,0.0,0.0,0.0,0.0,0.0,0.0,0.0,0.0,0.0,0.0,0.0,0.0,0.0,0.0,0.0,0.0,0.0,0.0,0.0,0.0,0.0,0.0,0.0,0.0,0.0,0.0,0.0,0.0,0.0,0.0,0.0,0.0,0.0,0.0,0.0,0.0,0.0,0.0,0.0,0.0,0.0,0.0,0.0,0.0,0.0,0.0,0.0,0.0,0.0,0.0,0.0,0.0,0.0,0.0,0.0,0.0,0.0,0.0,0.0,0.0,0.0,0.0,0.0,0.0,-2.1512,-2.1447,-2.0391,-1.9974,-2.0719,-2.0901,-2.1716,-2.3393,0.0,0.0,0.0,0.0,0.0,0.0,0.0,0.0,0.0,0.0,0.0,0.0,0.0,0.0,0.0,0.0,0.0,0.0,0.0,0.0,0.0,0.0,0.0,0.0,0.0,0.0,0.0,0.0,0.0,0.0,0.0,0.0,0.0,0.0,0.0,0.0,0.0,0.0,0.0,0.0,0.0,0.0,0.0,0.0,0.0,0.0,0.0,0.0,0.0,0.0,0.0,0.0,0.0,0.0,0.0,0.0,0.0,0.0,0.0,0.0,0.0,0.0,0.0,0.0,0.0,0.0,0.0,0.0,0.0,0.0,0.0,0.0,0.0,0.0,0.0,0.0,0.0,0.0,0.0,0.0,0.0,0.0,0.0,0.0,0.0,0.0,0.0,0.0,0.0,0.0,0.0,0.0,0.0,0.0,0.0,0.0,0.0,0.0,0.0,0.0,0.0,0.0,0.0,0.0,-1.9852,-1.9852,-2.024,-2.0566,-2.0704,-2.1387,-2.2297,-2.3431,0.0,0.0,0.0,0.0,0.0,0.0,0.0,0.0,0.0,0.0,0.0,0.0,0.0,0.0,0.0,0.0,0.0,0.0,0.0,0.0,0.0,0.0,0.0,0.0,0.0,0.0,0.0,0.0,0.0,0.0,0.0,0.0,0.0,0.0,0.0,0.0,0.0,0.0,0.0,0.0,0.0,0.0,0.0,0.0,0.0,0.0,0.0,0.0,0.0,0.0,0.0,0.0,0.0,0.0,0.0,0.0,0.0,0.0,0.0,0.0,0.0,0.0,0.0,0.0,0.0,0.0,0.0,0.0,0.0,0.0,0.0,0.0,0.0,0.0,0.0,0.0,0.0,0.0,0.0,0.0,0.0,0.0,0.0,0.0,0.0,0.0,0.0,0.0,0.0,0.0,0.0,0.0,0.0,0.0,0.0,0.0,0.0,0.0,0.0,0.0,0.0,0.0,0.0,-2.0526,-1.9899,-1.953,-2.0218,-2.0881,-2.1368,-2.2182,-2.3079,-2.4091,-2.259,0.0,0.0,0.0,0.0,0.0,0.0,0.0,0.0,0.0,0.0,0.0,0.0,0.0,0.0,0.0,0.0,0.0,0.0,0.0,0.0,0.0,0.0,0.0,0.0,0.0,0.0,0.0,0.0,0.0,0.0,0.0,0.0,0.0,0.0,0.0,0.0,0.0,0.0,0.0,0.0,0.0,0.0,0.0,0.0,0.0,0.0,0.0,0.0,0.0,0.0,0.0,0.0,0.0,0.0,0.0,0.0,0.0,0.0,0.0,0.0,0.0,0.0,0.0,0.0,0.0,0.0,0.0,0.0,0.0,0.0,0.0,0.0,0.0,0.0,0.0,0.0,0.0,0.0,0.0,0.0,0.0,0.0,0.0,0.0,0.0,0.0,0.0,0.0,0.0,0.0,0.0,0.0,0.0,0.0,0.0,0.0,0.0,0.0,0.0,0.0,0.0,0.0,-2.1066,-2.1062,-2.0141,-2.0788,-2.1562,-2.2221,-2.285,-2.3638,-2.4636,-2.312,0.0,0.0,0.0,0.0,0.0,0.0,0.0,0.0,0.0,0.0,0.0,0.0,0.0,0.0,0.0,0.0,0.0,0.0,0.0,0.0,0.0,0.0,0.0,0.0,0.0,0.0,0.0,0.0,0.0,0.0,0.0,0.0,0.0,0.0,0.0,0.0,0.0,0.0,0.0,0.0,0.0,0.0,0.0,0.0,0.0,0.0,0.0,0.0,0.0,0.0,0.0,0.0,0.0,0.0,0.0,0.0,0.0,0.0,0.0,0.0,0.0,0.0,0.0,0.0,0.0,0.0,0.0,0.0,0.0,0.0,0.0,0.0,0.0,0.0,0.0,0.0,0.0,0.0,0.0,0.0,0.0,0.0,0.0,0.0,0.0,0.0,0.0,0.0,0.0,0.0,0.0,0.0,0.0,0.0,0.0,0.0,0.0,0.0,0.0,0.0,0.0,0.0,-2.2606,-2.3418,-2.1815,-2.2473,-2.306,-2.3114,-2.3167,-2.3638,-2.4636,-2.312,0.0,0.0,0.0,0.0,0.0,0.0,0.0,0.0,0.0,0.0,0.0,0.0,0.0,0.0,0.0,0.0,0.0,0.0,0.0,0.0,0.0,0.0,0.0,0.0,0.0,0.0,0.0,0.0,0.0,0.0,0.0,0.0,0.0,0.0,0.0,0.0,0.0,0.0,0.0,0.0,0.0,0.0,0.0,0.0,0.0,0.0,0.0,0.0,0.0,0.0,0.0,0.0,0.0,0.0,0.0,0.0,0.0,0.0,0.0,0.0,0.0,0.0,0.0,0.0,0.0,0.0,0.0,0.0,0.0,0.0,0.0,0.0,0.0,0.0,0.0,0.0,0.0,0.0,0.0,0.0,0.0,0.0,0.0,0.0,0.0,0.0,0.0,0.0,0.0,0.0,0.0,0.0,0.0,0.0,0.0,0.0,0.0,0.0,0.0,0.0,0.0,0.0,-2.192,-2.2584,-2.199,-2.2691,-2.3206,-2.3205,-2.3735,-2.4038,-2.396,0.0,0.0,0.0,0.0,0.0,0.0,0.0,0.0,0.0,0.0,0.0,0.0,0.0,0.0,0.0,0.0,0.0,0.0,0.0,0.0,0.0,0.0,0.0,0.0,0.0,0.0,0.0,0.0,0.0,0.0,0.0,0.0,0.0,0.0,0.0,0.0,0.0,0.0,0.0,0.0,0.0,0.0,0.0,0.0,0.0,0.0,0.0,0.0,0.0,0.0,0.0,0.0,0.0,0.0,0.0,0.0,0.0,0.0,0.0,0.0,0.0,0.0,0.0,0.0,0.0,0.0,0.0,0.0,0.0,0.0,0.0,0.0,0.0,0.0,0.0,0.0,0.0,0.0,0.0,0.0,0.0,0.0,0.0,0.0,0.0,0.0,0.0,0.0,0.0,0.0,0.0,0.0,0.0,0.0,0.0,0.0,0.0,0.0,0.0,0.0,0.0,0.0,-2.1068,-2.2043,-2.2726,-2.2745,-2.3021,-2.3314,-2.3624,-2.4006,-2.4011,-2.3573,0.0,0.0,0.0,0.0,0.0,0.0,0.0,0.0,0.0,0.0,0.0,0.0,0.0,0.0,0.0,0.0,0.0,0.0,0.0,0.0,0.0,0.0,0.0,0.0,0.0,0.0,0.0,0.0,0.0,0.0,0.0,0.0,0.0,0.0,0.0,0.0,0.0,0.0,0.0,0.0,0.0,0.0,0.0,0.0,0.0,0.0,0.0,0.0,0.0,0.0,0.0,0.0,0.0,0.0,0.0,0.0,0.0,0.0,0.0,0.0,0.0,0.0,0.0,0.0,0.0,0.0,0.0,0.0,0.0,0.0,0.0,0.0,0.0,0.0,0.0,0.0,0.0,0.0,0.0,0.0,0.0,0.0,0.0,0.0,0.0,0.0,0.0,0.0,0.0,0.0,0.0,0.0,0.0,0.0,0.0,0.0,0.0,0.0,0.0,0.0,0.0,0.0,-2.1895,-2.3425,-2.4482,-2.4393,-2.3687,-2.3587,-2.4524,-2.3867,-2.3442,0.0,0.0,0.0,0.0,0.0,0.0,0.0,0.0,0.0,0.0,0.0,0.0,0.0,0.0,0.0,0.0,0.0,0.0,0.0,0.0,0.0,0.0,0.0,0.0,0.0,0.0,0.0,0.0,0.0,0.0,0.0,0.0,0.0,0.0,0.0,0.0,0.0,0.0,0.0,0.0,0.0,0.0,0.0,0.0,0.0,0.0,0.0,0.0,0.0,0.0,0.0,0.0,0.0,0.0,0.0,0.0,0.0,0.0,0.0,0.0,0.0,0.0,0.0,0.0,0.0,0.0,0.0,0.0,0.0,0.0,0.0,0.0,0.0,0.0,0.0,0.0,0.0,0.0,0.0,0.0,0.0,0.0,0.0,0.0,0.0,0.0,0.0,0.0,0.0,0.0,0.0,0.0,0.0,0.0,0.0,0.0,0.0,0.0,0.0,0.0,0.0,0.0,0.0,-2.1201,-2.3108,-2.4259,-2.3613,-2.3382,-2.3617,-2.4524,-2.3941,-2.3295,-2.2733,0.0,0.0,0.0,0.0,0.0,0.0,0.0,0.0,0.0,0.0,0.0,0.0,0.0,0.0,0.0,0.0,0.0,0.0,0.0,0.0,0.0,0.0,0.0,0.0,0.0,0.0,0.0,0.0,0.0,0.0,0.0,0.0,0.0,0.0,0.0,0.0,0.0,0.0,0.0,0.0,0.0,0.0,0.0,0.0,0.0,0.0,0.0,0.0,0.0,0.0,0.0,0.0,0.0,0.0,0.0,0.0,0.0,0.0,0.0,0.0,0.0,0.0,0.0,0.0,0.0,0.0,0.0,0.0,0.0,0.0,0.0,0.0,0.0,0.0,0.0,0.0,0.0,0.0,0.0,0.0,0.0,0.0,0.0,0.0,0.0,0.0,0.0,0.0,0.0,0.0,0.0,0.0,0.0,0.0,0.0,0.0,0.0,0.0,0.0,0.0,0.0,0.0,-2.1346,-2.3163,-2.4295,-2.3808,-2.3521,-2.3699,-2.4601,-2.4015,-2.3251,-2.2426,0.0,0.0,0.0,0.0,0.0,0.0,0.0,0.0,0.0,0.0,0.0,0.0,0.0,0.0,0.0,0.0,0.0,0.0,0.0,0.0,0.0,0.0,0.0,0.0,0.0,0.0,0.0,0.0,0.0,0.0,0.0,0.0,0.0,0.0,0.0,0.0,0.0,0.0,0.0,0.0,0.0,0.0,0.0,0.0,0.0,0.0,0.0,0.0,0.0,0.0,0.0,0.0,0.0,0.0,0.0,0.0,0.0,0.0,0.0,0.0,0.0,0.0,0.0,0.0,0.0,0.0,0.0,0.0,0.0,0.0,0.0,0.0,0.0,0.0,0.0,0.0,0.0,0.0,0.0,0.0,0.0,0.0,0.0,0.0,0.0,0.0,0.0,0.0,0.0,0.0,0.0,0.0,0.0,0.0,0.0,0.0,0.0,0.0,0.0,0.0,0.0,0.0,-2.1903,-2.3423,-2.4497,-2.4487,-2.383,-2.378,-2.4723,-2.4073,-2.3334,-2.2657,0.0,0.0,0.0,0.0,0.0,0.0,0.0,0.0,0.0,0.0,0.0,0.0,0.0,0.0,0.0,0.0,0.0,0.0,0.0,0.0,0.0,0.0,0.0,0.0,0.0,0.0,0.0,0.0,0.0,0.0,0.0,0.0,0.0,0.0,0.0,0.0,0.0,0.0,0.0,0.0,0.0,0.0,0.0,0.0,0.0,0.0,0.0,0.0,0.0,0.0,0.0,0.0,0.0,0.0,0.0,0.0,0.0,0.0,0.0,0.0,-1.9823,-2.018,0.0,0.0,0.0,0.0,0.0,0.0,0.0,0.0,0.0,0.0,0.0,0.0,0.0,0.0,0.0,0.0,0.0,0.0,0.0,0.0,0.0,0.0,0.0,0.0,0.0,0.0,0.0,0.0,0.0,0.0,0.0,0.0,0.0,0.0,0.0,0.0,0.0,0.0,0.0,0.0,-2.1142,-2.307,-2.4273,-2.3721,-2.3558,-2.3844,-2.4718,-2.4109,-2.3632,-2.3531,-2.2296,0.0,0.0,0.0,0.0,0.0,0.0,0.0,0.0,0.0,0.0,0.0,0.0,0.0,0.0,0.0,0.0,0.0,0.0,0.0,0.0,0.0,0.0,0.0,0.0,0.0,0.0,0.0,0.0,0.0,0.0,0.0,0.0,0.0,0.0,0.0,0.0,0.0,0.0,0.0,0.0,0.0,0.0,0.0,0.0,0.0,0.0,0.0,0.0,0.0,0.0,0.0,0.0,0.0,0.0,0.0,0.0,0.0,0.0,0.0,-2.0303,-2.0412,0.0,0.0,0.0,0.0,0.0,0.0,0.0,0.0,0.0,0.0,0.0,0.0,0.0,0.0,0.0,0.0,0.0,0.0,0.0,0.0,0.0,0.0,0.0,0.0,0.0,0.0,0.0,0.0,0.0,0.0,0.0,0.0,0.0,0.0,0.0,0.0,0.0,0.0,0.0,0.0,-2.2055,-2.3508,-2.4414,-2.411,-2.4099,-2.4331,-2.4851,-2.42,-2.3575,-2.3201,-2.1996,0.0,0.0,0.0,0.0,0.0,0.0,0.0,0.0,0.0,0.0,0.0,0.0,0.0,0.0,0.0,0.0,0.0,0.0,0.0,0.0,0.0,0.0,0.0,0.0,0.0,0.0,0.0,0.0,0.0,0.0,0.0,0.0,0.0,0.0,0.0,0.0,0.0,0.0,0.0,0.0,0.0,0.0,0.0,0.0,0.0,0.0,0.0,0.0,0.0,0.0,0.0,0.0,0.0,-2.0508,-2.0833,-2.0872,-2.1121,-2.1519,-2.1941,-2.0871,-2.0751,-2.1215,-1.995,0.0,0.0,0.0,0.0,0.0,0.0,0.0,0.0,0.0,0.0,0.0,0.0,0.0,0.0,0.0,0.0,0.0,0.0,0.0,0.0,0.0,0.0,-2.3554,-2.2891,-2.3234,-2.3476,-2.2651,0.0,0.0,0.0,0.0,0.0,0.0,0.0,0.0,0.0,0.0,0.0,-2.3322,-2.4126,-2.466,-2.4779,-2.4794,-2.4856,-2.4991,-2.4258,-2.3505,-2.2787,-2.1839,-2.0708,0.0,0.0,0.0,0.0,0.0,0.0,0.0,0.0,0.0,0.0,0.0,0.0,0.0,0.0,0.0,0.0,0.0,0.0,0.0,0.0,0.0,0.0,0.0,0.0,0.0,0.0,0.0,0.0,0.0,0.0,0.0,0.0,-1.4917,-1.5676,0.0,0.0,0.0,0.0,0.0,0.0,0.0,0.0,0.0,0.0,0.0,0.0,0.0,-1.9566,-2.0425,-2.056,-2.0688,-2.0792,-2.0969,-2.1067,-2.1084,-2.18,-2.18,-2.1266,-2.1786,0.0,-2.2146,-2.2057,0.0,0.0,0.0,0.0,0.0,0.0,0.0,0.0,0.0,0.0,0.0,0.0,0.0,0.0,0.0,0.0,0.0,0.0,0.0,0.0,0.0,0.0,-2.4591,-2.4496,-2.4509,-2.4504,-2.4376,-2.3266,-2.2234,-2.2121,-2.2023,-2.191,0.0,0.0,0.0,0.0,0.0,0.0,-2.3468,-2.4185,-2.4723,-2.4779,-2.4794,-2.4837,-2.4999,-2.4252,-2.3783,-2.3728,-2.2204,-2.1223,-2.1082,-1.9773,0.0,0.0,0.0,0.0,0.0,0.0,0.0,0.0,0.0,0.0,0.0,0.0,0.0,0.0,0.0,0.0,0.0,0.0,0.0,0.0,0.0,0.0,0.0,0.0,0.0,0.0,0.0,0.0,0.0,-1.5586,-1.662,-1.6475,-1.7216,-1.758,0.0,0.0,0.0,0.0,0.0,0.0,0.0,0.0,0.0,-2.1039,-2.0402,-2.0437,-2.1266,-2.1365,-2.1502,-2.1688,-2.2118,-2.238,-2.2464,-2.2821,-2.2785,-2.2482,-2.2821,-2.2714,-2.2271,-2.1888,-2.1963,-2.2283,0.0,0.0,0.0,0.0,-2.3081,-2.3234,-2.3727,-2.3897,-2.3765,-2.2893,0.0,0.0,0.0,0.0,0.0,0.0,0.0,-2.363,-2.4134,-2.4592,-2.4889,-2.4768,-2.4817,-2.4861,-2.4861,-2.4308,-2.3652,-2.3065,-2.2976,-2.2825,-2.2388,-2.2294,0.0,0.0,0.0,-2.3685,-2.4166,-2.4542,-2.4798,-2.4903,-2.4912,-2.494,-2.5012,-2.3852,-2.3145,-2.3168,-2.1577,-2.0633,-2.0671,-1.9964,-1.9362,0.0,0.0,0.0,0.0,0.0,0.0,0.0,0.0,0.0,0.0,0.0,0.0,0.0,0.0,0.0,0.0,0.0,0.0,0.0,0.0,0.0,0.0,0.0,0.0,0.0,0.0,0.0,0.0,-1.6678,-1.771,-1.7492,-1.8516,-1.892,0.0,0.0,0.0,0.0,0.0,0.0,-2.1127,-2.0411,-2.0599,-2.195,-2.1246,-2.1236,-2.2066,-2.2153,-2.2312,-2.2481,-2.307,-2.3407,-2.3494,-2.3494,-2.3494,-2.3494,-2.3494,-2.3182,-2.2622,-2.2052,-2.2238,-2.2868,-2.2535,-2.2651,-2.3086,-2.3676,-2.3958,-2.4125,-2.4782,-2.501,-2.4896,-2.4238,-2.3878,-2.3499,-2.2476,0.0,0.0,0.0,0.0,-2.3963,-2.4618,-2.4894,-2.495,-2.4817,-2.4875,-2.501,-2.501,-2.501,-2.478,-2.4025,-2.3879,-2.3691,-2.3102,-2.2989,0.0,-2.3785,-2.3879,-2.412,-2.4766,-2.4842,-2.4903,-2.4991,-2.4999,-2.5025,-2.5019,-2.3736,-2.2844,-2.2607,-2.1234,-2.0327,-2.0108,-2.0088,-1.982,-1.9243,0.0,0.0,0.0,0.0,0.0,0.0,0.0,0.0,0.0,0.0,0.0,0.0,0.0,0.0,0.0,0.0,0.0,0.0,0.0,0.0,0.0,0.0,0.0,0.0,0.0,0.0,0.0,0.0,0.0,-1.8825,-1.9173,0.0,0.0,0.0,0.0,-1.9688,-2.0357,-2.1145,-2.2164,-2.194,-2.2148,-2.3007,-2.2062,-2.1977,-2.2824,-2.2975,-2.3116,-2.3259,-2.3412,-2.3494,-2.3494,-2.3494,-2.3494,-2.3494,-2.3494,-2.3553,-2.3638,-2.3707,-2.3412,-2.2996,-2.3982,-2.4495,-2.4681,-2.4718,-2.4814,-2.4953,-2.4991,-2.501,-2.4991,-2.4953,-2.4371,-2.384,-2.458,-2.4219,0.0,0.0,-2.4921,-2.494,-2.4977,-2.4996,-2.4996,-2.4996,-2.4996,-2.501,-2.501,-2.501,-2.4977,-2.494,-2.4921,-2.4921,-2.4864,0.0,-2.4883,-2.4921,-2.4921,-2.494,-2.4977,-2.4996,-2.4991,-2.5012,-2.4993,-2.5038,-2.5101,-2.4331,-2.3484,-2.2658,-2.1798,-2.0958,-2.0127,-2.0088,-2.0107,-2.0134,-1.9309,0.0,0.0,0.0,0.0,0.0,0.0,0.0,0.0,0.0,0.0,0.0,0.0,0.0,0.0,0.0,0.0,0.0,0.0,0.0,0.0,0.0,0.0,0.0,0.0,0.0,0.0,0.0,0.0,-1.9028,-1.9115,0.0,-1.9073,-1.9756,-2.06,-2.1554,-2.17,-2.22,-2.322,-2.2557,-2.2513,-2.3271,-2.2953,-2.2929,-2.3277,-2.3422,-2.3513,-2.3558,-2.3747,-2.375,-2.3642,-2.3768,-2.3768,-2.3642,-2.3768,-2.3876,-2.3961,-2.4192,-2.4153,-2.3965,-2.4398,-2.4704,-2.4936,-2.4936,-2.4964,-2.501,-2.501,-2.501,-2.501,-2.501,-2.4409,-2.3846,-2.4582,-2.4199,-2.3691,-2.4572,-2.4817,-2.4817,-2.4817,-2.4889,-2.4983,-2.4832,-2.4908,-2.501,-2.501,-2.501,-2.501,-2.501,-2.501,-2.501,-2.501,-2.501,-2.501,-2.501,-2.501,-2.4991,-2.4999,-2.4999,-2.5031,-2.5057,-2.5063,-2.5057,-2.5101,-2.3847,-2.2934,-2.262,-2.1321,-2.0451,-2.0174,-2.0155,-2.0182,-2.0205,-2.0455,-1.9627,0.0,0.0,0.0,0.0,0.0,0.0,0.0,0.0,0.0,0.0,0.0,0.0,0.0,0.0,0.0,0.0,0.0,0.0,0.0,0.0,0.0,0.0,0.0,0.0,0.0,-1.9338,-1.9982,-1.9542,-1.9773,-2.0032,-2.0072,-2.0788,-2.1654,-2.264,-2.2538,-2.2862,-2.3881,-2.3226,-2.3045,-2.3526,-2.3455,-2.3455,-2.3576,-2.3667,-2.3735,-2.3795,-2.3937,-2.3917,-2.3816,-2.3937,-2.3917,-2.3816,-2.3937,-2.4058,-2.4192,-2.4408,-2.4545,-2.461,-2.4704,-2.4827,-2.501,-2.501,-2.501,-2.501,-2.501,-2.501,-2.501,-2.4991,-2.4606,-2.4219,-2.4672,-2.4402,-2.4063,-2.4647,-2.4802,-2.4802,-2.4802,-2.4908,-2.4983,-2.4832,-2.4889,-2.501,-2.501,-2.501,-2.501,-2.501,-2.501,-2.501,-2.501,-2.501,-2.501,-2.501,-2.4991,-2.5004,-2.4993,-2.5025,-2.5038,-2.5095,-2.5088,-2.5113,-2.5125,-2.4132,-2.3388,-2.3059,-2.2029,-2.1292,-2.1053,-2.0766,-2.0621,-2.0644,-2.0941,-2.0392,-1.8984,0.0,0.0,0.0,0.0,0.0,0.0,0.0,0.0,0.0,0.0,0.0,0.0,0.0,0.0,0.0,0.0,0.0,0.0,0.0,0.0,0.0,0.0,0.0,-1.8977,-1.9651,-2.0184,-2.0394,-2.1214,-2.158,-2.1093,-2.1804,-2.2416,-2.2732,-2.275,-2.3156,-2.4153,-2.3937,-2.3816,-2.3816,-2.3566,-2.3522,-2.3714,-2.3714,-2.3816,-2.4016,-2.4016,-2.4016,-2.4016,-2.4016,-2.4016,-2.4016,-2.4016,-2.4135,-2.4336,-2.4459,-2.4626,-2.4827,-2.495,-2.501,-2.501,-2.501,-2.501,-2.501,-2.501,-2.501,-2.4991,-2.4999,-2.4993,-2.4993,-2.4993,-2.4993,-2.5012,-2.4991,-2.501,-2.501,-2.501,-2.501,-2.501,-2.501,-2.501,-2.501,-2.501,-2.501,-2.501,-2.501,-2.501,-2.501,-2.501,-2.501,-2.501,-2.501,-2.4999,0.0,-2.4993,-2.5057,-2.5095,-2.5101,-2.5113,-2.5125,-2.5191,-2.5222,-2.4878,-2.3957,-2.3909,-2.3554,-2.2747,-2.1876,-2.1455,-2.1585,-2.0757,-2.0735,-2.1543,0.0,0.0,0.0,0.0,0.0,0.0,0.0,0.0,0.0,0.0,0.0,0.0,0.0,0.0,0.0,0.0,0.0,0.0,0.0,0.0,0.0,-1.8916,-1.9843,-2.056,-2.0297,-2.0264,-2.0909,-2.0949,-2.1188,-2.1807,-2.2311,-2.2912,-2.3728,-2.3802,-2.3913,-2.419,-2.4132,-2.4094,-2.4094,-2.4016,-2.3996,-2.3996,-2.4077,-2.4135,-2.4135,-2.4284,-2.4303,-2.4154,-2.4303,-2.4284,-2.4154,-2.4357,-2.4495,-2.461,-2.4689,-2.4813,-2.495,-2.4996,-2.501,-2.501,-2.501,-2.501,-2.501,-2.501,-2.5004,-2.4999,-2.4993,-2.5025,-2.507,-2.507,-2.507,-2.507,-2.5076,-2.5076,-2.5076,-2.5076,-2.5076,-2.5076,-2.5076,-2.5076,-2.5076,-2.5076,-2.5076,-2.5076,-2.5076,-2.5076,-2.5063,-2.4999,-2.5044,-2.5076,-2.5076,-2.5057,-2.507,-2.5076,-2.5088,-2.5132,-2.5168,-2.5168,-2.518,-2.521,-2.464,-2.4173,-2.3922,-2.2786,-2.2317,-2.2757,-2.1952,-2.2076,-2.337,-2.1927,-2.1581,0.0,0.0,0.0,0.0,0.0,0.0,0.0,0.0,0.0,0.0,0.0,0.0,0.0,0.0,0.0,0.0,0.0,0.0,0.0,0.0,0.0,0.0,-1.9476,-2.0147,-2.1156,-2.084,-2.0721,-2.1302,-2.1524,-2.1948,-2.27,-2.3087,-2.3543,-2.4153,-2.419,-2.419,-2.419,-2.419,-2.419,-2.419,-2.419,-2.419,-2.419,-2.4284,-2.4339,-2.4321,-2.4429,-2.4429,-2.4321,-2.4465,-2.4429,-2.4339,-2.4513,-2.4629,-2.4707,-2.4764,-2.4889,-2.501,0.0,0.0,0.0,0.0,-2.4991,-2.5004,-2.5004,-2.5031,-2.5038,-2.5051,-2.5063,-2.5095,-2.5095,-2.5095,-2.5095,-2.5101,-2.5101,-2.5101,-2.5101,-2.5101,-2.5101,-2.5101,-2.5101,-2.5101,-2.5101,-2.5101,-2.5101,-2.5101,-2.5095,0.0,-2.5051,-2.5082,-2.5101,-2.5101,-2.5095,-2.5107,-2.5101,-2.5125,-2.5168,-2.521,-2.5191,-2.5191,-2.5203,-2.4749,0.0,0.0,0.0,-2.315,-2.3295,-2.2868,0.0,0.0,0.0,0.0,0.0,-2.287,0.0,0.0,-2.2524,-2.237,0.0,0.0,0.0,0.0,0.0,0.0,0.0,0.0,0.0,0.0,0.0,0.0,0.0,0.0,0.0,0.0,-1.9722,-1.9778,-2.1105,-2.1257,-2.1352,-2.1694,-2.2579,-2.3259,-2.3566,-2.3896,-2.4132,-2.419,-2.419,-2.419,-2.419,-2.419,0.0,0.0,0.0,-2.4229,-2.4284,-2.4376,-2.443,-2.45,-2.45,-2.45,-2.45,-2.45,-2.45,-2.45,-2.4582,-2.4663,-2.4707,-2.4798,-2.4889,-2.501,-2.501,-2.501,-2.501,-2.501,-2.5004,-2.4993,-2.5012,0.0,0.0,-2.5101,-2.5113,-2.5113,-2.5113,-2.5113,-2.5113,-2.5107,-2.5114,-2.5114,-2.5114,-2.5114,-2.5114,-2.5114,-2.5114,-2.5114,-2.5114,-2.5114,-2.5114,-2.5114,-2.512,-2.5113,-2.5113,-2.5107,-2.5114,-2.5114,-2.512,-2.5113,-2.5113,-2.5168,-2.5191,-2.5191,-2.5191,0.0,-2.5187,-2.5244,-2.5265,-2.5243,-2.5331,-2.4983,-2.4063,-2.421,-2.4304,-2.4245,-2.4245,-2.4582,-2.5303,-2.5303,-2.5303,-2.5245,-2.2985,-2.2754,0.0,0.0,0.0,0.0,0.0,0.0,0.0,0.0,0.0,0.0,0.0,0.0,0.0,0.0,0.0,-1.9324,-1.9675,-2.0288,-2.1104,-2.1379,-2.1772,-2.2419,-2.3041,-2.3459,-2.3588,-2.3896,-2.4132,-2.419,-2.419,-2.419,-2.419,-2.419,-2.419,-2.419,-2.4191,-2.4229,-2.4284,-2.4376,-2.443,-2.45,-2.45,0.0,-2.45,-2.45,-2.45,-2.4517,-2.4631,-2.4692,-2.4707,-2.4889,-2.4964,-2.501,-2.501,-2.501,-2.501,-2.4999,-2.5012,-2.5012,-2.5057,-2.5095,-2.5101,-2.5101,-2.5144,-2.518,-2.518,-2.518,0.0,-2.5168,-2.5168,-2.5168,-2.5168,-2.5168,-2.5168,-2.5168,-2.5168,-2.5168,-2.5168,-2.5168,-2.5168,-2.5168,-2.518,-2.518,-2.518,-2.518,-2.5168,-2.5168,-2.518,-2.518,-2.518,-2.5191,-2.5191,-2.5191,-2.5195,-2.5206,-2.5187,-2.5212,-2.5254,-2.5359,-2.5382,-2.5023,-2.4204,-2.4771,-2.5082,-2.5082,-2.5082,-2.5139,-2.5303,-2.5303,-2.5303,-2.5284,-2.4784,-2.4745,0.0,0.0,0.0,0.0,0.0,0.0,0.0,0.0,0.0,0.0,0.0,-1.8973,-1.8558,0.0,-1.9648,-1.96,-2.0271,-2.0935,-2.1327,-2.1985,-2.2484,-2.266,-2.3164,-2.3518,-2.3544,-2.3837,-2.4074,-2.4133,-2.417,-2.419,-2.419,-2.419,-2.419,-2.419,-2.4191,-2.4229,-2.4284,-2.4376,-2.443,-2.45,-2.45,-2.45,-2.45,-2.45,-2.4517,-2.4549,-2.466,-2.4723,-2.4768,-2.4936,-2.501,-2.501,-2.501,-2.4991,-2.4985,-2.5012,-2.5019,-2.5044,-2.5095,-2.5132,-2.5156,-2.5156,-2.5168,-2.5191,-2.5191,-2.5191,-2.5191,-2.5191,-2.5191,-2.5191,-2.5191,-2.5191,-2.5191,-2.5191,-2.5191,-2.5191,-2.5191,-2.5191,-2.5191,-2.5191,-2.5191,-2.5191,-2.5191,-2.5191,-2.5191,-2.5191,-2.5191,-2.5191,-2.5214,-2.5195,-2.5195,-2.5187,-2.5209,-2.522,-2.525,-2.5252,-2.5274,-2.534,-2.5382,-2.5197,-2.4769,-2.5127,-2.534,-2.5303,-2.5303,-2.5303,-2.5303,-2.5322,-2.5322,-2.5303,-2.5322,-2.5322,0.0,0.0,0.0,0.0,0.0,0.0,0.0,-1.8314,-1.9116,-1.879,-1.9201,-1.9613,-1.9602,-1.9596,-1.9818,-2.0428,-2.1053,-2.1575,-2.1863,-2.2691,-2.3151,-2.2876,-2.3277,-2.358,-2.3606,-2.3837,-2.4036,-2.4094,-2.417,-2.419,-2.419,-2.419,-2.419,-2.419,-2.4191,-2.4229,-2.4284,-2.4376,-2.443,-2.45,-2.45,-2.45,-2.45,-2.4517,-2.4549,-2.4596,-2.4692,-2.4768,-2.4842,-2.495,-2.501,-2.501,-2.4991,-2.5018,-2.5025,-2.5025,-2.5063,-2.5101,-2.5113,-2.5137,-2.5191,-2.5191,-2.5191,-2.5191,-2.5191,-2.5191,-2.5191,-2.5191,-2.5191,-2.5191,-2.5191,-2.5191,-2.5191,-2.5191,-2.5191,-2.5191,-2.5191,-2.5191,-2.5191,-2.5191,-2.5191,-2.5191,-2.5203,-2.5203,-2.5203,-2.5191,-2.5191,-2.5203,-2.5206,-2.5187,-2.5198,-2.5212,-2.5212,-2.5252,-2.5292,-2.5313,-2.5313,-2.5313,-2.5374,-2.5382,-2.5322,-2.5357,-2.5367,-2.5303,-2.5313,-2.5313,-2.5313,-2.537,-2.537,-2.5322,-2.537,-2.5361,-1.8283,-1.8425,-1.8317,-1.83,-1.8316,-1.8544,0.0,-1.9544,-2.0016,-2.1361,-2.1696,-2.1749,-2.1749,-2.1749,-2.1743,-2.1709,-2.1774,-2.2113,-2.2832,-2.3248,-2.3458,-2.3394,-2.3685,-2.3876,-2.3937,-2.4016,-2.4094,-2.4094,-2.417,-2.419,-2.419,-2.419,-2.419,-2.419,-2.4191,-2.4229,-2.4284,-2.4376,-2.443,-2.45,-2.45,-2.45,-2.45,-2.4566,-2.4599,-2.4615,-2.4719,-2.4856,-2.4977,-2.4977,-2.501,-2.501,-2.4999,-2.5044,-2.5089,-2.5089,-2.5095,-2.5113,-2.5168,-2.5191,-2.5191,-2.5191,-2.5191,-2.5191,-2.5191,-2.5191,-2.5191,-2.5191,-2.5191,-2.5191,-2.5191,-2.5191,-2.5191,-2.5191,-2.5191,-2.5191,-2.5191,-2.5191,-2.5191,-2.5191,-2.5191,-2.5203,-2.5206,-2.5206,-2.5195,-2.5191,-2.5191,-2.5203,-2.5206,-2.5187,-2.5198,-2.5212,-2.5252,-2.5292,-2.5303,-2.5348,-2.5398,-2.5398,-2.5406,-2.5406,-2.5398,-2.535,-2.5322,-2.5303,-2.5361,-2.5389,-2.5389,-2.5397,-2.5406,-2.5378,-2.5406,-2.536,-1.8519,-1.8677,-1.8622,-1.8506,-1.888,-1.9326,-1.9577,-1.9977,-2.0346,-2.0582,-2.0635,-2.0657,-2.0639,-2.1027,-2.1467,-2.1849,-2.2283,-2.277,-2.3271,-2.3417,-2.3571,-2.3707,-2.3834,-2.3917,-2.3937,-2.3996,-2.4074,-2.4094,-2.417,-2.419,-2.419,-2.419,-2.419,-2.419,-2.4191,-2.4229,-2.4284,-2.4376,-2.443,-2.45,-2.45,-2.45,-2.45,-2.4534,-2.4582,-2.466,-2.4846,-2.495,-2.501,-2.501,-2.501,-2.501,-2.4999,-2.5038,-2.5101,-2.5095,-2.5113,-2.5168,-2.518,-2.5191,-2.5191,-2.5191,-2.5191,-2.5191,-2.5191,-2.5191,-2.5191,-2.5191,-2.5191,-2.5191,-2.5191,-2.5191,-2.5191,-2.5191,-2.5191,-2.5191,-2.5191,-2.5191,-2.5191,-2.5195,-2.5195,-2.5206,-2.519,-2.5201,-2.519,-2.5198,-2.5198,-2.5209,-2.525,-2.5261,-2.5271,-2.5253,-2.5283,-2.5293,-2.5303,-2.5322,-2.533,-2.533,-2.533,-2.5359,-2.5395,-2.5379,-2.5361,-2.536,-2.5388,-2.5397,-2.5397,-2.5395,-2.5404,-2.5387,-2.5404,-2.5387,-1.861,-1.8715,-1.8678,-1.8544,-1.9045,-1.9513,-1.9374,-1.9794,-2.0153,-1.9841,-1.9967,-2.02,-2.0395,-2.1089,-2.1799,-2.2304,-2.2893,-2.3353,-2.3549,-2.3576,-2.3664,-2.3855,-2.3876,-2.3876,-2.3896,-2.3976,-2.4036,-2.4074,-2.4151,-2.419,-2.419,-2.419,-2.419,-2.419,-2.4209,-2.4229,-2.4284,-2.4339,-2.443,-2.45,-2.45,-2.45,-2.45,-2.4551,-2.4647,-2.4783,-2.4936,-2.501,-2.501,-2.501,-2.501,-2.5004,-2.5012,-2.507,-2.5095,-2.5113,-2.5168,-2.5191,-2.5191,-2.5191,-2.5191,-2.5191,-2.5191,-2.5191,-2.5191,-2.5191,-2.5191,-2.5191,-2.5191,-2.5191,-2.5203,-2.5203,-2.5203,-2.5195,-2.5195,-2.5195,-2.5195,-2.5195,-2.5195,-2.5198,-2.5198,-2.5209,-2.5222,-2.5222,-2.5222,-2.5233,-2.5233,-2.5252,-2.5292,-2.5292,-2.5302,-2.5303,-2.5303,-2.5303,-2.5303,-2.5303,-2.5303,-2.5303,-2.5313,-2.5351,-2.5398,-2.5407,-2.5397,-2.5406,-2.5395,-2.5395,-2.5395,-2.5421,-2.5421,-2.5423,-2.5421,-2.5421,-1.8585,-1.8642,-1.8715,-1.8769,-1.8861,-1.8931,-1.8931,-1.8985,-1.9255,-2.0047,-2.086,-2.1656,-2.2373,-2.3172,-2.3699,-2.3646,-2.371,-2.3792,-2.3786,-2.3789,-2.3795,-2.3795,-2.3795,-2.3816,-2.3896,-2.4016,-2.4074,-2.4016,-2.4132,-2.419,-2.419,-2.419,-2.419,-2.419,-2.419,-2.4247,-2.4284,-2.4303,-2.4375,-2.45,-2.45,-2.45,-2.45,-2.4629,-2.4802,-2.4996,-2.4996,-2.501,-2.501,-2.501,-2.5004,-2.5012,-2.507,-2.5095,-2.5113,-2.5168,-2.521,-2.5191,-2.5191,-2.5191,-2.5191,-2.5191,-2.5191,-2.5191,-2.5191,-2.5191,-2.5191,-2.5191,-2.5191,-2.5203,-2.5206,-2.5187,-2.5198,-2.5201,-2.5212,-2.5212,-2.5212,-2.5212,-2.5212,-2.5192,-2.5192,-2.5222,-2.5282,-2.5311,-2.5292,-2.5303,-2.5303,-2.5293,-2.5292,-2.5293,-2.5303,-2.5303,-2.5303,-2.5303,-2.5303,-2.5303,-2.5303,-2.5303,-2.5361,-2.5398,-2.5398,-2.5397,-2.5406,-2.5406,-2.5412,-2.5401,-2.5401,-2.5476,-2.5511,-2.5511,-2.5511,-2.5511,-1.8191,-1.8391,-1.845,-1.8524,-1.862,-1.8715,-1.877,-1.8825,-1.8968,-1.9273,-1.9561,-2.0192,-2.1488,-2.1958,-2.2481,-2.352,-2.3703,-2.3725,-2.3721,-2.3765,-2.3807,-2.3807,-2.3792,-2.3816,-2.3837,-2.3917,-2.3996,-2.4074,-2.4113,-2.4151,-2.4208,-2.419,-2.419,-2.419,-2.4209,-2.421,-2.4229,-2.4321,-2.4394,-2.443,-2.4482,-2.4534,-2.4566,-2.466,-2.4768,-2.4856,-2.4964,-2.4991,-2.4999,-2.4999,-2.5031,-2.507,-2.5095,-2.5101,-2.5113,-2.518,-2.5191,-2.5191,-2.5191,-2.5191,-2.5191,-2.5191,-2.5191,-2.5191,-2.5191,-2.5191,-2.5191,-2.5191,-2.5191,-2.5203,-2.5206,-2.5187,-2.5198,-2.5201,-2.5192,-2.5192,-2.5192,-2.5192,-2.5212,-2.5252,-2.5282,-2.5262,-2.5312,-2.5293,-2.5293,-2.5303,-2.5303,-2.5303,-2.5293,-2.5303,-2.5303,-2.5303,-2.5303,-2.5303,-2.5303,-2.5351,-2.5361,-2.5361,-2.5388,-2.5406,-2.5395,-2.5404,-2.5421,-2.5468,-2.5476,-2.5476,-2.5476,-2.5484,-2.5511,-2.5511,-2.5511,-2.5511,-1.7735,-1.798,-1.8103,-1.8222,-1.8365,-1.8467,-1.8565,-1.8639,-1.8696,-1.8789,-1.9254,-1.9969,-2.0968,-2.167,-2.2389,-2.332,-2.3611,-2.3678,-2.3611,-2.3678,-2.3765,-2.3765,-2.3768,-2.3771,-2.3792,-2.3852,-2.3915,-2.4016,-2.4054,-2.4094,-2.417,-2.417,-2.417,-2.419,-2.4209,-2.421,-2.4247,-2.4321,-2.4394,-2.443,-2.4498,-2.4566,-2.4629,-2.4707,-2.4783,-2.4889,-2.4959,-2.4999,-2.4993,-2.5025,-2.507,-2.5095,-2.5101,-2.5113,-2.5137,-2.518,-2.5191,-2.5191,-2.5191,-2.5191,-2.5191,-2.5191,-2.5191,-2.5191,-2.5191,-2.5203,-2.5203,-2.5203,-2.5195,-2.5206,-2.5228,-2.5239,-2.525,-2.5233,-2.5243,-2.5243,-2.5243,-2.5243,-2.5243,-2.5302,-2.5302,-2.5312,-2.5303,-2.5303,-2.5303,-2.5303,-2.5303,-2.5303,-2.5303,-2.5303,-2.5303,-2.5303,-2.5303,-2.5313,-2.5322,-2.5389,-2.5398,-2.5407,-2.5406,-2.5404,-2.5401,-2.5429,-2.5456,-2.5511,-2.5511,-2.5511,-2.5511,-2.5511,-2.5511,-2.5511,-2.5511,-2.5511,-1.7296,-1.7486,-1.7732,-1.7922,-1.8095,-1.8225,-1.8345,-1.8426,-1.8502,-1.8616,-1.9856,-2.0915,-2.0939,-2.2313,-2.3348,-2.3126,-2.3412,-2.3611,-2.3407,-2.3567,-2.3678,-2.3678,-2.37,-2.3721,-2.3804,-2.3804,-2.3828,-2.3896,-2.3955,-2.4016,-2.4094,-2.4094,-2.4132,-2.419,-2.419,-2.4228,-2.4284,-2.4303,-2.4375,-2.45,-2.4566,-2.4647,-2.4707,-2.4764,-2.487,-2.501,-2.4999,-2.4993,-2.5006,-2.507,-2.5095,-2.5113,-2.5113,-2.5137,-2.5191,-2.5191,-2.5191,-2.5191,-2.5191,-2.5191,-2.5191,-2.5191,-2.5191,-2.5191,-2.5191,-2.5195,-2.5198,-2.5198,-2.519,-2.5222,-2.5282,-2.5311,-2.5292,-2.5303,-2.5303,-2.5303,-2.5303,-2.5303,-2.5303,-2.5303,-2.5303,-2.5303,-2.5303,-2.5303,-2.5303,-2.5303,-2.5303,-2.5313,-2.5303,-2.5303,-2.5313,-2.5313,-2.5313,-2.5322,-2.5398,-2.5398,-2.5407,-2.5387,-2.5393,-2.5401,-2.5401,-2.5476,-2.5511,-2.5511,-2.5511,-2.5511,-2.5511,-2.5511,-2.5511,-2.5511,-2.5511,-2.5492,-1.7384,-1.7462,-1.7462,-1.771,-1.7883,-1.7992,-1.8074,-1.8138,-1.8378,-1.9077,-1.9559,-2.0232,-2.1371,-2.1966,-2.2488,-2.3014,-2.3193,-2.3241,-2.3193,-2.336,-2.3476,-2.3476,-2.3611,-2.37,-2.3721,-2.3783,-2.3804,-2.3828,-2.3894,-2.3976,-2.4094,-2.4094,-2.4132,-2.419,-2.419,-2.4209,-2.4228,-2.4284,-2.4375,-2.45,-2.4566,-2.4647,-2.4707,-2.4764,-2.487,-2.4999,-2.5012,-2.5038,-2.5088,-2.5088,-2.5132,-2.518,-2.518,-2.518,-2.5191,-2.5191,-2.5191,-2.5191,-2.5195,-2.5203,-2.5191,-2.5195,-2.5206,-2.5206,-2.5209,-2.5201,-2.5201,-2.5201,-2.5212,-2.5222,-2.5282,-2.5311,-2.5292,-2.5303,-2.5303,-2.5303,-2.5303,-2.5303,-2.5303,-2.5303,-2.5303,-2.5303,-2.5303,-2.5303,-2.5303,-2.5303,-2.5351,-2.5351,-2.5313,-2.5351,-2.5361,-2.5361,-2.5379,-2.5369,-2.5397,-2.5395,-2.5404,-2.5393,-2.5448,-2.5464,-2.5464,-2.5484,-2.5511,-2.5511,-2.5511,-2.5511,-2.5511,-2.5511,-2.5511,-2.5511,-2.5511,-2.5507,-1.7018,-1.7126,-1.715,-1.7415,-1.7618,-1.7772,-1.7772,-1.7878,-1.8232,-1.9103,-1.9561,-2.0068,-2.0939,-2.1485,-2.1941,-2.2327,-2.2513,-2.2709,-2.2968,-2.3168,-2.3265,-2.3265,-2.3383,-2.3458,-2.3567,-2.3589,-2.3656,-2.3804,-2.3813,-2.3896,-2.3996,-2.4036,-2.4094,-2.4151,-2.417,-2.4209,-2.4228,-2.4653,-2.4745,-2.45,-2.4599,-2.466,-2.4707,-2.4827,-2.4931,-2.4999,-2.5025,-2.507,-2.5107,-2.5125,-2.5168,-2.5191,-2.5191,-2.5191,-2.5191,-2.5203,-2.5214,-2.5195,-2.5198,-2.5198,-2.5206,-2.5209,-2.5209,-2.519,-2.5212,-2.5222,-2.5252,-2.5252,-2.5233,-2.5253,-2.5283,-2.5302,-2.5312,-2.5303,-2.5303,-2.5303,-2.5303,-2.5303,-2.5303,-2.5303,-2.5303,-2.5303,-2.5303,-2.5322,-2.5351,-2.5351,-2.537,-2.5388,-2.5351,-2.5379,-2.5388,-2.5388,-2.5406,-2.5395,-2.5404,-2.5393,-2.5401,-2.5437,-2.5484,-2.5511,-2.5511,-2.5511,-2.5511,-2.5511,-2.5511,-2.5499,-2.5503,-2.5499,-2.5499,-2.5503,-2.5499,-2.5499,-1.6528,-1.6727,-1.6815,-1.7101,-1.7361,-1.7526,-1.7479,-1.7618,-1.8014,-1.8898,-1.9587,-2.0106,-2.0311,-2.1076,-2.165,-2.1635,-2.1878,-2.2268,-2.2807,-2.2977,-2.3052,-2.3052,-2.3095,-2.3168,-2.3336,-2.3383,-2.3499,-2.3739,-2.3789,-2.3834,-2.3896,-2.3955,-2.4016,-2.4094,-2.417,-2.4228,-2.4284,-2.506,-2.5115,-2.45,-2.4631,-2.4692,-2.4707,-2.4889,-2.4977,-2.4991,-2.5057,-2.5101,-2.5095,-2.5156,-2.5191,-2.5191,-2.5191,-2.5191,-2.5203,-2.5206,-2.5198,-2.5198,-2.5212,-2.5212,-2.5212,-2.5212,-2.5212,-2.5222,-2.5203,-2.5252,-2.5292,-2.5292,-2.5312,-2.5303,-2.5303,-2.5303,-2.5303,-2.5303,-2.5303,-2.5303,-2.5303,-2.5313,-2.5313,-2.5313,-2.5313,-2.5322,-2.5322,-2.5361,-2.5398,-2.5398,-2.5397,-2.5395,-2.5395,-2.5395,-2.5395,-2.5395,-2.5415,-2.5404,-2.5401,-2.5401,-2.5429,-2.5511,-2.5511,-2.5511,-2.5511,-2.5511,-2.5492,-2.5499,-2.5499,-2.5503,-2.5499,-2.5503,-2.5503,-2.5499,-2.5503,-2.5507,-1.6757,-1.6763,-1.6554,-1.7002,-1.715,-1.7199,-1.7224,-1.7408,0.0,-1.8741,-1.909,-1.959,-2.0867,-2.1285,-2.1627,-2.2234,-2.2417,-2.253,-2.2642,-2.2816,-2.2927,-2.2927,-2.3028,-2.3102,-2.3144,-2.3289,-2.3407,-2.3453,-2.3678,-2.3831,-2.3896,-2.3917,-2.3976,-2.4094,-2.4172,-2.4229,-2.4284,-2.4505,-2.4559,-2.45,-2.4582,-2.4645,-2.4707,-2.4798,-2.4898,-2.4999,-2.5012,-2.5051,-2.5101,-2.5113,-2.5156,-2.5191,-2.5191,-2.5203,-2.5206,-2.5187,-2.5209,-2.5212,-2.5252,-2.5282,-2.5282,-2.5282,-2.5282,-2.5282,-2.5283,-2.5293,-2.5303,-2.5303,-2.5303,-2.5303,-2.5303,-2.5303,-2.5303,-2.5303,-2.5303,-2.5303,-2.5303,-2.5351,-2.5389,-2.5389,-2.5379,-2.5378,-2.5378,-2.5378,-2.5406,-2.5406,-2.5404,-2.5393,-2.5393,-2.5393,-2.5393,-2.5393,-2.5448,-2.5484,-2.5484,-2.5484,-2.5484,-2.5511,-2.5511,-2.5511,-2.5511,-2.5511,-2.5507,-2.5505,-2.5505,-2.5525,-2.5576,-2.5589,-2.5589,-2.5576,-2.5589,-2.5582,-1.6512,-1.6659,-1.6659,-1.6926,-1.7134,-1.7296,-1.7248,0.0,0.0,-1.867,-1.8894,-1.9161,-1.9915,-2.0424,-2.0841,-2.1233,-2.1678,-2.2124,-2.25,-2.2659,-2.2738,-2.2738,-2.2842,-2.2919,-2.2995,-2.3144,-2.3289,-2.3383,-2.3611,-2.3786,-2.3831,-2.3876,-2.3958,-2.4094,-2.4537,-2.4614,-2.4284,-2.4746,-2.4819,-2.45,-2.4615,-2.466,-2.4707,-2.4827,-2.4931,-2.5004,-2.5044,-2.507,-2.5107,-2.5144,-2.5168,-2.5191,-2.5203,-2.5195,-2.5198,-2.5239,-2.5241,-2.5252,-2.5283,-2.5312,-2.5312,-2.5312,-2.5312,-2.5293,-2.5303,-2.5303,-2.5303,-2.5303,-2.5303,-2.5303,-2.5303,-2.5303,-2.5303,-2.5303,-2.5303,-2.5303,-2.5303,-2.5351,-2.5398,-2.5398,-2.5397,-2.5406,-2.5406,-2.5395,-2.5404,-2.5404,-2.5421,-2.5456,-2.5456,-2.5456,-2.5456,-2.5456,-2.5484,-2.5511,-2.5511,-2.5511,-2.5511,-2.5511,-2.5495,-2.5503,-2.5503,-2.5524,-2.5538,-2.5557,-2.5557,-2.5576,-2.5604,-2.5607,-2.5607,-2.5604,-2.5607,-2.5607,-1.6301,-1.6554,-1.6738,-1.6876,-1.715,-1.7368,-1.7248,-1.7344,-1.7693,-1.842,-1.861,-1.8707,-1.886,-1.9391,-1.9941,-2.034,-2.0952,-2.1651,-2.2385,-2.2542,-2.2579,-2.2579,-2.2649,-2.2712,-2.2816,-2.297,-2.3119,-2.3313,-2.3544,-2.37,-2.3786,-2.3855,-2.3937,-2.4074,-2.4717,-2.4795,-2.4284,-2.4931,-2.5005,-2.4482,-2.4599,-2.4676,-2.4707,-2.4861,-2.4964,-2.5004,-2.5063,-2.5101,-2.5095,-2.5156,-2.5191,-2.5203,-2.5206,-2.5217,-2.5239,-2.5271,-2.5292,-2.5302,-2.5303,-2.5303,-2.5303,-2.5303,-2.5303,-2.5303,-2.5303,-2.5303,-2.5303,-2.5303,-2.5303,-2.5303,-2.5303,-2.5303,-2.5313,-2.5313,-2.5322,-2.5322,-2.5322,-2.537,-2.5388,-2.5388,-2.5406,-2.5423,-2.5423,-2.5421,-2.5429,-2.5429,-2.5476,-2.5511,-2.5511,-2.5511,-2.5511,-2.5511,-2.5511,-2.5511,-2.5511,-2.5499,-2.5507,-2.5507,-2.5505,-2.5525,-2.5525,-2.557,-2.5601,-2.5593,-2.5593,-2.5609,-2.5615,-2.5615,-2.5615,-2.5615,-2.5609,-2.5618,-1.6512,-1.6554,-1.6517,-1.6825,-1.6977,-1.7043,-1.6952,0.0,-1.7472,-1.7748,-1.7811,-1.8036,-1.8775,-1.8913,-1.9395,-2.0856,-2.1206,-2.1581,-2.2303,-2.246,-2.2515,-2.2515,-2.2515,-2.2542,-2.2605,-2.2764,-2.2919,-2.3119,-2.3448,-2.3656,-2.3774,-2.3876,-2.3937,-2.4016,-2.4186,-2.4264,-2.421,-2.4413,-2.4468,-2.4412,-2.4482,-2.4582,-2.4707,-2.4723,-2.4827,-2.5012,-2.5012,-2.5032,-2.5101,-2.5113,-2.5149,-2.5206,-2.5187,-2.5239,-2.5282,-2.5311,-2.5302,-2.5303,-2.5303,-2.5303,-2.5303,-2.5303,-2.5303,-2.5303,-2.5303,-2.5303,-2.5303,-2.5303,-2.5303,-2.5303,-2.5303,-2.5303,-2.5313,-2.5389,-2.5389,-2.5398,-2.5397,-2.5404,-2.5393,-2.5393,-2.5448,-2.5484,-2.5484,-2.5484,-2.5484,-2.5484,-2.5511,-2.5511,-2.5511,-2.5511,-2.5511,-2.5511,-2.5511,-2.5511,-2.5511,-2.551,-2.5492,-2.5492,-2.5557,-2.5595,-2.5595,-2.5601,-2.5593,-2.5605,-2.5605,-2.5634,-2.5695,-2.5695,-2.5695,-2.5695,-2.5695,-2.5691,-1.6163,-1.6355,-1.6474,-1.6617,-1.6825,-1.7018,-1.7052,-1.7264,-1.7432,-1.7542,-1.7641,-1.7788,-1.8068,-1.8504,-1.9185,-2.028,-2.0863,-2.1295,-2.1637,-2.2078,-2.2224,-2.1829,-2.216,-2.246,-2.2525,-2.2712,-2.2927,-2.3265,-2.3407,-2.3544,-2.3725,-2.3813,-2.3896,-2.3996,-2.4094,-2.4171,-2.4266,-2.4303,-2.4375,-2.4465,-2.4566,-2.4645,-2.4707,-2.4832,-2.4917,-2.5004,-2.5044,-2.5082,-2.5107,-2.5144,-2.518,-2.5195,-2.5198,-2.5231,-2.5233,-2.5283,-2.5303,-2.5303,-2.5303,-2.5303,-2.5303,-2.5303,-2.5303,-2.5303,-2.5303,-2.5303,-2.5303,-2.5303,-2.5303,-2.5303,-2.5303,-2.5322,-2.5361,-2.5388,-2.5397,-2.5397,-2.5406,-2.5404,-2.5401,-2.5401,-2.5456,-2.5511,-2.5511,-2.5511,-2.5511,-2.5511,-2.5511,-2.5511,-2.5511,-2.5511,-2.5499,-2.551,-2.5507,-2.5511,-2.5511,-2.549,-2.5499,-2.5499,-2.5562,-2.559,-2.559,-2.5644,-2.5658,-2.5667,-2.5667,-2.5671,-2.5699,-2.5699,-2.5699,-2.5699,-2.5699,-2.5699,-1.6128,-1.6301,-1.6501,-1.6528,-1.6949,-1.7302,-1.7117,-1.7404,-1.7673,-1.7522,-1.7566,-1.7635,-1.7612,-1.8064,-1.8758,-1.9765,-2.037,-2.0884,-2.1377,-2.1916,-2.2079,-2.1576,-2.2027,-2.2377,-2.2432,-2.2659,-2.2944,-2.3241,-2.3313,-2.343,-2.3611,-2.3747,-2.3855,-2.3976,-2.4054,-2.4133,-2.4266,-2.4303,-2.4358,-2.4429,-2.4615,-2.4676,-2.4707,-2.4861,-2.4977,-2.5037,-2.5076,-2.5114,-2.5139,-2.5168,-2.5203,-2.5195,-2.5201,-2.5203,-2.5243,-2.5274,-2.5303,-2.5303,-2.5303,-2.5303,-2.5303,-2.5303,-2.5303,-2.5303,-2.5303,-2.5313,-2.5322,-2.5332,-2.5332,-2.5332,-2.5332,-2.537,-2.5397,-2.5395,-2.5395,-2.5404,-2.5423,-2.544,-2.5429,-2.5429,-2.5456,-2.5511,-2.5511,-2.5511,-2.5511,-2.5511,-2.5511,-2.5492,-2.5507,-2.5507,-2.5503,-2.5525,-2.5524,-2.5522,-2.5522,-2.5525,-2.5525,-2.5525,-2.5595,-2.5639,-2.5639,-2.5671,-2.5699,-2.5699,-2.5699,-2.5699,-2.5699,-2.5699,-2.5699,-2.5699,-2.5699,-2.5699,-1.6635,-1.6501,-1.6528,-1.6596,-1.7396,-1.7929,-1.7027,-1.7671,-1.8303,-1.7638,-1.7512,-1.7536,-1.7589,-1.7559,-1.8019,-1.9545,-1.9805,-2.0324,-2.1781,-2.2106,-2.2152,-2.2027,-2.2192,-2.231,-2.231,-2.2605,-2.2842,-2.2893,-2.3144,-2.3336,-2.3383,-2.3674,-2.3828,-2.3896,-2.3976,-2.4074,-2.419,-2.4266,-2.4284,-2.4303,-2.4515,-2.4647,-2.4707,-2.4764,-2.4898,-2.5101,-2.5101,-2.5139,-2.521,-2.5191,-2.5206,-2.5192,-2.5192,-2.5243,-2.5303,-2.5303,-2.5303,-2.5303,-2.5303,-2.5303,-2.5303,-2.5303,-2.5303,-2.5303,-2.5303,-2.5351,-2.5398,-2.5406,-2.5406,-2.5406,-2.5406,-2.5406,-2.5395,-2.5393,-2.5401,-2.5429,-2.5484,-2.5511,-2.5511,-2.5511,-2.5511,-2.5511,-2.5511,-2.5511,-2.5511,-2.5511,-2.5511,-2.5507,-2.5511,-2.5492,-2.5525,-2.5595,-2.5601,-2.5601,-2.5601,-2.559,-2.561,-2.561,-2.5667,-2.5699,-2.5699,-2.5699,-2.5699,-2.5699,-2.5699,-2.5699,-2.5699,-2.5699,-2.5699,-2.5699,-2.5699,-2.5699,-1.7145,-1.6916,-1.6581,-1.6659,-1.7369,-1.7892,-1.7164,-1.7773,-1.8319,-1.7647,-1.7505,-1.7512,-1.7529,-1.7505,-1.7987,-1.9493,-1.9727,-2.0104,-2.11,-2.1685,-2.1819,-2.1329,-2.1832,-2.2254,-2.2366,-2.2515,-2.2659,-2.2816,-2.3045,-2.3217,-2.3313,-2.3522,-2.3721,-2.3816,-2.3996,-2.4113,-2.419,-2.421,-2.4284,-2.4358,-2.4479,-2.4578,-2.4707,-2.4764,-2.487,-2.5037,-2.5076,-2.5114,-2.5139,-2.5172,-2.5206,-2.5209,-2.5241,-2.5292,-2.5302,-2.5303,-2.5303,-2.5303,-2.5303,-2.5303,-2.5303,-2.5303,-2.5303,-2.5313,-2.5351,-2.5379,-2.5398,-2.5406,-2.5397,-2.5397,-2.5404,-2.5393,-2.5412,-2.5456,-2.5464,-2.5464,-2.5511,-2.5511,-2.5511,-2.5511,-2.5511,-2.5511,-2.5511,-2.5511,-2.5511,-2.5511,-2.5495,-2.5498,-2.5492,-2.5531,-2.5582,-2.559,-2.5595,-2.5604,-2.5601,-2.559,-2.561,-2.561,-2.5667,-2.5699,-2.5699,-2.5699,-2.5699,-2.5699,-2.5699,-2.5699,-2.5699,-2.5699,-2.5699,-2.5699,-2.5707,-2.5707,0.0,-1.6928,-1.6701,-1.6738,-1.7406,-1.7902,-1.7264,-1.7823,-1.8294,-1.7623,-1.7498,-1.7505,-1.7498,-1.7706,-1.8253,-1.9482,-1.9897,-2.0356,-2.1116,-2.1599,-2.1761,-2.144,-2.1821,-2.2209,-2.2377,-2.246,-2.2569,-2.2712,-2.2919,-2.3077,-2.3217,-2.3424,-2.3589,-2.375,-2.3935,-2.4074,-2.417,-2.4191,-2.4266,-2.4358,-2.4478,-2.4594,-2.4707,-2.4813,-2.4931,-2.505,-2.5089,-2.5114,0.0,-2.5184,-2.5198,-2.5209,-2.5271,-2.5292,-2.5302,-2.5303,-2.5303,-2.5313,-2.5322,-2.5341,-2.5351,-2.5332,-2.5341,-2.5351,-2.5387,-2.5415,-2.5434,-2.5451,-2.5443,-2.5443,-2.5448,-2.5429,-2.5456,-2.5484,-2.5511,-2.5511,-2.5511,-2.5511,-2.5492,-2.5495,-2.5495,-2.5522,-2.5529,-2.5536,-2.5536,-2.5536,-2.5538,-2.5538,-2.5531,-2.5568,-2.5609,-2.5639,-2.5639,-2.5634,-2.5634,-2.563,-2.5639,-2.5639,-2.5671,-2.5699,-2.5699,-2.5699,-2.5699,-2.5699,-2.5699,-2.5699,-2.5699,-2.5699,-2.5699,-2.5699,-2.5707,-2.571,0.0,-1.6554,-1.6763,-1.6789,-1.75,-1.7981,-1.7264,-1.7823,0.0,-1.7623,-1.7515,-1.7515,-1.7565,-1.8087,-1.8757,-1.9551,-2.0257,-2.0965,-2.1681,-2.184,-2.1974,-2.2168,-2.2061,-2.2101,-2.2349,-2.2432,-2.2515,-2.2579,-2.279,-2.2944,-2.3095,-2.3289,-2.3476,-2.3678,-2.3831,-2.3955,-2.4094,-2.4172,-2.4229,-2.4303,-2.4476,-2.4626,-2.4707,-2.4908,-2.5018,-2.5101,-2.5101,-2.5139,-2.5191,-2.5206,-2.5209,-2.5212,-2.5262,-2.5302,-2.5303,-2.5303,-2.5303,-2.5313,-2.5389,-2.5398,-2.5398,-2.5406,-2.5395,-2.5395,-2.5393,-2.5429,-2.5484,-2.5511,-2.5511,-2.5484,-2.5511,-2.5511,-2.5511,-2.5511,-2.5492,-2.5492,-2.5492,-2.5499,-2.5507,-2.5511,-2.5518,-2.5531,-2.5595,-2.5601,-2.5601,-2.5601,-2.5601,-2.5593,-2.5605,-2.5591,-2.5639,-2.5695,-2.5699,-2.5699,-2.5699,-2.5699,-2.5699,-2.5699,-2.5699,-2.5699,-2.5699,-2.5699,-2.5699,-2.5703,-2.5703,-2.5703,-2.5703,-2.5703,-2.5703,-2.5699,-2.571,-2.5694,-1.6246,0.0,-1.6517,-1.6554,-1.73,-1.7866,0.0,-1.7773,-1.8294,-1.7623,0.0,-1.7657,-1.817,-1.8377,-1.8932,-2.0224,-2.0572,-2.0965,-2.1681,-2.1811,-2.184,-2.1974,-2.1957,-2.2003,-2.2225,-2.231,-2.2377,-2.2432,-2.2685,-2.2893,-2.302,-2.3217,-2.3407,-2.3607,-2.3743,-2.3891,-2.4016,-2.4133,-2.4228,-2.4284,-2.4411,-2.453,-2.4707,-2.4802,-2.4903,-2.5025,-2.5076,-2.5101,-2.5125,-2.5168,-2.5201,-2.5212,-2.5264,-2.5303,-2.5303,-2.5303,-2.5303,-2.5313,-2.5389,-2.5398,-2.5398,-2.5406,-2.5404,-2.5393,-2.5401,-2.5412,-2.5432,-2.5484,-2.5456,-2.5429,-2.5484,-2.5511,-2.5511,-2.5511,-2.5495,-2.5498,-2.5498,-2.5538,-2.5577,-2.5589,-2.557,-2.557,-2.5601,-2.5601,-2.5601,-2.5601,-2.5604,-2.56,-2.561,-2.5643,-2.5675,-2.5699,-2.5699,-2.5703,-2.571,-2.5703,-2.5699,-2.5699,-2.5699,-2.5703,-2.571,-2.571,-2.5694,-2.5704,-2.5704,-2.5704,-2.5704,-2.571,-2.5704,-2.571,-2.5701,-2.5697,-1.6039,-1.6462,-1.696,-1.7015,-1.742,-1.7759,-1.7507,0.0,0.0,0.0,0.0,0.0,0.0,-1.8774,-1.9369,-2.0533,-2.0969,-2.1334,-2.1731,-2.1797,-2.1811,-2.1899,-2.1899,-2.1974,-2.2168,-2.2254,-2.2338,-2.2377,-2.2552,-2.2738,-2.2893,-2.302,-2.3168,-2.3407,-2.3585,-2.3743,-2.3917,-2.4074,-2.419,-2.4266,-2.4357,-2.4513,-2.4707,-2.4768,-2.4889,-2.5057,-2.5076,-2.5113,-2.5141,-2.519,-2.5222,-2.5252,-2.5293,-2.5303,-2.5303,-2.5303,-2.5313,-2.5351,-2.5379,-2.5425,-2.5443,-2.5451,-2.5448,-2.5456,-2.5456,-2.5448,-2.544,-2.5484,-2.5464,-2.5456,-2.5484,-2.5511,-2.5511,-2.5511,-2.5507,-2.549,-2.5492,-2.5531,-2.557,-2.5599,-2.5604,-2.5609,-2.5639,-2.5639,-2.5639,-2.5639,-2.5654,-2.5643,-2.5643,-2.5671,-2.5699,-2.5699,-2.5703,-2.5707,-2.5691,-2.5694,-2.5694,-2.5694,-2.5694,-2.5697,-2.5701,-2.5701,-2.5704,-2.571,-2.571,-2.571,-2.571,-2.5693,-2.569,-2.5701,-2.569,-2.571,-1.5918,-1.6766,-1.7561,-1.7387,-1.7509,-1.772,-1.7914,0.0,0.0,0.0,0.0,0.0,0.0,-1.9363,0.0,-2.0737,-2.1383,-2.1797,-2.1797,-2.1797,-2.1811,-2.1899,-2.1882,-2.1945,-2.214,-2.2225,-2.2265,-2.2349,-2.2432,-2.2569,-2.2764,-2.2669,-2.2745,-2.3017,-2.3206,-2.341,-2.3572,-2.3923,-2.4134,-2.421,-2.4338,-2.4512,-2.4707,-2.4618,-2.4785,-2.507,-2.4968,-2.503,-2.5195,-2.5201,-2.5222,-2.5292,-2.5293,-2.5303,-2.5303,-2.5303,-2.5341,-2.5389,-2.5397,-2.544,-2.5511,-2.5511,-2.5511,-2.5511,-2.5511,-2.5511,-2.5492,-2.5499,-2.5492,-2.5492,-2.5499,-2.5499,-2.5499,-2.5507,-2.5515,-2.5529,-2.5525,-2.5518,-2.5556,-2.5605,-2.5615,-2.5639,-2.5695,-2.5699,-2.5699,-2.5699,-2.5699,-2.5699,-2.5699,-2.5699,-2.5699,-2.5699,-2.5707,-2.5691,-2.5694,-2.5704,-2.569,-2.5693,-2.569,-2.569,-2.569,-2.5693,-2.5693,-2.5693,-2.5693,-2.5693,-2.5693,-2.5693,-2.5693,-2.569,-2.5696,-2.5698,-1.6443,-1.7103,-1.7422,-1.6336,-1.7104,-1.8036,-1.7789,0.0,0.0,0.0,0.0,0.0,0.0,-2.0439,-2.0754,-2.1499,-2.1715,-2.1797,-2.1797,-2.1797,-2.1781,-2.1811,-2.1827,-2.184,-2.1928,-2.1974,-2.1986,-2.2056,-2.222,-2.2405,-2.2605,-2.2151,-2.1979,-2.2177,-2.2379,-2.25,-2.2514,-2.3569,-2.4134,-2.421,-2.4339,-2.4515,-2.4689,-2.4005,-2.4176,-2.4987,-2.4352,-2.4484,-2.5125,-2.5179,-2.5212,-2.5222,-2.5293,-2.5303,-2.5303,-2.5303,-2.5313,-2.5322,-2.5369,-2.544,-2.5511,-2.5511,-2.5511,-2.5511,-2.5511,-2.5511,-2.5499,-2.5498,-2.5503,-2.5499,-2.5498,-2.5505,-2.5511,-2.5577,-2.5587,-2.5571,-2.5576,-2.563,-2.5667,-2.5675,-2.5675,-2.5695,-2.5699,-2.5699,-2.5699,-2.5699,-2.5699,-2.5699,-2.5699,-2.5699,-2.5699,-2.5699,-2.5699,-2.571,-2.5707,-2.571,-2.5696,-2.5705,-2.5696,-2.5693,-2.5698,-2.5703,-2.5705,-2.5705,-2.5705,-2.5705,-2.5705,-2.5705,-2.5703,-2.5698,-2.5698,-2.5696,-1.6203,-1.6697,-1.701,-1.6413,-1.7375,-1.8459,-1.8455,-1.8695,0.0,0.0,0.0,0.0,0.0,-2.0716,-2.0948,-2.1665,-2.1797,-2.1797,-2.1797,-2.1797,-2.1797,-2.1797,-2.1797,-2.1827,-2.1882,-2.1899,-2.194,-2.1982,-2.2135,-2.231,-2.2432,-2.2217,-2.216,-2.2322,-2.2593,-2.2758,-2.2792,-2.3551,-2.4016,-2.4153,-2.3842,-2.3795,-2.3967,-2.3168,-2.3369,-2.4334,-2.3991,-2.4343,-2.5145,-2.519,-2.5233,-2.5253,-2.5293,-2.5303,-2.5293,-2.5341,-2.5351,-2.536,-2.5423,-2.5476,-2.5511,-2.5511,-2.5511,-2.5511,-2.5511,-2.5511,-2.5492,-2.5495,-2.5503,-2.5517,-2.5531,-2.5538,-2.5564,-2.5595,-2.5593,-2.5609,-2.5605,-2.5615,-2.5667,-2.5695,-2.5699,-2.5699,-2.5699,-2.5699,-2.5699,-2.5699,-2.5703,-2.5707,-2.5707,-2.5694,-2.5697,-2.5697,-2.5701,-2.5707,-2.5696,-2.5698,-2.5703,-2.5707,-2.5703,-2.5701,-2.5703,-2.5705,-2.5707,-2.5707,-2.5707,-2.5707,-2.5707,-2.5707,-2.5705,-2.5703,-2.5703,-2.5703,-1.5935,-1.6278,-1.6664,-1.6875,0.0,-1.853,-1.8831,-1.8765,0.0,0.0,0.0,0.0,0.0,-2.0545,-2.0834,-2.1562,-2.1768,-2.1797,-2.1797,-2.1797,-2.1797,-2.1797,-2.1797,-2.1811,-2.1869,-2.1869,-2.1899,-2.194,-2.2077,-2.218,-2.2265,-2.218,-2.2187,-2.2339,-2.2633,-2.2832,-2.2952,-2.3486,-2.3855,-2.4056,-2.3584,-2.3449,-2.3624,-2.2843,-2.3046,-2.4024,-2.3871,-2.4324,-2.5179,-2.5182,-2.5243,-2.5303,-2.5303,-2.5303,-2.5313,-2.536,-2.5397,-2.5415,-2.5468,-2.5484,-2.5511,-2.5511,-2.5499,-2.5507,-2.5507,-2.5515,-2.5522,-2.551,-2.5518,-2.5544,-2.5595,-2.5601,-2.5601,-2.5618,-2.5624,-2.5629,-2.561,-2.5615,-2.5643,-2.5695,-2.5699,-2.5699,-2.5703,-2.5703,-2.5703,-2.5707,-2.5694,-2.5697,-2.5697,-2.5704,-2.571,-2.571,-2.5693,-2.5698,-2.5698,-2.5705,-2.5707,-2.5707,-2.5707,-2.5707,-2.5707,-2.5707,-2.5707,-2.5707,-2.5707,-2.5707,-2.5707,-2.5707,-2.5707,-2.5707,-2.5707,-2.5707,-1.6055,-1.6291,-1.653,-1.7409,-1.7697,-1.7855,-1.8284,-1.8346,0.0,-1.9546,0.0,0.0,-1.986,-2.0134,-2.054,-2.1227,-2.1617,-2.1797,-2.1797,-2.1797,-2.1797,-2.1797,-2.1797,-2.1797,-2.1827,-2.1827,-2.1811,-2.1811,-2.1957,-2.2073,-2.2192,-2.1627,-2.1377,-2.1567,-2.1727,-2.1923,-2.2177,-2.3124,-2.3747,-2.4016,-2.4078,-2.4229,-2.44,-2.3643,-2.3825,-2.4691,-2.4069,-2.4307,-2.5106,-2.5179,-2.5252,-2.5292,-2.5293,-2.5303,-2.5303,-2.5313,-2.5351,-2.5387,-2.5415,-2.5459,-2.5511,-2.5511,-2.5495,-2.5492,-2.5492,-2.5531,-2.5582,-2.559,-2.5581,-2.5595,-2.5607,-2.5601,-2.5613,-2.5682,-2.5695,-2.5695,-2.5695,-2.5695,-2.5699,-2.5699,-2.5699,-2.5703,-2.571,-2.5691,-2.5694,-2.5707,-2.5707,-2.5707,-2.5707,-2.571,-2.571,-2.571,-2.569,-2.5693,-2.5698,-2.5705,-2.5707,-2.5707,-2.5707,-2.5707,-2.5707,-2.5707,-2.5707,-2.5707,-2.5707,-2.5707,-2.5707,-2.5707,-2.5707,-2.5707,-2.5707,-2.5707,-1.5771,-1.62,-1.672,-1.7501,-1.7697,0.0,0.0,-1.874,-1.9456,-1.9449,-1.9955,-2.0431,-2.0431,-2.0528,-2.0703,-2.0942,-2.1119,-2.1261,-2.1464,-2.1495,-2.1587,-2.1797,-2.1797,-2.1797,-2.1797,-2.1797,-2.1797,-2.1797,-2.1899,-2.194,-2.2015,-2.1894,-2.1887,-2.1997,-2.2167,-2.24,-2.2674,-2.3153,-2.3567,-2.3871,-2.3562,-2.3492,-2.3659,-2.297,-2.3225,-2.417,-2.3916,-2.4312,-2.5157,-2.5201,-2.5233,-2.5293,-2.5351,-2.537,-2.536,-2.5359,-2.5376,-2.5412,-2.544,-2.5476,-2.5492,-2.5503,-2.5505,-2.5518,-2.5557,-2.557,-2.5601,-2.5599,-2.5599,-2.5604,-2.5649,-2.5654,-2.5678,-2.5695,-2.5699,-2.5699,-2.5699,-2.5699,-2.5699,-2.5699,-2.5703,-2.5707,-2.5691,-2.5697,-2.5704,-2.571,-2.5693,-2.5696,-2.5696,-2.5698,-2.5701,-2.5701,-2.5701,-2.5703,-2.5705,-2.5705,-2.5707,-2.5707,-2.5707,-2.5707,-2.5707,-2.5707,-2.5707,-2.5707,-2.5707,-2.5707,-2.5707,-2.5707,-2.5707,-2.5707,-2.5707,-2.5707,-1.514,-1.5594,-1.6316,-1.7156,0.0,0.0,-1.762,-1.857,-1.9287,-1.8814,-1.9439,-2.0162,-2.0379,-2.034,-2.0329,-2.0581,-2.0827,-2.1023,-2.1262,-2.1402,-2.1526,-2.1738,-2.1797,-2.1797,-2.1768,-2.1797,-2.1797,-2.1797,-2.1869,-2.1899,-2.1899,-2.2094,-2.2225,-2.2282,-2.2432,-2.2632,-2.2868,-2.3052,-2.3342,-2.366,-2.3293,-2.3272,-2.3503,-2.3129,-2.338,-2.4087,-2.4163,-2.4583,-2.5209,-2.5212,-2.5273,-2.5313,-2.537,-2.5397,-2.5406,-2.5404,-2.5393,-2.5401,-2.5492,-2.5492,-2.5499,-2.5511,-2.5531,-2.5538,-2.5587,-2.5604,-2.5629,-2.5629,-2.5629,-2.5639,-2.5691,-2.5675,-2.5671,-2.5699,-2.5699,-2.5699,-2.5699,-2.5699,-2.5699,-2.5699,-2.5707,-2.5694,-2.5697,-2.5707,-2.5693,-2.5696,-2.5698,-2.5703,-2.5703,-2.5705,-2.5707,-2.5707,-2.5707,-2.5707,-2.5707,-2.5707,-2.5707,-2.5707,-2.5707,-2.5707,-2.5707,-2.5707,-2.5707,-2.5707,-2.5707,-2.5707,-2.5707,-2.5707,-2.5707,-2.5707,-2.5707,-2.5707,-1.4139,-1.4437,-1.512,0.0,0.0,0.0,-1.748,-1.7647,-1.7697,-1.7712,-1.8216,-1.8817,-1.9492,-1.934,-1.9354,-2.0066,-2.0795,-2.1277,-2.1309,-2.1587,-2.1768,-2.1724,-2.1768,-2.1768,-2.1724,-2.1768,-2.1797,-2.1797,-2.1869,-2.1899,-2.1899,-2.2094,-2.2197,-2.2192,-2.2321,-2.246,-2.2605,-2.279,-2.3077,-2.3394,-2.3558,-2.3816,-2.4209,-2.4481,-2.4647,-2.4723,-2.498,-2.5125,-2.5222,-2.528,-2.5302,-2.5313,-2.5369,-2.5397,-2.5398,-2.5406,-2.5404,-2.541,-2.5488,-2.5507,-2.5507,-2.5577,-2.5601,-2.5607,-2.56,-2.5643,-2.5699,-2.5699,-2.5699,-2.5699,-2.5699,-2.5643,-2.5615,-2.5675,-2.5699,-2.5699,-2.5699,-2.5699,-2.5699,-2.5699,-2.5707,-2.5697,-2.5707,-2.5696,-2.5701,-2.5707,-2.5707,-2.5707,-2.5707,-2.5707,-2.5707,-2.5707,-2.5707,-2.5707,-2.5707,-2.5707,-2.5707,-2.5707,-2.5707,-2.5707,-2.5707,-2.5707,-2.5707,-2.5707,-2.5707,-2.5707,-2.5707,-2.5707,-2.5707,-2.5707,-2.5707,-2.5707,-1.4079,-1.5198,0.0,-1.6968,0.0,0.0,0.0,-1.797,0.0,0.0,-1.9306,-1.9607,-1.9493,-1.9808,-2.0091,-2.005,-2.046,-2.0811,-2.1055,-2.1166,-2.1339,-2.1603,-2.165,-2.1634,-2.165,-2.1634,-2.1664,-2.1664,-2.1694,-2.1724,-2.1768,-2.1873,-2.1945,-2.1986,-2.2073,-2.226,-2.2542,-2.2632,-2.2868,-2.3199,-2.3463,-2.3834,-2.4266,-2.4393,-2.4615,-2.4842,-2.4966,-2.5082,-2.5206,-2.5262,-2.5322,-2.5369,-2.5387,-2.5423,-2.5468,-2.5468,-2.548,-2.5471,-2.5478,-2.5538,-2.5577,-2.5585,-2.5595,-2.56,-2.5663,-2.5675,-2.5699,-2.5699,-2.5699,-2.5699,-2.5707,-2.5683,-2.5679,-2.5699,-2.5699,-2.5699,-2.5707,-2.5707,-2.5691,-2.5701,-2.5707,-2.5693,-2.5696,-2.5701,-2.5705,-2.5707,-2.5707,-2.5707,-2.5707,-2.5707,-2.5707,-2.5707,-2.5707,-2.5707,-2.5707,-2.5707,-2.5707,-2.5707,-2.5707,-2.5707,-2.5707,-2.5707,-2.5707,-2.5707,-2.5707,-2.5707,-2.5707,-2.5707,-2.5707,-2.5707,-2.5707,-2.5707,-1.4244,-1.5424,0.0,-1.7417,-1.7733,-1.7787,-1.727,0.0,-1.8441,-1.9352,-1.969,-1.9797,-1.9797,-2.003,-2.0204,-2.02,-2.0441,-2.0712,-2.0975,-2.0991,-2.115,-2.1464,-2.1433,-2.1402,-2.1511,-2.1481,-2.1481,-2.1481,-2.1542,-2.1573,-2.1526,-2.1708,-2.1827,-2.1811,-2.194,-2.2084,-2.2287,-2.2415,-2.2659,-2.2977,-2.3199,-2.3558,-2.4077,-2.4303,-2.4547,-2.4827,-2.4993,-2.5137,-2.5209,-2.5264,-2.5322,-2.536,-2.5395,-2.5412,-2.5468,-2.5484,-2.5507,-2.5498,-2.5525,-2.5557,-2.5576,-2.5625,-2.5615,-2.5615,-2.5671,-2.5703,-2.5703,-2.5703,-2.5707,-2.5694,-2.5697,-2.5701,-2.5697,-2.5694,-2.5691,-2.5694,-2.5697,-2.5701,-2.5701,-2.5707,-2.5696,-2.5698,-2.5698,-2.5703,-2.5707,-2.5707,-2.5707,-2.5707,-2.5707,-2.5707,-2.5707,-2.5707,-2.5707,-2.5707,-2.5707,-2.5707,-2.5707,-2.5707,-2.5707,-2.5709,-2.5693,-2.5709,-2.5707,-2.5707,-2.5707,-2.5707,-2.5707,-2.5707,-2.5707,-2.5707,-2.5691,-2.5693,-1.4474,-1.534,-1.6426,-1.7733,-1.7397,0.0,-1.6539,-1.6949,-1.78,-1.9261,-1.9432,-1.9492,-2.0147,-2.0074,-2.005,-2.046,-2.0662,-2.0844,-2.0975,-2.0975,-2.1071,-2.1324,-2.115,-2.1071,-2.1324,-2.1309,-2.1246,-2.1246,-2.1419,-2.145,-2.1277,-2.1587,-2.1708,-2.1664,-2.1853,-2.1969,-2.1969,-2.2192,-2.2432,-2.2764,-2.279,-2.3091,-2.3671,-2.4135,-2.4479,-2.4734,-2.5063,-2.5206,-2.5222,-2.5274,-2.5313,-2.5322,-2.5376,-2.5393,-2.5423,-2.5484,-2.5499,-2.5515,-2.5583,-2.555,-2.5544,-2.5658,-2.5667,-2.5615,-2.5675,-2.5707,-2.5694,-2.5694,-2.5701,-2.571,-2.569,-2.569,-2.569,-2.569,-2.569,-2.571,-2.569,-2.569,-2.569,-2.569,-2.5696,-2.5701,-2.5701,-2.5705,-2.5707,-2.5707,-2.5707,-2.5707,-2.5707,-2.5707,-2.5707,-2.5707,-2.5707,-2.5709,-2.5709,-2.5709,-2.5709,-2.5709,-2.5707,-2.5691,-2.5699,-2.5693,-2.5709,-2.5709,-2.5709,-2.5709,-2.5709,-2.5709,-2.5707,-2.5707,-2.5697,-2.57,-1.4124,-1.5529,0.0,-1.7547,-1.7528,-1.7176,-1.6579,-1.6439,-1.6713,-1.7568,-1.8605,-1.9305,-1.9106,-2.0022,-2.0745,-2.0527,-2.0662,-2.0827,-2.0844,-2.0844,-2.0844,-2.0925,-2.0877,-2.086,-2.0909,-2.0925,-2.0893,-2.0893,-2.0958,-2.099,-2.0974,-2.1214,-2.1356,-2.1371,-2.1617,-2.1797,-2.184,-2.1986,-2.2158,-2.2332,-2.2605,-2.2917,-2.3305,-2.3783,-2.4352,-2.4942,-2.5068,-2.5201,-2.5351,-2.5361,-2.5388,-2.5376,-2.5393,-2.5434,-2.5471,-2.5498,-2.5538,-2.5585,-2.5595,-2.563,-2.5658,-2.5695,-2.5695,-2.5675,-2.5699,-2.5707,-2.5694,-2.5694,-2.5701,-2.569,-2.5696,-2.5698,-2.5698,-2.5703,-2.5698,-2.569,-2.5696,-2.5698,-2.5698,-2.5703,-2.5705,-2.5705,-2.5705,-2.5707,-2.5707,-2.5707,-2.5707,-2.5707,-2.5707,-2.5707,-2.5707,-2.5707,-2.5694,-2.5698,-2.5698,-2.5698,-2.5698,-2.5698,-2.5693,-2.5709,-2.5691,-2.5696,-2.5698,-2.5698,-2.5698,-2.5698,-2.5698,-2.5698,-2.5696,-2.5707,-2.5709,-2.5697,-1.4479,0.0,0.0,-1.7263,0.0,-1.7232,-1.6197,-1.5885,-1.5848,-1.6195,-1.7471,-1.8661,-1.9063,-1.9763,-2.0351,-2.0599,-2.0662,-2.0695,-2.0794,-2.0662,-2.061,-2.0744,-2.0644,-2.0595,-2.0744,-2.0662,-2.0613,-2.0613,-2.0695,-2.0728,-2.0663,-2.0909,-2.1135,-2.1262,-2.1419,-2.1556,-2.1601,-2.1811,-2.1928,-2.2003,-2.2321,-2.2738,-2.327,-2.3926,-2.4441,-2.4804,-2.5031,-2.516,-2.5253,-2.5351,-2.5388,-2.5395,-2.5393,-2.5426,-2.5456,-2.5485,-2.5518,-2.5554,-2.5581,-2.5615,-2.5667,-2.5695,-2.5699,-2.5699,-2.5703,-2.5694,-2.5701,-2.5704,-2.5693,-2.5701,-2.5703,-2.5703,-2.5703,-2.5707,-2.5703,-2.5701,-2.5703,-2.5703,-2.5703,-2.5707,-2.5707,-2.5707,-2.5707,-2.5707,-2.5707,-2.5707,-2.5707,-2.5707,-2.5707,-2.5707,-2.5709,-2.5694,-2.5698,-2.5701,-2.5702,-2.5702,-2.5702,-2.5702,-2.5696,-2.5707,-2.5707,-2.5699,-2.5702,-2.5702,-2.5702,-2.5702,-2.5702,-2.5702,-2.5702,-2.5699,-2.5699,-2.5702,-1.4813,0.0,-1.6726,-1.7015,-1.7253,0.0,-1.5786,-1.5388,-1.5283,-1.5222,-1.6388,-1.7844,-1.9075,-1.9325,-1.9653,-2.0618,-2.0595,-2.0481,-2.0538,-2.0398,-2.0292,-2.042,-2.0311,-2.0339,-2.0559,-2.0426,-2.0342,-2.0342,-2.0509,-2.0509,-2.0342,-2.0646,-2.0877,-2.1038,-2.1151,-2.1246,-2.1293,-2.154,-2.1661,-2.1661,-2.1991,-2.251,-2.3206,-2.4061,-2.4512,-2.4645,-2.4942,-2.5091,-2.5138,-2.5303,-2.5398,-2.5397,-2.5412,-2.541,-2.5426,-2.5485,-2.5525,-2.5525,-2.56,-2.5615,-2.5639,-2.5675,-2.5699,-2.5703,-2.5691,-2.5701,-2.5693,-2.5698,-2.5703,-2.5707,-2.5707,-2.5707,-2.5707,-2.5707,-2.5685,-2.5683,-2.5707,-2.5707,-2.5707,-2.5707,-2.5707,-2.5707,-2.5707,-2.5707,-2.5707,-2.5707,-2.5707,-2.5707,-2.5707,-2.5707,-2.5691,-2.5698,-2.5698,-2.57,-2.5703,-2.5703,-2.5703,-2.5703,-2.5698,-2.5693,-2.5693,-2.5702,-2.5703,-2.5703,-2.5703,-2.5703,-2.5703,-2.5703,-2.5703,-2.5703,-2.5703,-2.5703,-1.415,0.0,-1.6964,0.0,-1.6996,-1.6699,-1.5651,-1.5344,-1.5283,-1.5222,-1.605,-1.7103,-1.7971,-1.8726,-1.952,-2.0418,-2.0426,-2.0138,-1.9568,-1.9851,-1.9921,-1.9372,-1.9745,-2.0041,-2.0111,-2.0061,-2.0061,-2.0061,-2.0115,-2.015,-2.0061,-2.0323,-2.0444,-2.0407,-2.0695,-2.086,-2.0893,-2.1023,-2.1071,-2.1023,-2.1655,-2.2203,-2.2721,-2.3468,-2.4174,-2.4775,-2.4818,-2.5006,-2.5282,-2.5293,-2.5351,-2.5412,-2.5456,-2.5488,-2.5492,-2.5564,-2.5593,-2.56,-2.5667,-2.5695,-2.5695,-2.5699,-2.5703,-2.5691,-2.5691,-2.5704,-2.5698,-2.5698,-2.5703,-2.5707,-2.5707,-2.5707,-2.5707,-2.5707,-2.5651,-2.5639,-2.5683,-2.5707,-2.5707,-2.5707,-2.5707,-2.5707,-2.5707,-2.5707,-2.5707,-2.5707,-2.5707,-2.5707,-2.5707,-2.5707,-2.5707,-2.5709,-2.5709,-2.5709,-2.5691,-2.5698,-2.5701,-2.5701,-2.5702,-2.5703,-2.5703,-2.5703,-2.5703,-2.5703,-2.5703,-2.5703,-2.5703,-2.5703,-2.5703,-2.5703,-2.5703,-2.5703,-1.4555,-1.6022,-1.6864,0.0,-1.7008,-1.6684,-1.5866,-1.5453,-1.5208,-1.5102,-1.5532,-1.6171,-1.7012,-1.7638,-1.8268,-1.904,-1.9131,-1.8958,-1.8619,-1.8753,-1.8812,-1.8457,-1.8667,-1.8918,-1.9245,-1.9256,-1.9406,-1.9818,-1.9869,-1.9869,-1.9884,-2.008,-2.022,-2.0304,-2.0441,-2.0527,-2.0579,-2.073,-2.091,-2.1182,-2.1337,-2.1786,-2.251,-2.2703,-2.3307,-2.421,-2.4663,-2.4955,-2.5091,-2.5274,-2.5395,-2.5453,-2.5492,-2.5517,-2.5556,-2.5587,-2.5595,-2.5609,-2.5671,-2.5697,-2.5697,-2.5697,-2.5701,-2.5704,-2.5707,-2.5693,-2.5696,-2.5645,-2.5673,-2.5685,-2.5648,-2.5645,-2.5648,-2.5685,-2.5655,-2.5615,-2.5687,-2.5664,-2.5662,-2.5683,-2.5707,-2.5707,-2.5707,-2.5707,-2.5707,-2.5707,-2.5707,-2.5707,-2.5707,-2.5693,-2.5696,-2.5696,-2.5696,-2.5694,-2.5707,-2.5691,-2.5694,-2.5694,-2.5697,-2.5701,-2.5703,-2.5703,-2.5703,-2.5703,-2.5703,-2.5703,-2.5703,-2.5703,-2.5703,-2.5703,-2.5703,-2.5703,0.0,0.0,-1.6307,-1.6702,-1.6817,-1.6726,-1.6255,-1.5773,-1.5391,-1.5287,-1.5278,-1.5504,-1.6172,-1.6683,-1.7258,-1.796,-1.8066,-1.8005,-1.7775,-1.7865,-1.7847,-1.7618,-1.7736,-1.8032,-1.8574,-1.8599,-1.8882,-1.9573,-1.9504,-1.9435,-1.9486,-1.9441,-1.9489,-1.9611,-1.9611,-1.9722,-1.9977,-2.0249,-2.0614,-2.1087,-2.0942,-2.1274,-2.2046,-2.2079,-2.2574,-2.3472,-2.4243,-2.4685,-2.4917,-2.5163,-2.535,-2.548,-2.5499,-2.5524,-2.5587,-2.5585,-2.5595,-2.5601,-2.5684,-2.571,-2.571,-2.571,-2.569,-2.5693,-2.5698,-2.5701,-2.5696,-2.5609,-2.5648,-2.5681,-2.5629,-2.5605,-2.5639,-2.5684,-2.566,-2.562,-2.5687,-2.5658,-2.5639,-2.5687,-2.5709,-2.5707,-2.5691,-2.5709,-2.5707,-2.5691,-2.5691,-2.5691,-2.5707,-2.5694,-2.5699,-2.5701,-2.5702,-2.57,-2.5694,-2.5693,-2.5691,-2.5691,-2.5709,-2.5694,-2.5702,-2.5703,-2.5703,-2.5703,-2.5703,-2.5703,-2.5703,-2.5703,-2.5703,-2.5703,-2.5703,-2.5703,0.0,-1.4337,0.0,-1.5599,-1.6246,-1.6702,-1.6747,-1.6403,-1.6038,-1.5974,-1.5595,-1.5343,-1.5433,-1.6188,-1.709,-1.7897,-1.8003,-1.7775,-1.7136,-1.7483,-1.7554,-1.6863,-1.7213,-1.7781,-1.8466,-1.849,-1.8756,-1.9369,-1.893,-1.8659,-1.8654,-1.8078,-1.7754,-1.7819,-1.7787,-1.8085,-1.8781,-1.9446,-1.9925,-2.0277,-2.0447,-2.0698,-2.1086,-2.179,-2.2286,-2.2678,-2.3365,-2.4137,-2.4896,-2.4917,-2.513,-2.5404,-2.5472,-2.5498,-2.5512,-2.5581,-2.5604,-2.5613,-2.5681,-2.571,-2.571,-2.571,-2.5693,-2.5698,-2.5698,-2.5703,-2.5683,-2.5613,-2.5648,-2.5681,-2.5613,-2.5658,-2.5693,-2.5692,-2.5658,-2.5613,-2.5699,-2.5698,-2.5699,-2.5699,-2.5694,-2.5691,-2.5698,-2.5694,-2.5691,-2.5699,-2.5699,-2.5697,-2.5709,-2.5707,-2.5694,-2.5703,-2.5703,-2.5703,-2.5703,-2.5702,-2.5699,-2.5699,-2.5693,-2.5707,-2.5709,-2.5702,-2.5703,-2.5703,-2.5703,-2.5703,-2.5703,-2.5703,-2.5703,-2.5703,-2.5703,-2.5703,0.0,0.0,0.0,-1.5788,-1.6184,-1.6352,-1.69,-1.6817,-1.6503,-1.607,-1.5958,-1.5825,-1.5401,-1.5758,-1.6276,-1.6811,-1.6755,-1.6591,-1.6435,-1.6398,-1.6278,-1.5965,-1.6067,-1.6417,-1.7093,-1.7056,-1.732,-1.8062,-1.792,-1.7855,-1.787,-1.7681,-1.7548,-1.7581,-1.7548,-1.7859,-1.8545,-1.8837,-1.9396,-2.012,-2.0015,-2.0311,-2.0942,-2.1197,-2.1625,-2.2197,-2.2795,-2.3699,-2.471,-2.4892,-2.5154,-2.5464,-2.5445,-2.5492,-2.5571,-2.5595,-2.5628,-2.5665,-2.5693,-2.5698,-2.5701,-2.5701,-2.5703,-2.5705,-2.5705,-2.5705,-2.5685,-2.5618,-2.5652,-2.5673,-2.5629,-2.5613,-2.5613,-2.5538,-2.555,-2.5583,-2.5577,-2.5619,-2.5642,-2.5682,-2.5702,-2.5698,-2.5703,-2.5694,-2.5701,-2.57,-2.5702,-2.5703,-2.5702,-2.5701,-2.5702,-2.5703,-2.5703,-2.5703,-2.5703,-2.5703,-2.5703,-2.5703,-2.5702,-2.5701,-2.5701,-2.5703,-2.5703,-2.5703,-2.57,-2.57,-2.5703,-2.5703,-2.5703,-2.5703,-2.5703,-2.5703,-1.2143,0.0,0.0,-1.5336,-1.5697,-1.5944,-1.7079,-1.7065,-1.6787,-1.6655,-1.642,-1.6128,-1.5674,-1.5639,-1.5782,-1.6163,-1.6151,-1.6111,-1.6179,-1.5883,-1.5624,-1.5551,-1.5389,-1.5531,-1.6198,-1.621,-1.6438,-1.7204,-1.7059,-1.6961,-1.7045,-1.6855,-1.6737,-1.677,-1.699,-1.7434,-1.8062,-1.8357,-1.8962,-1.9833,-1.9762,-1.998,-2.053,-2.0697,-2.115,-2.1828,-2.2289,-2.3168,-2.4323,-2.4705,-2.5057,-2.5339,-2.5374,-2.5459,-2.5565,-2.5595,-2.5628,-2.5665,-2.5696,-2.5701,-2.5703,-2.5673,-2.5673,-2.5693,-2.5665,-2.5665,-2.5645,-2.5597,-2.5619,-2.5651,-2.5582,-2.5585,-2.5565,-2.5468,-2.5503,-2.555,-2.5511,-2.5549,-2.5609,-2.5651,-2.5668,-2.567,-2.5678,-2.5665,-2.5679,-2.5668,-2.5681,-2.5703,-2.5703,-2.5693,-2.5707,-2.5703,-2.5703,-2.5703,-2.5703,-2.5703,-2.5703,-2.5703,-2.5703,-2.5703,-2.5703,-2.5703,-2.5703,-2.5702,-2.5694,-2.5693,-2.5702,-2.5703,-2.5703,-2.5702,-2.5703,-2.5703,0.0,0.0,0.0,-1.4081,-1.475,-1.5569,-1.7156,-1.7092,-1.6909,-1.7698,-1.6977,-1.621,-1.6192,-1.5887,-1.5712,-1.6039,-1.6262,-1.6371,-1.6382,-1.5981,-1.5681,-1.5681,-1.527,-1.5256,-1.5898,-1.5955,-1.6227,-1.6904,-1.636,-1.602,-1.6152,-1.5556,-1.5222,-1.5313,-1.6001,-1.6644,-1.7171,-1.7914,-1.8607,-1.9273,-1.9581,-1.9726,-1.9797,-2.0289,-2.091,-2.1579,-2.1799,-2.2574,-2.3699,-2.4312,-2.4743,-2.5034,-2.5283,-2.5434,-2.551,-2.5571,-2.5604,-2.5613,-2.5684,-2.5696,-2.569,-2.5613,-2.5648,-2.5691,-2.5615,-2.5595,-2.5595,-2.5512,-2.5543,-2.5581,-2.5529,-2.555,-2.5588,-2.553,-2.5511,-2.5511,-2.5511,-2.5543,-2.5591,-2.5599,-2.5607,-2.5598,-2.5598,-2.5609,-2.5601,-2.5604,-2.567,-2.5703,-2.5703,-2.5693,-2.5698,-2.5701,-2.5703,-2.5703,-2.5703,-2.5703,-2.5703,-2.5703,-2.5703,-2.5703,-2.5703,-2.5703,-2.5702,-2.5707,-2.5707,-2.5707,-2.5707,-2.5697,-2.5697,-2.5707,-2.5697,-2.5702,-1.0714,0.0,0.0,0.0,0.0,0.0,-1.5748,-1.6008,-1.615,-1.6703,-1.6607,-1.6344,-1.6102,-1.6082,-1.5977,-1.5581,-1.5696,-1.5883,-1.6022,-1.571,-1.5448,-1.5344,-1.5224,-1.5174,-1.527,-1.5284,-1.5356,-1.5541,-1.5384,-1.5301,-1.5332,-1.5264,-1.5222,-1.5313,-1.5487,-1.5895,-1.6474,-1.7175,-1.7865,-1.8578,-1.9177,-1.956,-1.9762,-2.0204,-2.0563,-2.0845,-2.1562,-2.2079,-2.247,-2.3518,-2.4356,-2.501,-2.5141,-2.5313,-2.551,-2.5582,-2.5632,-2.5675,-2.5687,-2.5696,-2.5693,-2.5681,-2.5673,-2.5685,-2.5626,-2.5593,-2.5601,-2.5568,-2.558,-2.5575,-2.5529,-2.5507,-2.553,-2.5511,-2.5511,-2.5511,-2.5511,-2.5511,-2.5538,-2.5584,-2.5568,-2.5538,-2.5538,-2.558,-2.5584,-2.5531,-2.5628,-2.5678,-2.5626,-2.5665,-2.5703,-2.5698,-2.5701,-2.5703,-2.5703,-2.5694,-2.5695,-2.5703,-2.5703,-2.5703,-2.5703,-2.57,-2.5693,-2.5707,-2.5707,-2.5707,-2.5707,-2.5697,-2.5697,-2.5707,-2.5691,-2.5693,-1.0658,-1.1226,-1.207,-1.28,0.0,0.0,-1.5004,-1.5301,-1.5554,-1.6469,-1.6603,-1.6572,-1.6543,-1.6507,-1.6272,-1.5641,-1.5554,-1.5621,-1.5839,-1.5652,-1.5433,-1.5344,-1.5178,-1.5011,-1.4935,-1.4904,-1.4904,-1.4904,-1.4904,-1.4921,-1.5013,-1.5133,-1.5222,-1.5313,-1.5313,-1.5603,-1.6198,-1.659,-1.7292,-1.8258,-1.8788,-1.9292,-1.9669,-2.0045,-2.0323,-2.0527,-2.107,-2.1532,-2.1972,-2.2807,-2.3658,-2.4503,-2.4891,-2.5149,-2.5303,-2.5485,-2.5583,-2.5609,-2.5644,-2.566,-2.5639,-2.5625,-2.5622,-2.5594,-2.5543,-2.5531,-2.557,-2.5565,-2.5569,-2.555,-2.5511,-2.5511,-2.5511,-2.5511,-2.5511,-2.5511,-2.5511,-2.5488,-2.5503,-2.5557,-2.5553,-2.5536,-2.5503,-2.5568,-2.5601,-2.5556,-2.5611,-2.5647,-2.5609,-2.564,-2.5667,-2.5698,-2.5671,-2.5661,-2.57,-2.5691,-2.5682,-2.5655,-2.568,-2.5703,-2.5703,-2.5698,-2.5691,-2.5707,-2.5707,-2.5707,-2.5707,-2.5693,-2.5693,-2.5707,-2.5707,-2.5707,-1.1043,-1.1362,-1.1983,-1.2655,-1.26,0.0,-1.45,-1.473,-1.498,-1.6413,-1.6578,-1.6613,-1.7117,-1.6892,-1.6459,-1.591,-1.5683,-1.5586,-1.5668,-1.5565,-1.5477,-1.5418,-1.5102,-1.4887,-1.4808,-1.4808,-1.4808,-1.4808,-1.4808,-1.4856,-1.4982,-1.5102,-1.5222,-1.5313,-1.524,-1.5487,-1.6097,-1.6111,-1.6735,-1.7983,-1.8327,-1.8837,-1.9507,-1.9793,-2.0089,-2.046,-2.0494,-2.0991,-2.1828,-2.219,-2.2883,-2.3796,-2.4654,-2.4992,-2.5044,-2.5408,-2.5529,-2.5518,-2.5583,-2.5609,-2.5596,-2.5522,-2.5506,-2.5484,-2.5429,-2.5456,-2.5511,-2.5511,-2.5511,-2.5511,-2.5511,-2.5511,-2.5511,-2.5511,-2.5492,-2.5499,-2.5499,-2.5507,-2.5507,-2.5507,-2.5557,-2.557,-2.5525,-2.5564,-2.5601,-2.5595,-2.5608,-2.5596,-2.56,-2.5599,-2.5618,-2.5678,-2.5637,-2.5627,-2.5689,-2.5681,-2.5673,-2.5611,-2.5654,-2.5683,-2.5699,-2.5699,-2.5696,-2.5707,-2.5707,-2.5707,-2.5707,-2.5707,-2.5707,-2.5707,-2.5707,-2.5707,-1.2324,-1.2722,-1.3003,-1.2904,-1.3376,0.0,-1.3168,-1.3496,-1.4086,-1.4777,-1.5003,-1.5394,-1.6385,-1.6327,-1.5968,-1.5401,-1.5751,-1.5751,-1.4893,-1.4937,-1.4968,-1.4721,-1.4859,-1.4935,-1.4794,-1.4808,-1.4808,-1.4808,-1.4808,-1.4856,-1.4982,-1.5013,-1.5133,-1.5283,-1.479,-1.4819,-1.5487,-1.5487,-1.5864,-1.6605,-1.7427,-1.8153,-1.8793,-1.9084,-1.9524,-2.0096,-2.0392,-2.0745,-2.115,-2.174,-2.2667,-2.3781,-2.4549,-2.4944,-2.5123,-2.5523,-2.5626,-2.5586,-2.5654,-2.565,-2.5592,-2.553,-2.5503,-2.5511,-2.5484,-2.5484,-2.5511,-2.5511,-2.5511,-2.5511,-2.5511,-2.5511,-2.5511,-2.5511,-2.5495,-2.5505,-2.5505,-2.555,-2.5574,-2.5589,-2.5551,-2.5531,-2.557,-2.5595,-2.5576,-2.5531,-2.557,-2.5582,-2.5525,-2.5568,-2.5609,-2.563,-2.5609,-2.564,-2.5697,-2.5655,-2.5643,-2.568,-2.5639,-2.5648,-2.5693,-2.5691,-2.5709,-2.5707,-2.5707,-2.5707,-2.5707,-2.5707,-2.5707,-2.5707,-2.5707,-2.5707,-1.2733,-1.2879,-1.3062,-1.31,-1.3397,0.0,0.0,-1.3593,-1.3927,-1.4892,-1.4894,-1.5087,-1.62,-1.6143,-1.5667,-1.4985,-1.5457,-1.5466,-1.404,-1.4795,-1.5383,-1.5045,-1.5379,-1.5674,-1.5736,-1.5455,-1.5131,-1.4822,-1.4808,-1.4856,-1.4982,-1.5013,-1.5088,-1.5283,-1.495,-1.4964,-1.5344,-1.5313,-1.5648,-1.6369,-1.6897,-1.7466,-1.8056,-1.8371,-1.8652,-1.8951,-1.9526,-1.9964,-2.0289,-2.1341,-2.2156,-2.2888,-2.3704,-2.4322,-2.4733,-2.509,-2.5329,-2.5519,-2.5588,-2.5556,-2.5511,-2.5495,-2.5511,-2.5511,-2.5511,-2.5511,-2.5511,-2.5511,-2.5511,-2.5511,-2.5511,-2.5507,-2.5495,-2.5492,-2.5503,-2.5499,-2.5499,-2.5525,-2.5549,-2.5585,-2.5574,-2.5549,-2.5585,-2.5634,-2.5639,-2.5609,-2.5595,-2.5595,-2.5604,-2.5595,-2.561,-2.564,-2.5642,-2.5657,-2.5691,-2.5639,-2.5615,-2.5648,-2.5619,-2.5612,-2.5644,-2.5681,-2.5694,-2.5707,-2.5707,-2.5707,-2.5707,-2.5707,-2.5707,-2.5707,-2.5707,-2.5707,-1.3054,-1.2958,-1.3051,-1.3357,-1.3398,-1.3531,0.0,0.0,0.0,-1.5149,-1.4941,-1.4872,-1.5865,-1.5649,-1.5171,-1.465,-1.502,-1.4869,-1.3496,-1.4813,-1.5762,-1.5305,-1.5874,-1.6366,-1.6536,-1.6053,-1.5457,-1.4853,-1.4819,-1.4863,-1.4984,-1.5013,-1.5088,-1.5283,-1.5152,-1.5197,-1.5374,-1.5212,-1.5534,-1.6301,-1.647,-1.6812,-1.7371,-1.7646,-1.7785,-1.7857,-1.8548,-1.91,-1.9562,-2.0713,-2.1447,-2.1943,-2.2981,-2.3721,-2.4225,-2.4645,-2.5003,-2.5303,-2.5459,-2.5444,-2.538,-2.5479,-2.5511,-2.5511,-2.5511,-2.5511,-2.5511,-2.5511,-2.5511,-2.5511,-2.5511,-2.5495,-2.5498,-2.5499,-2.551,-2.5525,-2.5525,-2.5538,-2.5543,-2.5605,-2.5615,-2.5615,-2.5615,-2.5667,-2.5699,-2.5675,-2.5643,-2.5639,-2.5671,-2.5643,-2.5632,-2.569,-2.5693,-2.5693,-2.5693,-2.5642,-2.5621,-2.5615,-2.5625,-2.5612,-2.5611,-2.5664,-2.5698,-2.5707,-2.5707,-2.5707,-2.5707,-2.5707,-2.5707,-2.5707,-2.5707,-2.5707,-1.4139,-1.4016,-1.388,-1.3989,-1.429,-1.4439,-1.3848,0.0,-1.4841,-1.3857,0.0,-1.3988,-1.4588,0.0,0.0,-1.4651,-1.4396,-1.4032,-1.3767,-1.4575,-1.5028,-1.4498,-1.5542,-1.6244,-1.61,-1.591,-1.5512,-1.485,-1.4856,-1.4924,-1.4989,-1.5013,-1.5088,-1.5283,-1.4732,-1.4703,-1.5298,-1.4848,-1.4906,-1.5536,-1.5787,-1.6263,-1.6893,-1.6863,-1.7209,-1.7874,-1.7949,-1.8492,-1.9418,-1.9641,-2.0462,-2.1688,-2.3168,-2.3765,-2.3888,-2.4805,-2.5035,-2.4924,-2.5343,-2.5378,-2.5254,-2.5432,-2.5511,-2.5511,-2.5511,-2.5511,-2.5511,-2.5511,-2.5511,-2.5511,-2.5511,-2.5492,-2.5499,-2.5492,-2.555,-2.5595,-2.5595,-2.5639,-2.5691,-2.5695,-2.5695,-2.5695,-2.5695,-2.5699,-2.5671,-2.5615,-2.5667,-2.5671,-2.5615,-2.5667,-2.5699,-2.5703,-2.5703,-2.5703,-2.5703,-2.5683,-2.5699,-2.5695,-2.5684,-2.5685,-2.5699,-2.57,-2.5709,-2.5707,-2.5707,-2.5707,-2.5707,-2.5707,-2.5707,-2.5707,-2.5707,-2.5707,-1.428,-1.3865,-1.3463,-1.4025,-1.4105,-1.4047,-1.4093,-1.4251,-1.431,-1.4127,0.0,0.0,0.0,0.0,0.0,0.0,-1.3864,-1.3703,-1.307,-1.398,-1.482,-1.5131,-1.588,-1.622,-1.5922,-1.5975,-1.5831,-1.5367,-1.5064,-1.5022,-1.5276,-1.5165,-1.5163,-1.5313,-1.5037,-1.5023,-1.5344,-1.514,-1.5198,-1.5522,-1.5639,-1.5846,-1.6114,-1.6247,-1.6427,-1.6729,-1.759,-1.8202,-1.8651,-1.9485,-2.0363,-2.1229,-2.1907,-2.2632,-2.3364,-2.3855,-2.4321,-2.4769,-2.5318,-2.5395,-2.5274,-2.544,-2.5511,-2.5511,-2.5511,-2.5511,-2.5511,-2.5511,-2.5511,-2.5511,-2.5511,-2.5507,-2.5503,-2.5499,-2.5517,-2.5538,-2.5595,-2.5618,-2.5644,-2.5695,-2.5699,-2.5699,-2.5699,-2.5699,-2.5695,-2.5667,-2.5675,-2.5695,-2.5667,-2.5675,-2.5699,-2.5699,-2.5699,-2.5699,-2.5699,-2.5699,-2.5699,-2.5699,-2.5707,-2.5707,-2.57,-2.5703,-2.5696,-2.5707,-2.5707,-2.5707,-2.5707,-2.5707,-2.5707,-2.5707,-2.5707,-2.5707,-1.405,-1.3507,-1.301,-1.3839,-1.3764,-1.364,-1.4124,-1.4013,-1.3898,-1.4297,-1.3575,0.0,0.0,0.0,-1.3146,-1.3173,0.0,-1.3265,-1.2884,-1.3582,-1.4356,-1.5,-1.5694,-1.5994,-1.5634,-1.5772,-1.5778,-1.5491,-1.512,-1.5066,-1.5365,-1.5221,-1.5102,-1.5025,-1.5025,-1.5072,-1.5134,-1.5134,-1.5255,-1.5448,-1.5522,-1.558,-1.5697,-1.587,-1.5898,-1.5945,-1.7197,-1.7788,-1.7917,-1.9197,-2.0088,-2.0632,-2.0586,-2.1364,-2.25,-2.2941,-2.364,-2.4469,-2.5069,-2.5311,-2.5376,-2.5476,-2.5511,-2.5511,-2.5511,-2.5511,-2.5511,-2.5511,-2.5511,-2.5511,-2.5511,-2.5495,-2.549,-2.5499,-2.551,-2.5531,-2.5564,-2.5607,-2.5634,-2.5667,-2.5695,-2.5699,-2.5699,-2.5699,-2.5699,-2.5699,-2.5699,-2.5699,-2.5699,-2.5699,-2.5699,-2.5699,-2.5699,-2.5699,-2.5699,-2.5699,-2.5699,-2.5699,-2.5707,-2.5705,-2.5697,-2.5703,-2.5702,-2.5696,-2.5693,-2.5693,-2.5693,-2.5709,-2.5707,-2.5707,-2.5707,-2.5707,-1.3449,-1.3139,-1.2753,-1.344,-1.3545,-1.3509,-1.3519,-1.3839,-1.401,-1.3794,-1.3281,-1.3042,-1.3518,-1.302,-1.2735,-1.3302,-1.2696,0.0,0.0,-1.3607,-1.3395,-1.3283,-1.4481,-1.5301,-1.5125,-1.5139,-1.5058,-1.4822,-1.4924,-1.4985,-1.5026,-1.5031,-1.4796,-1.4346,-1.4332,-1.4369,-1.4438,-1.4501,-1.4721,-1.5134,-1.5329,-1.558,-1.59,-1.5827,-1.587,-1.6042,-1.6593,-1.7068,-1.7497,-1.838,-1.9215,-1.9899,-1.9645,-2.0158,-2.1195,-2.2366,-2.3235,-2.3902,-2.4524,-2.5058,-2.5484,-2.5511,-2.5511,-2.5511,-2.5511,-2.5511,-2.5511,-2.5511,-2.5511,-2.5511,-2.5511,-2.5492,-2.5492,-2.5511,-2.555,-2.557,-2.5525,-2.5609,-2.5671,-2.5615,-2.5667,-2.5699,-2.5699,-2.5699,-2.5699,-2.5699,-2.5699,-2.5699,-2.5699,-2.5699,-2.5699,-2.5699,-2.5699,-2.5699,-2.5699,-2.5699,-2.5699,-2.5699,-2.5707,-2.5703,-2.5707,-2.5699,-2.5703,-2.5703,-2.5702,-2.5701,-2.5702,-2.5694,-2.5707,-2.5707,-2.5707,-2.5707,-1.2569,-1.2307,-1.2142,-1.2927,-1.2673,-1.2394,-1.2926,-1.285,-1.2858,-1.3301,-1.3219,-1.3217,-1.3655,-1.3568,-1.3433,-1.3518,-1.2981,-1.2742,0.0,-1.2779,-1.2297,-1.214,-1.3538,-1.4434,-1.4256,-1.4384,-1.4738,-1.5364,-1.5164,-1.5079,-1.5254,-1.5197,-1.4904,-1.4383,-1.442,-1.4452,-1.447,-1.4533,-1.4627,-1.4783,-1.5195,-1.5448,-1.558,-1.587,-1.6011,-1.6098,-1.6726,-1.7241,-1.7629,-1.8027,-1.88,-1.9651,-1.9207,-1.9722,-2.083,-2.1775,-2.262,-2.3435,-2.4626,-2.5236,-2.5511,-2.5511,-2.5511,-2.5511,-2.5511,-2.5511,-2.5511,-2.5511,-2.5511,-2.5511,-2.5511,-2.5511,-2.5511,-2.5511,-2.5515,-2.5543,-2.5557,-2.5593,-2.5639,-2.5663,-2.5675,-2.5699,-2.5699,-2.5699,-2.5699,-2.5699,-2.5699,-2.5699,-2.5699,-2.5699,-2.5699,-2.5699,-2.5699,-2.5699,-2.5699,-2.5703,-2.5691,-2.5701,-2.5707,-2.5701,-2.5691,-2.5696,-2.57,-2.5703,-2.5702,-2.57,-2.5701,-2.5693,-2.5703,-2.5696,-2.5696,-2.5701,-1.2022,-1.1871,-1.1788,-1.259,-1.234,-1.1975,-1.2521,-1.2362,-1.2294,-1.2916,-1.3185,-1.3275,-1.3378,-1.3754,-1.386,-1.3317,-1.3304,-1.3293,0.0,-1.2505,-1.1919,-1.1575,-1.2659,-1.3401,-1.3224,-1.342,-1.3976,-1.4935,-1.489,-1.4881,-1.4962,-1.5135,-1.486,-1.4111,-1.4117,-1.4195,-1.4292,-1.4324,-1.4452,-1.4672,-1.5043,-1.5315,-1.5536,-1.5826,-1.6024,-1.6169,-1.6755,-1.7044,-1.7173,-1.7716,-1.8346,-1.8921,-1.8835,-1.9391,-2.0317,-2.1199,-2.2229,-2.3379,-2.4521,-2.5126,-2.5415,-2.5476,-2.5511,-2.5511,-2.5511,-2.5511,-2.5511,-2.5511,-2.5511,-2.5511,-2.5511,-2.5511,-2.5511,-2.5511,-2.5499,-2.5503,-2.5557,-2.5576,-2.5604,-2.5649,-2.5687,-2.5699,-2.5699,-2.5699,-2.5699,-2.5699,-2.5699,-2.5699,-2.5699,-2.5699,-2.5699,-2.5699,-2.5699,-2.5699,-2.5699,-2.5707,-2.5694,-2.5704,-2.5707,-2.5696,-2.5709,-2.5709,-2.5694,-2.57,-2.5703,-2.5703,-2.5701,-2.5693,-2.5698,-2.5662,-2.5662,-2.5665]}]]